<?xml version='1.0' encoding='UTF-8'?><gpx version="1.1" creator="JPX - https://github.com/jenetics/jpx" xmlns="http://www.topografix.com/GPX/1/1"><trk><trkseg><trkpt lat="44.2395233" lon="8.11035"><ele>653.0</ele><time>2026-05-02T08:29:24.352Z</time></trkpt><trkpt lat="44.2395233" lon="8.110245"><ele>653.0</ele><time>2026-05-02T08:29:26.352Z</time></trkpt><trkpt lat="44.23949" lon="8.1101433"><ele>653.0</ele><time>2026-05-02T08:29:28.352Z</time></trkpt><trkpt lat="44.2394083" lon="8.1101167"><ele>653.0</ele><time>2026-05-02T08:29:31.353Z</time></trkpt><trkpt lat="44.2393433" lon="8.1101517"><ele>653.0</ele><time>2026-05-02T08:29:33.354Z</time></trkpt><trkpt lat="44.2392717" lon="8.110195"><ele>653.0</ele><time>2026-05-02T08:29:35.352Z</time></trkpt><trkpt lat="44.2391917" lon="8.110255"><ele>653.0</ele><time>2026-05-02T08:29:37.352Z</time></trkpt><trkpt lat="44.23911" lon="8.1103133"><ele>653.0</ele><time>2026-05-02T08:29:39.355Z</time></trkpt><trkpt lat="44.2390217" lon="8.1103617"><ele>653.0</ele><time>2026-05-02T08:29:41.357Z</time></trkpt><trkpt lat="44.2389333" lon="8.1104117"><ele>653.0</ele><time>2026-05-02T08:29:43.351Z</time></trkpt><trkpt lat="44.2388483" lon="8.1104617"><ele>653.0</ele><time>2026-05-02T08:29:45.352Z</time></trkpt><trkpt lat="44.2387817" lon="8.1105017"><ele>653.0</ele><time>2026-05-02T08:29:47.351Z</time></trkpt><trkpt lat="44.2387233" lon="8.11058"><ele>652.6666666666666</ele><time>2026-05-02T08:29:51.351Z</time></trkpt><trkpt lat="44.23871" lon="8.110695"><ele>652.3333333333333</ele><time>2026-05-02T08:29:53.353Z</time></trkpt><trkpt lat="44.2387217" lon="8.1108733"><ele>652.0</ele><time>2026-05-02T08:29:55.352Z</time></trkpt><trkpt lat="44.2387367" lon="8.1109783"><ele>651.6666666666666</ele><time>2026-05-02T08:29:56.355Z</time></trkpt><trkpt lat="44.238755" lon="8.1110817"><ele>651.3333333333334</ele><time>2026-05-02T08:29:57.354Z</time></trkpt><trkpt lat="44.2387717" lon="8.1111917"><ele>651.0</ele><time>2026-05-02T08:29:58.352Z</time></trkpt><trkpt lat="44.2387917" lon="8.1113017"><ele>650.6666666666666</ele><time>2026-05-02T08:29:59.351Z</time></trkpt><trkpt lat="44.2388067" lon="8.1114017"><ele>650.3333333333334</ele><time>2026-05-02T08:30:00.361Z</time></trkpt><trkpt lat="44.2388133" lon="8.1114933"><ele>650.0</ele><time>2026-05-02T08:30:01.351Z</time></trkpt><trkpt lat="44.2388183" lon="8.11161"><ele>649.6666666666667</ele><time>2026-05-02T08:30:03.353Z</time></trkpt><trkpt lat="44.2387567" lon="8.1116283"><ele>649.3333333333334</ele><time>2026-05-02T08:30:06.353Z</time></trkpt><trkpt lat="44.23867" lon="8.111595"><ele>649.0</ele><time>2026-05-02T08:30:08.352Z</time></trkpt><trkpt lat="44.2385467" lon="8.1115617"><ele>649.0</ele><time>2026-05-02T08:30:10.354Z</time></trkpt><trkpt lat="44.2384783" lon="8.111545"><ele>649.0</ele><time>2026-05-02T08:30:11.354Z</time></trkpt><trkpt lat="44.2384033" lon="8.1115333"><ele>649.0</ele><time>2026-05-02T08:30:12.356Z</time></trkpt><trkpt lat="44.238325" lon="8.1115267"><ele>649.0</ele><time>2026-05-02T08:30:13.355Z</time></trkpt><trkpt lat="44.2382467" lon="8.1115317"><ele>649.0</ele><time>2026-05-02T08:30:14.356Z</time></trkpt><trkpt lat="44.2381667" lon="8.111565"><ele>649.0</ele><time>2026-05-02T08:30:15.353Z</time></trkpt><trkpt lat="44.2381017" lon="8.111635"><ele>654.8000000000001</ele><time>2026-05-02T08:30:16.354Z</time></trkpt><trkpt lat="44.23805" lon="8.111735"><ele>660.6</ele><time>2026-05-02T08:30:17.353Z</time></trkpt><trkpt lat="44.2380067" lon="8.1118583"><ele>666.4</ele><time>2026-05-02T08:30:18.352Z</time></trkpt><trkpt lat="44.237965" lon="8.1119817"><ele>672.2</ele><time>2026-05-02T08:30:19.354Z</time></trkpt><trkpt lat="44.2379267" lon="8.112105"><ele>678.0</ele><time>2026-05-02T08:30:20.355Z</time></trkpt><trkpt lat="44.23789" lon="8.112225"><ele>678.0</ele><time>2026-05-02T08:30:21.355Z</time></trkpt><trkpt lat="44.23785" lon="8.112345"><ele>678.0</ele><time>2026-05-02T08:30:22.357Z</time></trkpt><trkpt lat="44.237795" lon="8.1124517"><ele>678.0</ele><time>2026-05-02T08:30:23.355Z</time></trkpt><trkpt lat="44.2377317" lon="8.1125433"><ele>678.0</ele><time>2026-05-02T08:30:24.354Z</time></trkpt><trkpt lat="44.23767" lon="8.112625"><ele>678.0</ele><time>2026-05-02T08:30:25.353Z</time></trkpt><trkpt lat="44.2376167" lon="8.1126967"><ele>678.0</ele><time>2026-05-02T08:30:26.356Z</time></trkpt><trkpt lat="44.237555" lon="8.1127683"><ele>680.0</ele><time>2026-05-02T08:30:28.355Z</time></trkpt><trkpt lat="44.2374817" lon="8.1128233"><ele>682.0</ele><time>2026-05-02T08:30:34.356Z</time></trkpt><trkpt lat="44.23743" lon="8.11289"><ele>684.0</ele><time>2026-05-02T08:30:36.354Z</time></trkpt><trkpt lat="44.2373717" lon="8.1129633"><ele>686.0</ele><time>2026-05-02T08:30:38.352Z</time></trkpt><trkpt lat="44.2372983" lon="8.1130467"><ele>688.0</ele><time>2026-05-02T08:30:40.353Z</time></trkpt><trkpt lat="44.2372283" lon="8.1131367"><ele>690.0</ele><time>2026-05-02T08:30:42.357Z</time></trkpt><trkpt lat="44.2371583" lon="8.1132217"><ele>685.1666666666666</ele><time>2026-05-02T08:30:44.358Z</time></trkpt><trkpt lat="44.2370983" lon="8.1132867"><ele>680.3333333333334</ele><time>2026-05-02T08:30:46.349Z</time></trkpt><trkpt lat="44.23705" lon="8.11336"><ele>675.5</ele><time>2026-05-02T08:30:50.351Z</time></trkpt><trkpt lat="44.2369933" lon="8.113465"><ele>670.6666666666667</ele><time>2026-05-02T08:30:54.35Z</time></trkpt><trkpt lat="44.2369217" lon="8.1135683"><ele>665.8333333333334</ele><time>2026-05-02T08:30:56.358Z</time></trkpt><trkpt lat="44.2368517" lon="8.1136583"><ele>661.0</ele><time>2026-05-02T08:30:58.349Z</time></trkpt><trkpt lat="44.23679" lon="8.1137367"><ele>661.0</ele><time>2026-05-02T08:31:00.35Z</time></trkpt><trkpt lat="44.236725" lon="8.1138383"><ele>661.0</ele><time>2026-05-02T08:31:02.352Z</time></trkpt><trkpt lat="44.2366583" lon="8.1139183"><ele>661.0</ele><time>2026-05-02T08:31:04.354Z</time></trkpt><trkpt lat="44.23659" lon="8.1140167"><ele>661.0</ele><time>2026-05-02T08:31:06.35Z</time></trkpt><trkpt lat="44.2365283" lon="8.114105"><ele>661.0</ele><time>2026-05-02T08:31:08.353Z</time></trkpt><trkpt lat="44.23647" lon="8.1141783"><ele>660.3333333333334</ele><time>2026-05-02T08:31:10.354Z</time></trkpt><trkpt lat="44.2364167" lon="8.1142517"><ele>659.6666666666667</ele><time>2026-05-02T08:31:12.352Z</time></trkpt><trkpt lat="44.2364083" lon="8.1143433"><ele>659.0</ele><time>2026-05-02T08:31:14.353Z</time></trkpt><trkpt lat="44.2364267" lon="8.11443"><ele>658.3333333333334</ele><time>2026-05-02T08:31:16.351Z</time></trkpt><trkpt lat="44.2364533" lon="8.1145667"><ele>657.6666666666666</ele><time>2026-05-02T08:31:18.35Z</time></trkpt><trkpt lat="44.2364617" lon="8.1146717"><ele>657.0</ele><time>2026-05-02T08:31:19.351Z</time></trkpt><trkpt lat="44.2364833" lon="8.1147967"><ele>654.6</ele><time>2026-05-02T08:31:20.357Z</time></trkpt><trkpt lat="44.23651" lon="8.1149267"><ele>652.2</ele><time>2026-05-02T08:31:21.353Z</time></trkpt><trkpt lat="44.2365367" lon="8.1150567"><ele>649.8</ele><time>2026-05-02T08:31:22.354Z</time></trkpt><trkpt lat="44.2365633" lon="8.11519"><ele>647.4</ele><time>2026-05-02T08:31:23.351Z</time></trkpt><trkpt lat="44.2365917" lon="8.11532"><ele>645.0</ele><time>2026-05-02T08:31:24.353Z</time></trkpt><trkpt lat="44.2366217" lon="8.1154483"><ele>645.0</ele><time>2026-05-02T08:31:25.35Z</time></trkpt><trkpt lat="44.2366517" lon="8.1155717"><ele>645.0</ele><time>2026-05-02T08:31:26.35Z</time></trkpt><trkpt lat="44.2366783" lon="8.11569"><ele>645.0</ele><time>2026-05-02T08:31:27.356Z</time></trkpt><trkpt lat="44.2367033" lon="8.1158"><ele>645.0</ele><time>2026-05-02T08:31:28.349Z</time></trkpt><trkpt lat="44.2367317" lon="8.1159033"><ele>645.0</ele><time>2026-05-02T08:31:29.357Z</time></trkpt><trkpt lat="44.2367583" lon="8.1159983"><ele>645.0</ele><time>2026-05-02T08:31:30.352Z</time></trkpt><trkpt lat="44.2367717" lon="8.116095"><ele>645.1666666666666</ele><time>2026-05-02T08:31:31.351Z</time></trkpt><trkpt lat="44.2367617" lon="8.1161883"><ele>645.3333333333334</ele><time>2026-05-02T08:31:32.351Z</time></trkpt><trkpt lat="44.2367367" lon="8.11627"><ele>645.5</ele><time>2026-05-02T08:31:33.351Z</time></trkpt><trkpt lat="44.236705" lon="8.1163467"><ele>645.6666666666667</ele><time>2026-05-02T08:31:34.353Z</time></trkpt><trkpt lat="44.2366283" lon="8.11647"><ele>645.8333333333334</ele><time>2026-05-02T08:31:36.352Z</time></trkpt><trkpt lat="44.23655" lon="8.1165533"><ele>646.0</ele><time>2026-05-02T08:31:38.356Z</time></trkpt><trkpt lat="44.2364967" lon="8.1166133"><ele>646.0</ele><time>2026-05-02T08:31:40.356Z</time></trkpt><trkpt lat="44.2364483" lon="8.1166833"><ele>646.0</ele><time>2026-05-02T08:31:43.353Z</time></trkpt><trkpt lat="44.2365567" lon="8.116695"><ele>646.0</ele><time>2026-05-02T08:35:02.35Z</time></trkpt><trkpt lat="44.2366417" lon="8.1167133"><ele>646.0</ele><time>2026-05-02T08:35:04.354Z</time></trkpt><trkpt lat="44.2367333" lon="8.116745"><ele>646.0</ele><time>2026-05-02T08:35:06.351Z</time></trkpt><trkpt lat="44.23681" lon="8.1167717"><ele>646.0</ele><time>2026-05-02T08:35:09.35Z</time></trkpt><trkpt lat="44.2368783" lon="8.1167317"><ele>646.0</ele><time>2026-05-02T08:35:15.353Z</time></trkpt><trkpt lat="44.2369233" lon="8.1166467"><ele>646.0</ele><time>2026-05-02T08:39:58.351Z</time></trkpt><trkpt lat="44.2369367" lon="8.1165417"><ele>646.0</ele><time>2026-05-02T08:40:01.351Z</time></trkpt><trkpt lat="44.2369517" lon="8.116405"><ele>646.0</ele><time>2026-05-02T08:40:04.351Z</time></trkpt><trkpt lat="44.2369717" lon="8.1162833"><ele>646.0</ele><time>2026-05-02T08:40:06.35Z</time></trkpt><trkpt lat="44.2369833" lon="8.116195"><ele>646.0</ele><time>2026-05-02T08:40:07.353Z</time></trkpt><trkpt lat="44.2369817" lon="8.1161067"><ele>645.5</ele><time>2026-05-02T08:40:08.351Z</time></trkpt><trkpt lat="44.23693" lon="8.115975"><ele>645.0</ele><time>2026-05-02T08:40:10.35Z</time></trkpt><trkpt lat="44.23685" lon="8.1159867"><ele>644.5</ele><time>2026-05-02T08:40:12.351Z</time></trkpt><trkpt lat="44.2368133" lon="8.1160583"><ele>644.0</ele><time>2026-05-02T08:40:13.353Z</time></trkpt><trkpt lat="44.23678" lon="8.1161483"><ele>643.5</ele><time>2026-05-02T08:40:14.35Z</time></trkpt><trkpt lat="44.23675" lon="8.1162317"><ele>643.0</ele><time>2026-05-02T08:40:15.352Z</time></trkpt><trkpt lat="44.23671" lon="8.1163133"><ele>643.0</ele><time>2026-05-02T08:40:16.349Z</time></trkpt><trkpt lat="44.23666" lon="8.1163867"><ele>643.0</ele><time>2026-05-02T08:40:17.351Z</time></trkpt><trkpt lat="44.236605" lon="8.1164617"><ele>643.0</ele><time>2026-05-02T08:40:18.35Z</time></trkpt><trkpt lat="44.2365433" lon="8.1165333"><ele>643.0</ele><time>2026-05-02T08:40:19.353Z</time></trkpt><trkpt lat="44.2364733" lon="8.1165983"><ele>643.0</ele><time>2026-05-02T08:40:20.354Z</time></trkpt><trkpt lat="44.2364" lon="8.11666"><ele>643.0</ele><time>2026-05-02T08:40:21.351Z</time></trkpt><trkpt lat="44.236325" lon="8.1167217"><ele>643.4</ele><time>2026-05-02T08:40:22.351Z</time></trkpt><trkpt lat="44.236245" lon="8.1167867"><ele>643.8</ele><time>2026-05-02T08:40:23.35Z</time></trkpt><trkpt lat="44.236165" lon="8.1168483"><ele>644.2</ele><time>2026-05-02T08:40:24.351Z</time></trkpt><trkpt lat="44.236085" lon="8.11691"><ele>644.6</ele><time>2026-05-02T08:40:25.353Z</time></trkpt><trkpt lat="44.2360017" lon="8.11698"><ele>645.0</ele><time>2026-05-02T08:40:26.351Z</time></trkpt><trkpt lat="44.2359183" lon="8.117055"><ele>645.0</ele><time>2026-05-02T08:40:27.351Z</time></trkpt><trkpt lat="44.2358333" lon="8.1171267"><ele>645.0</ele><time>2026-05-02T08:40:28.35Z</time></trkpt><trkpt lat="44.2357433" lon="8.1172017"><ele>645.0</ele><time>2026-05-02T08:40:29.351Z</time></trkpt><trkpt lat="44.23565" lon="8.117275"><ele>645.0</ele><time>2026-05-02T08:40:30.356Z</time></trkpt><trkpt lat="44.2355583" lon="8.11735"><ele>645.0</ele><time>2026-05-02T08:40:31.351Z</time></trkpt><trkpt lat="44.2354667" lon="8.1174317"><ele>645.4</ele><time>2026-05-02T08:40:32.351Z</time></trkpt><trkpt lat="44.2353683" lon="8.1175117"><ele>645.8</ele><time>2026-05-02T08:40:33.352Z</time></trkpt><trkpt lat="44.2352717" lon="8.1175917"><ele>646.2</ele><time>2026-05-02T08:40:34.352Z</time></trkpt><trkpt lat="44.2351733" lon="8.1176617"><ele>646.6</ele><time>2026-05-02T08:40:35.349Z</time></trkpt><trkpt lat="44.23507" lon="8.1177117"><ele>647.0</ele><time>2026-05-02T08:40:36.35Z</time></trkpt><trkpt lat="44.2349583" lon="8.11774"><ele>647.0</ele><time>2026-05-02T08:40:37.352Z</time></trkpt><trkpt lat="44.2348567" lon="8.117745"><ele>647.0</ele><time>2026-05-02T08:40:38.352Z</time></trkpt><trkpt lat="44.2347617" lon="8.117725"><ele>647.0</ele><time>2026-05-02T08:40:39.351Z</time></trkpt><trkpt lat="44.2346733" lon="8.1176917"><ele>647.0</ele><time>2026-05-02T08:40:40.352Z</time></trkpt><trkpt lat="44.2345867" lon="8.117655"><ele>647.0</ele><time>2026-05-02T08:40:41.35Z</time></trkpt><trkpt lat="44.2344933" lon="8.1176217"><ele>647.2</ele><time>2026-05-02T08:40:42.35Z</time></trkpt><trkpt lat="44.23439" lon="8.1176033"><ele>647.4000000000001</ele><time>2026-05-02T08:40:43.35Z</time></trkpt><trkpt lat="44.23429" lon="8.1175917"><ele>647.5999999999999</ele><time>2026-05-02T08:40:44.35Z</time></trkpt><trkpt lat="44.2341833" lon="8.1175883"><ele>647.8</ele><time>2026-05-02T08:40:45.351Z</time></trkpt><trkpt lat="44.23407" lon="8.1175917"><ele>648.0</ele><time>2026-05-02T08:40:46.351Z</time></trkpt><trkpt lat="44.23396" lon="8.1175917"><ele>648.2</ele><time>2026-05-02T08:40:47.356Z</time></trkpt><trkpt lat="44.233845" lon="8.1176017"><ele>648.4</ele><time>2026-05-02T08:40:48.354Z</time></trkpt><trkpt lat="44.2337383" lon="8.1176033"><ele>648.6</ele><time>2026-05-02T08:40:49.356Z</time></trkpt><trkpt lat="44.23363" lon="8.1176117"><ele>648.8000000000001</ele><time>2026-05-02T08:40:50.356Z</time></trkpt><trkpt lat="44.2335167" lon="8.1176183"><ele>649.0</ele><time>2026-05-02T08:40:51.354Z</time></trkpt><trkpt lat="44.2334033" lon="8.117635"><ele>649.0</ele><time>2026-05-02T08:40:52.362Z</time></trkpt><trkpt lat="44.23329" lon="8.1176617"><ele>649.0</ele><time>2026-05-02T08:40:53.355Z</time></trkpt><trkpt lat="44.23317" lon="8.1177"><ele>649.0</ele><time>2026-05-02T08:40:54.362Z</time></trkpt><trkpt lat="44.233045" lon="8.117745"><ele>649.0</ele><time>2026-05-02T08:40:55.353Z</time></trkpt><trkpt lat="44.232915" lon="8.117775"><ele>648.75</ele><time>2026-05-02T08:40:56.353Z</time></trkpt><trkpt lat="44.2327817" lon="8.117805"><ele>648.5</ele><time>2026-05-02T08:40:57.352Z</time></trkpt><trkpt lat="44.2326467" lon="8.117835"><ele>648.25</ele><time>2026-05-02T08:40:58.353Z</time></trkpt><trkpt lat="44.2325083" lon="8.117865"><ele>648.0</ele><time>2026-05-02T08:40:59.354Z</time></trkpt><trkpt lat="44.232365" lon="8.1178867"><ele>648.25</ele><time>2026-05-02T08:41:00.351Z</time></trkpt><trkpt lat="44.232215" lon="8.1179083"><ele>648.5</ele><time>2026-05-02T08:41:01.35Z</time></trkpt><trkpt lat="44.2320667" lon="8.117935"><ele>648.75</ele><time>2026-05-02T08:41:02.351Z</time></trkpt><trkpt lat="44.23192" lon="8.1179633"><ele>649.0</ele><time>2026-05-02T08:41:03.352Z</time></trkpt><trkpt lat="44.2317633" lon="8.1179917"><ele>649.0</ele><time>2026-05-02T08:41:04.355Z</time></trkpt><trkpt lat="44.2316017" lon="8.11802"><ele>649.0</ele><time>2026-05-02T08:41:05.354Z</time></trkpt><trkpt lat="44.23144" lon="8.1180483"><ele>649.0</ele><time>2026-05-02T08:41:06.353Z</time></trkpt><trkpt lat="44.2312767" lon="8.1180767"><ele>649.6666666666667</ele><time>2026-05-02T08:41:07.353Z</time></trkpt><trkpt lat="44.23111" lon="8.1181133"><ele>650.3333333333334</ele><time>2026-05-02T08:41:08.355Z</time></trkpt><trkpt lat="44.23095" lon="8.1181467"><ele>651.0</ele><time>2026-05-02T08:41:09.356Z</time></trkpt><trkpt lat="44.2307867" lon="8.118185"><ele>651.0</ele><time>2026-05-02T08:41:10.352Z</time></trkpt><trkpt lat="44.23062" lon="8.1182183"><ele>651.0</ele><time>2026-05-02T08:41:11.352Z</time></trkpt><trkpt lat="44.23045" lon="8.1182483"><ele>651.0</ele><time>2026-05-02T08:41:12.352Z</time></trkpt><trkpt lat="44.2302917" lon="8.118285"><ele>651.0</ele><time>2026-05-02T08:41:13.352Z</time></trkpt><trkpt lat="44.230135" lon="8.1183267"><ele>651.0</ele><time>2026-05-02T08:41:14.35Z</time></trkpt><trkpt lat="44.2299733" lon="8.1183667"><ele>651.0</ele><time>2026-05-02T08:41:15.353Z</time></trkpt><trkpt lat="44.2298117" lon="8.118405"><ele>651.6666666666666</ele><time>2026-05-02T08:41:16.353Z</time></trkpt><trkpt lat="44.2296517" lon="8.1183717"><ele>652.3333333333333</ele><time>2026-05-02T08:41:17.35Z</time></trkpt><trkpt lat="44.229485" lon="8.118305"><ele>653.0</ele><time>2026-05-02T08:41:18.352Z</time></trkpt><trkpt lat="44.2293117" lon="8.11826"><ele>653.0</ele><time>2026-05-02T08:41:19.355Z</time></trkpt><trkpt lat="44.2291267" lon="8.1182283"><ele>653.0</ele><time>2026-05-02T08:41:20.356Z</time></trkpt><trkpt lat="44.2289333" lon="8.1182067"><ele>653.0</ele><time>2026-05-02T08:41:21.353Z</time></trkpt><trkpt lat="44.2287283" lon="8.1181883"><ele>653.6666666666666</ele><time>2026-05-02T08:41:22.356Z</time></trkpt><trkpt lat="44.228515" lon="8.1181933"><ele>654.3333333333334</ele><time>2026-05-02T08:41:23.351Z</time></trkpt><trkpt lat="44.2283183" lon="8.1181883"><ele>655.0</ele><time>2026-05-02T08:41:24.355Z</time></trkpt><trkpt lat="44.2281217" lon="8.1181783"><ele>656.3333333333334</ele><time>2026-05-02T08:41:25.356Z</time></trkpt><trkpt lat="44.2279267" lon="8.1181667"><ele>657.6666666666666</ele><time>2026-05-02T08:41:26.356Z</time></trkpt><trkpt lat="44.2277333" lon="8.1181633"><ele>659.0</ele><time>2026-05-02T08:41:27.354Z</time></trkpt><trkpt lat="44.2275383" lon="8.118205"><ele>657.3333333333333</ele><time>2026-05-02T08:41:28.359Z</time></trkpt><trkpt lat="44.22736" lon="8.1183133"><ele>655.6666666666666</ele><time>2026-05-02T08:41:29.353Z</time></trkpt><trkpt lat="44.227195" lon="8.1184733"><ele>654.0</ele><time>2026-05-02T08:41:30.354Z</time></trkpt><trkpt lat="44.22704" lon="8.1186583"><ele>654.0</ele><time>2026-05-02T08:41:31.355Z</time></trkpt><trkpt lat="44.2268783" lon="8.1188433"><ele>654.0</ele><time>2026-05-02T08:41:32.35Z</time></trkpt><trkpt lat="44.2267067" lon="8.1190117"><ele>654.0</ele><time>2026-05-02T08:41:33.356Z</time></trkpt><trkpt lat="44.2265317" lon="8.1191733"><ele>653.6666666666666</ele><time>2026-05-02T08:41:34.35Z</time></trkpt><trkpt lat="44.2263533" lon="8.119345"><ele>653.3333333333333</ele><time>2026-05-02T08:41:35.354Z</time></trkpt><trkpt lat="44.2261867" lon="8.119525"><ele>653.0</ele><time>2026-05-02T08:41:36.351Z</time></trkpt><trkpt lat="44.2260417" lon="8.1197217"><ele>654.0</ele><time>2026-05-02T08:41:37.357Z</time></trkpt><trkpt lat="44.22592" lon="8.1199317"><ele>655.0</ele><time>2026-05-02T08:41:38.35Z</time></trkpt><trkpt lat="44.22581" lon="8.1201317"><ele>656.0</ele><time>2026-05-02T08:41:39.355Z</time></trkpt><trkpt lat="44.2256833" lon="8.1202833"><ele>656.0</ele><time>2026-05-02T08:41:40.352Z</time></trkpt><trkpt lat="44.22554" lon="8.1203917"><ele>656.0</ele><time>2026-05-02T08:41:41.354Z</time></trkpt><trkpt lat="44.22537" lon="8.1204333"><ele>656.0</ele><time>2026-05-02T08:41:42.355Z</time></trkpt><trkpt lat="44.225185" lon="8.1204117"><ele>656.0</ele><time>2026-05-02T08:41:43.353Z</time></trkpt><trkpt lat="44.22501" lon="8.120335"><ele>656.0</ele><time>2026-05-02T08:41:44.352Z</time></trkpt><trkpt lat="44.22484" lon="8.12022"><ele>656.0</ele><time>2026-05-02T08:41:45.355Z</time></trkpt><trkpt lat="44.2246833" lon="8.1200867"><ele>656.6666666666666</ele><time>2026-05-02T08:41:46.351Z</time></trkpt><trkpt lat="44.2245217" lon="8.1199583"><ele>657.3333333333334</ele><time>2026-05-02T08:41:47.358Z</time></trkpt><trkpt lat="44.224355" lon="8.11984"><ele>658.0</ele><time>2026-05-02T08:41:48.353Z</time></trkpt><trkpt lat="44.2241817" lon="8.1197167"><ele>658.0</ele><time>2026-05-02T08:41:49.356Z</time></trkpt><trkpt lat="44.2240017" lon="8.11959"><ele>658.0</ele><time>2026-05-02T08:41:50.357Z</time></trkpt><trkpt lat="44.2238117" lon="8.1194667"><ele>658.0</ele><time>2026-05-02T08:41:51.351Z</time></trkpt><trkpt lat="44.2236133" lon="8.119345"><ele>658.6666666666667</ele><time>2026-05-02T08:41:52.352Z</time></trkpt><trkpt lat="44.2234167" lon="8.1192183"><ele>659.3333333333334</ele><time>2026-05-02T08:41:53.349Z</time></trkpt><trkpt lat="44.2232233" lon="8.1190933"><ele>660.0</ele><time>2026-05-02T08:41:54.357Z</time></trkpt><trkpt lat="44.2230317" lon="8.1189717"><ele>660.0</ele><time>2026-05-02T08:41:55.354Z</time></trkpt><trkpt lat="44.2228433" lon="8.1188483"><ele>660.0</ele><time>2026-05-02T08:41:56.353Z</time></trkpt><trkpt lat="44.2226533" lon="8.1187233"><ele>660.0</ele><time>2026-05-02T08:41:57.353Z</time></trkpt><trkpt lat="44.222465" lon="8.1186083"><ele>663.0</ele><time>2026-05-02T08:41:58.354Z</time></trkpt><trkpt lat="44.22228" lon="8.1184867"><ele>666.0</ele><time>2026-05-02T08:41:59.353Z</time></trkpt><trkpt lat="44.2220933" lon="8.11837"><ele>669.0</ele><time>2026-05-02T08:42:00.352Z</time></trkpt><trkpt lat="44.22191" lon="8.1182467"><ele>667.0</ele><time>2026-05-02T08:42:01.354Z</time></trkpt><trkpt lat="44.22173" lon="8.1181067"><ele>665.0</ele><time>2026-05-02T08:42:02.354Z</time></trkpt><trkpt lat="44.2215733" lon="8.11793"><ele>663.0</ele><time>2026-05-02T08:42:03.356Z</time></trkpt><trkpt lat="44.22144" lon="8.1177317"><ele>666.0</ele><time>2026-05-02T08:42:04.353Z</time></trkpt><trkpt lat="44.2213017" lon="8.1175283"><ele>669.0</ele><time>2026-05-02T08:42:05.355Z</time></trkpt><trkpt lat="44.221175" lon="8.1173067"><ele>672.0</ele><time>2026-05-02T08:42:06.354Z</time></trkpt><trkpt lat="44.2210683" lon="8.1170617"><ele>672.0</ele><time>2026-05-02T08:42:07.353Z</time></trkpt><trkpt lat="44.2209783" lon="8.11681"><ele>672.0</ele><time>2026-05-02T08:42:08.359Z</time></trkpt><trkpt lat="44.2208883" lon="8.11656"><ele>672.0</ele><time>2026-05-02T08:42:09.356Z</time></trkpt><trkpt lat="44.2207867" lon="8.11631"><ele>672.0</ele><time>2026-05-02T08:42:10.357Z</time></trkpt><trkpt lat="44.2206733" lon="8.1160767"><ele>672.0</ele><time>2026-05-02T08:42:11.35Z</time></trkpt><trkpt lat="44.220545" lon="8.1158567"><ele>672.0</ele><time>2026-05-02T08:42:12.354Z</time></trkpt><trkpt lat="44.2204133" lon="8.1156483"><ele>669.6666666666666</ele><time>2026-05-02T08:42:13.358Z</time></trkpt><trkpt lat="44.22027" lon="8.115455"><ele>667.3333333333333</ele><time>2026-05-02T08:42:14.351Z</time></trkpt><trkpt lat="44.2201267" lon="8.115275"><ele>665.0</ele><time>2026-05-02T08:42:15.356Z</time></trkpt><trkpt lat="44.2199883" lon="8.1151033"><ele>665.0</ele><time>2026-05-02T08:42:16.354Z</time></trkpt><trkpt lat="44.2198567" lon="8.1149467"><ele>665.0</ele><time>2026-05-02T08:42:17.351Z</time></trkpt><trkpt lat="44.2197217" lon="8.1148233"><ele>665.0</ele><time>2026-05-02T08:42:18.35Z</time></trkpt><trkpt lat="44.2195767" lon="8.1147567"><ele>665.6666666666666</ele><time>2026-05-02T08:42:19.351Z</time></trkpt><trkpt lat="44.2194217" lon="8.1147683"><ele>666.3333333333334</ele><time>2026-05-02T08:42:20.352Z</time></trkpt><trkpt lat="44.2192683" lon="8.1148467"><ele>667.0</ele><time>2026-05-02T08:42:21.356Z</time></trkpt><trkpt lat="44.21911" lon="8.1149683"><ele>666.6666666666667</ele><time>2026-05-02T08:42:22.354Z</time></trkpt><trkpt lat="44.2189533" lon="8.1150967"><ele>666.3333333333334</ele><time>2026-05-02T08:42:23.35Z</time></trkpt><trkpt lat="44.2187867" lon="8.1152183"><ele>666.0</ele><time>2026-05-02T08:42:24.358Z</time></trkpt><trkpt lat="44.2186133" lon="8.1153283"><ele>666.0</ele><time>2026-05-02T08:42:25.354Z</time></trkpt><trkpt lat="44.21843" lon="8.11544"><ele>666.0</ele><time>2026-05-02T08:42:26.354Z</time></trkpt><trkpt lat="44.218245" lon="8.115565"><ele>666.0</ele><time>2026-05-02T08:42:27.353Z</time></trkpt><trkpt lat="44.2180567" lon="8.1157017"><ele>667.6666666666666</ele><time>2026-05-02T08:42:28.352Z</time></trkpt><trkpt lat="44.2178683" lon="8.11583"><ele>669.3333333333333</ele><time>2026-05-02T08:42:29.352Z</time></trkpt><trkpt lat="44.2176883" lon="8.1159533"><ele>671.0</ele><time>2026-05-02T08:42:30.355Z</time></trkpt><trkpt lat="44.217515" lon="8.1160733"><ele>671.0</ele><time>2026-05-02T08:42:31.355Z</time></trkpt><trkpt lat="44.2173517" lon="8.1161783"><ele>671.0</ele><time>2026-05-02T08:42:32.355Z</time></trkpt><trkpt lat="44.21719" lon="8.11626"><ele>671.0</ele><time>2026-05-02T08:42:33.35Z</time></trkpt><trkpt lat="44.2170333" lon="8.116305"><ele>671.0</ele><time>2026-05-02T08:42:34.351Z</time></trkpt><trkpt lat="44.2168767" lon="8.11631"><ele>671.0</ele><time>2026-05-02T08:42:35.357Z</time></trkpt><trkpt lat="44.2167283" lon="8.11629"><ele>671.0</ele><time>2026-05-02T08:42:36.353Z</time></trkpt><trkpt lat="44.2165867" lon="8.1162783"><ele>671.0</ele><time>2026-05-02T08:42:37.356Z</time></trkpt><trkpt lat="44.2164433" lon="8.1162567"><ele>671.0</ele><time>2026-05-02T08:42:38.352Z</time></trkpt><trkpt lat="44.2162933" lon="8.1162283"><ele>671.0</ele><time>2026-05-02T08:42:39.354Z</time></trkpt><trkpt lat="44.2161317" lon="8.1161983"><ele>671.0</ele><time>2026-05-02T08:42:40.359Z</time></trkpt><trkpt lat="44.2159467" lon="8.1161583"><ele>671.0</ele><time>2026-05-02T08:42:41.352Z</time></trkpt><trkpt lat="44.2157533" lon="8.1160967"><ele>671.0</ele><time>2026-05-02T08:42:42.353Z</time></trkpt><trkpt lat="44.2155717" lon="8.1160383"><ele>671.0</ele><time>2026-05-02T08:42:43.358Z</time></trkpt><trkpt lat="44.2153967" lon="8.1159933"><ele>671.0</ele><time>2026-05-02T08:42:44.356Z</time></trkpt><trkpt lat="44.2152333" lon="8.1160033"><ele>671.0</ele><time>2026-05-02T08:42:45.356Z</time></trkpt><trkpt lat="44.2150817" lon="8.1160317"><ele>671.0</ele><time>2026-05-02T08:42:46.355Z</time></trkpt><trkpt lat="44.214945" lon="8.116065"><ele>673.25</ele><time>2026-05-02T08:42:47.352Z</time></trkpt><trkpt lat="44.2148167" lon="8.116085"><ele>675.5</ele><time>2026-05-02T08:42:48.356Z</time></trkpt><trkpt lat="44.2146933" lon="8.116095"><ele>677.75</ele><time>2026-05-02T08:42:49.355Z</time></trkpt><trkpt lat="44.2145667" lon="8.1160733"><ele>680.0</ele><time>2026-05-02T08:42:50.353Z</time></trkpt><trkpt lat="44.2144417" lon="8.1160217"><ele>680.0</ele><time>2026-05-02T08:42:51.357Z</time></trkpt><trkpt lat="44.2143117" lon="8.1159433"><ele>680.0</ele><time>2026-05-02T08:42:52.351Z</time></trkpt><trkpt lat="44.2141733" lon="8.1158283"><ele>680.0</ele><time>2026-05-02T08:42:53.354Z</time></trkpt><trkpt lat="44.2140317" lon="8.1156767"><ele>678.6666666666666</ele><time>2026-05-02T08:42:54.354Z</time></trkpt><trkpt lat="44.2138817" lon="8.1155017"><ele>677.3333333333334</ele><time>2026-05-02T08:42:55.359Z</time></trkpt><trkpt lat="44.2137283" lon="8.11531"><ele>676.0</ele><time>2026-05-02T08:42:56.352Z</time></trkpt><trkpt lat="44.21358" lon="8.1151317"><ele>676.0</ele><time>2026-05-02T08:42:57.356Z</time></trkpt><trkpt lat="44.2134333" lon="8.1149633"><ele>676.0</ele><time>2026-05-02T08:42:58.354Z</time></trkpt><trkpt lat="44.2132817" lon="8.1148117"><ele>676.0</ele><time>2026-05-02T08:42:59.351Z</time></trkpt><trkpt lat="44.2131267" lon="8.114665"><ele>675.0</ele><time>2026-05-02T08:43:00.353Z</time></trkpt><trkpt lat="44.2129633" lon="8.1145267"><ele>674.0</ele><time>2026-05-02T08:43:01.351Z</time></trkpt><trkpt lat="44.2127933" lon="8.1144067"><ele>673.0</ele><time>2026-05-02T08:43:02.351Z</time></trkpt><trkpt lat="44.2126183" lon="8.1143067"><ele>673.0</ele><time>2026-05-02T08:43:03.351Z</time></trkpt><trkpt lat="44.2124383" lon="8.1142133"><ele>673.0</ele><time>2026-05-02T08:43:04.357Z</time></trkpt><trkpt lat="44.212255" lon="8.114115"><ele>673.0</ele><time>2026-05-02T08:43:05.353Z</time></trkpt><trkpt lat="44.21207" lon="8.1140167"><ele>673.0</ele><time>2026-05-02T08:43:06.353Z</time></trkpt><trkpt lat="44.2118867" lon="8.1139183"><ele>673.0</ele><time>2026-05-02T08:43:07.354Z</time></trkpt><trkpt lat="44.211705" lon="8.11383"><ele>673.0</ele><time>2026-05-02T08:43:08.351Z</time></trkpt><trkpt lat="44.2115217" lon="8.1137567"><ele>674.0</ele><time>2026-05-02T08:43:09.355Z</time></trkpt><trkpt lat="44.2113367" lon="8.1136967"><ele>675.0</ele><time>2026-05-02T08:43:10.353Z</time></trkpt><trkpt lat="44.2111517" lon="8.1136367"><ele>676.0</ele><time>2026-05-02T08:43:11.352Z</time></trkpt><trkpt lat="44.2109667" lon="8.113575"><ele>676.0</ele><time>2026-05-02T08:43:12.356Z</time></trkpt><trkpt lat="44.21078" lon="8.1135183"><ele>676.0</ele><time>2026-05-02T08:43:13.352Z</time></trkpt><trkpt lat="44.2105933" lon="8.113465"><ele>676.0</ele><time>2026-05-02T08:43:14.352Z</time></trkpt><trkpt lat="44.210405" lon="8.1134233"><ele>677.0</ele><time>2026-05-02T08:43:15.356Z</time></trkpt><trkpt lat="44.2102067" lon="8.1133983"><ele>678.0</ele><time>2026-05-02T08:43:16.354Z</time></trkpt><trkpt lat="44.21001" lon="8.1133717"><ele>679.0</ele><time>2026-05-02T08:43:17.355Z</time></trkpt><trkpt lat="44.2098133" lon="8.1133417"><ele>679.0</ele><time>2026-05-02T08:43:18.353Z</time></trkpt><trkpt lat="44.2096167" lon="8.11331"><ele>679.0</ele><time>2026-05-02T08:43:19.354Z</time></trkpt><trkpt lat="44.2094233" lon="8.113285"><ele>679.0</ele><time>2026-05-02T08:43:20.352Z</time></trkpt><trkpt lat="44.20923" lon="8.11326"><ele>678.3333333333334</ele><time>2026-05-02T08:43:21.353Z</time></trkpt><trkpt lat="44.20904" lon="8.1132383"><ele>677.6666666666666</ele><time>2026-05-02T08:43:22.353Z</time></trkpt><trkpt lat="44.20885" lon="8.113235"><ele>677.0</ele><time>2026-05-02T08:43:23.352Z</time></trkpt><trkpt lat="44.20867" lon="8.1132583"><ele>677.0</ele><time>2026-05-02T08:43:24.351Z</time></trkpt><trkpt lat="44.2084917" lon="8.1133333"><ele>677.0</ele><time>2026-05-02T08:43:25.35Z</time></trkpt><trkpt lat="44.2083217" lon="8.1134567"><ele>677.0</ele><time>2026-05-02T08:43:26.358Z</time></trkpt><trkpt lat="44.2081583" lon="8.113605"><ele>676.3333333333333</ele><time>2026-05-02T08:43:27.352Z</time></trkpt><trkpt lat="44.2079933" lon="8.11375"><ele>675.6666666666666</ele><time>2026-05-02T08:43:28.354Z</time></trkpt><trkpt lat="44.2078283" lon="8.1138833"><ele>675.0</ele><time>2026-05-02T08:43:29.357Z</time></trkpt><trkpt lat="44.20766" lon="8.11401"><ele>677.3333333333334</ele><time>2026-05-02T08:43:30.356Z</time></trkpt><trkpt lat="44.2074917" lon="8.114125"><ele>679.6666666666667</ele><time>2026-05-02T08:43:31.354Z</time></trkpt><trkpt lat="44.2073183" lon="8.1142133"><ele>682.0</ele><time>2026-05-02T08:43:32.353Z</time></trkpt><trkpt lat="44.2071417" lon="8.1142467"><ele>682.0</ele><time>2026-05-02T08:43:33.356Z</time></trkpt><trkpt lat="44.2069633" lon="8.114235"><ele>682.0</ele><time>2026-05-02T08:43:34.355Z</time></trkpt><trkpt lat="44.2067883" lon="8.1142117"><ele>682.0</ele><time>2026-05-02T08:43:35.355Z</time></trkpt><trkpt lat="44.20662" lon="8.1142217"><ele>680.3333333333334</ele><time>2026-05-02T08:43:36.355Z</time></trkpt><trkpt lat="44.206445" lon="8.1142617"><ele>678.6666666666666</ele><time>2026-05-02T08:43:37.356Z</time></trkpt><trkpt lat="44.20626" lon="8.1143183"><ele>677.0</ele><time>2026-05-02T08:43:38.352Z</time></trkpt><trkpt lat="44.206065" lon="8.1143817"><ele>677.0</ele><time>2026-05-02T08:43:39.359Z</time></trkpt><trkpt lat="44.2058617" lon="8.1144433"><ele>677.0</ele><time>2026-05-02T08:43:40.354Z</time></trkpt><trkpt lat="44.2056567" lon="8.1145067"><ele>677.0</ele><time>2026-05-02T08:43:41.353Z</time></trkpt><trkpt lat="44.2054533" lon="8.114565"><ele>677.0</ele><time>2026-05-02T08:43:42.35Z</time></trkpt><trkpt lat="44.2052433" lon="8.1146283"><ele>677.0</ele><time>2026-05-02T08:43:43.349Z</time></trkpt><trkpt lat="44.2050317" lon="8.1147033"><ele>677.0</ele><time>2026-05-02T08:43:44.352Z</time></trkpt><trkpt lat="44.204825" lon="8.1147933"><ele>676.3333333333333</ele><time>2026-05-02T08:43:45.35Z</time></trkpt><trkpt lat="44.204625" lon="8.1148933"><ele>675.6666666666666</ele><time>2026-05-02T08:43:46.356Z</time></trkpt><trkpt lat="44.2044333" lon="8.114995"><ele>675.0</ele><time>2026-05-02T08:43:47.35Z</time></trkpt><trkpt lat="44.204255" lon="8.11509"><ele>676.3333333333334</ele><time>2026-05-02T08:43:48.355Z</time></trkpt><trkpt lat="44.2040917" lon="8.115175"><ele>677.6666666666667</ele><time>2026-05-02T08:43:49.351Z</time></trkpt><trkpt lat="44.203945" lon="8.1152483"><ele>679.0</ele><time>2026-05-02T08:43:50.355Z</time></trkpt><trkpt lat="44.203825" lon="8.1153033"><ele>679.0</ele><time>2026-05-02T08:43:51.355Z</time></trkpt><trkpt lat="44.203735" lon="8.1153383"><ele>679.0</ele><time>2026-05-02T08:43:52.352Z</time></trkpt><trkpt lat="44.2036733" lon="8.11536"><ele>679.0</ele><time>2026-05-02T08:43:53.353Z</time></trkpt><trkpt lat="44.203605" lon="8.1153667"><ele>679.0</ele><time>2026-05-02T08:43:55.353Z</time></trkpt><trkpt lat="44.2035633" lon="8.1152267"><ele>679.0</ele><time>2026-05-02T08:43:59.35Z</time></trkpt><trkpt lat="44.203525" lon="8.1151517"><ele>679.0</ele><time>2026-05-02T08:44:00.35Z</time></trkpt><trkpt lat="44.20347" lon="8.1150683"><ele>679.0</ele><time>2026-05-02T08:44:01.351Z</time></trkpt><trkpt lat="44.2033867" lon="8.1149883"><ele>679.0</ele><time>2026-05-02T08:44:02.35Z</time></trkpt><trkpt lat="44.203295" lon="8.1149233"><ele>679.0</ele><time>2026-05-02T08:44:03.352Z</time></trkpt><trkpt lat="44.2032083" lon="8.1148817"><ele>679.0</ele><time>2026-05-02T08:44:04.354Z</time></trkpt><trkpt lat="44.20313" lon="8.1148667"><ele>679.0</ele><time>2026-05-02T08:44:05.351Z</time></trkpt><trkpt lat="44.203045" lon="8.1149067"><ele>679.5</ele><time>2026-05-02T08:44:07.352Z</time></trkpt><trkpt lat="44.202965" lon="8.1149517"><ele>680.0</ele><time>2026-05-02T08:44:22.353Z</time></trkpt><trkpt lat="44.20285" lon="8.1149417"><ele>680.5</ele><time>2026-05-02T08:44:24.353Z</time></trkpt><trkpt lat="44.20278" lon="8.1149283"><ele>681.0</ele><time>2026-05-02T08:44:25.352Z</time></trkpt><trkpt lat="44.202705" lon="8.11491"><ele>681.5</ele><time>2026-05-02T08:44:26.354Z</time></trkpt><trkpt lat="44.2026267" lon="8.114885"><ele>682.0</ele><time>2026-05-02T08:44:27.353Z</time></trkpt><trkpt lat="44.2025483" lon="8.11485"><ele>683.5</ele><time>2026-05-02T08:44:28.35Z</time></trkpt><trkpt lat="44.2024733" lon="8.1148083"><ele>685.0</ele><time>2026-05-02T08:44:29.353Z</time></trkpt><trkpt lat="44.2023983" lon="8.1147517"><ele>686.5</ele><time>2026-05-02T08:44:30.35Z</time></trkpt><trkpt lat="44.2023217" lon="8.1146933"><ele>688.0</ele><time>2026-05-02T08:44:31.355Z</time></trkpt><trkpt lat="44.2022417" lon="8.1146383"><ele>689.5</ele><time>2026-05-02T08:44:32.35Z</time></trkpt><trkpt lat="44.20217" lon="8.1145867"><ele>691.0</ele><time>2026-05-02T08:44:33.35Z</time></trkpt><trkpt lat="44.2021033" lon="8.11453"><ele>692.6666666666667</ele><time>2026-05-02T08:44:34.352Z</time></trkpt><trkpt lat="44.20204" lon="8.1144767"><ele>694.3333333333334</ele><time>2026-05-02T08:44:35.352Z</time></trkpt><trkpt lat="44.2019467" lon="8.114415"><ele>696.0</ele><time>2026-05-02T08:44:37.35Z</time></trkpt><trkpt lat="44.2018733" lon="8.1144333"><ele>697.6666666666666</ele><time>2026-05-02T08:44:39.353Z</time></trkpt><trkpt lat="44.2018217" lon="8.1145467"><ele>699.3333333333333</ele><time>2026-05-02T08:44:41.35Z</time></trkpt><trkpt lat="44.2017883" lon="8.11464"><ele>701.0</ele><time>2026-05-02T08:44:42.358Z</time></trkpt><trkpt lat="44.201755" lon="8.1147367"><ele>701.0</ele><time>2026-05-02T08:44:43.352Z</time></trkpt><trkpt lat="44.20173" lon="8.1148333"><ele>701.0</ele><time>2026-05-02T08:44:44.355Z</time></trkpt><trkpt lat="44.201715" lon="8.1149317"><ele>701.0</ele><time>2026-05-02T08:44:45.351Z</time></trkpt><trkpt lat="44.201715" lon="8.1150367"><ele>701.0</ele><time>2026-05-02T08:44:46.353Z</time></trkpt><trkpt lat="44.2017283" lon="8.1151417"><ele>701.0</ele><time>2026-05-02T08:44:47.351Z</time></trkpt><trkpt lat="44.2017367" lon="8.1152567"><ele>701.0</ele><time>2026-05-02T08:44:48.352Z</time></trkpt><trkpt lat="44.20175" lon="8.115375"><ele>699.4</ele><time>2026-05-02T08:44:49.353Z</time></trkpt><trkpt lat="44.2017667" lon="8.115505"><ele>697.8</ele><time>2026-05-02T08:44:50.356Z</time></trkpt><trkpt lat="44.2017833" lon="8.11564"><ele>696.1999999999999</ele><time>2026-05-02T08:44:51.355Z</time></trkpt><trkpt lat="44.2017933" lon="8.1157767"><ele>694.5999999999999</ele><time>2026-05-02T08:44:52.354Z</time></trkpt><trkpt lat="44.2018017" lon="8.1159017"><ele>693.0</ele><time>2026-05-02T08:44:53.355Z</time></trkpt><trkpt lat="44.2018033" lon="8.1160067"><ele>691.6666666666666</ele><time>2026-05-02T08:44:54.352Z</time></trkpt><trkpt lat="44.2017933" lon="8.1161033"><ele>690.3333333333334</ele><time>2026-05-02T08:44:55.358Z</time></trkpt><trkpt lat="44.20177" lon="8.1161933"><ele>689.0</ele><time>2026-05-02T08:44:56.35Z</time></trkpt><trkpt lat="44.2017367" lon="8.1162867"><ele>687.6666666666667</ele><time>2026-05-02T08:44:57.352Z</time></trkpt><trkpt lat="44.2016967" lon="8.1163833"><ele>686.3333333333334</ele><time>2026-05-02T08:44:58.354Z</time></trkpt><trkpt lat="44.2016583" lon="8.11648"><ele>685.0</ele><time>2026-05-02T08:44:59.355Z</time></trkpt><trkpt lat="44.2016133" lon="8.1165767"><ele>685.0</ele><time>2026-05-02T08:45:00.354Z</time></trkpt><trkpt lat="44.201565" lon="8.1166633"><ele>685.0</ele><time>2026-05-02T08:45:01.357Z</time></trkpt><trkpt lat="44.201515" lon="8.116745"><ele>685.0</ele><time>2026-05-02T08:45:02.355Z</time></trkpt><trkpt lat="44.2014567" lon="8.1168317"><ele>685.0</ele><time>2026-05-02T08:45:03.353Z</time></trkpt><trkpt lat="44.2013933" lon="8.1169233"><ele>685.0</ele><time>2026-05-02T08:45:04.35Z</time></trkpt><trkpt lat="44.2013267" lon="8.11702"><ele>685.0</ele><time>2026-05-02T08:45:05.355Z</time></trkpt><trkpt lat="44.2012567" lon="8.1171083"><ele>686.0</ele><time>2026-05-02T08:45:06.351Z</time></trkpt><trkpt lat="44.2011833" lon="8.1171883"><ele>687.0</ele><time>2026-05-02T08:45:07.349Z</time></trkpt><trkpt lat="44.20112" lon="8.11726"><ele>688.0</ele><time>2026-05-02T08:45:08.356Z</time></trkpt><trkpt lat="44.2010667" lon="8.1173283"><ele>689.0</ele><time>2026-05-02T08:45:09.36Z</time></trkpt><trkpt lat="44.2010167" lon="8.11747"><ele>690.0</ele><time>2026-05-02T08:45:11.352Z</time></trkpt><trkpt lat="44.2009633" lon="8.1175933"><ele>690.0</ele><time>2026-05-02T08:45:13.35Z</time></trkpt><trkpt lat="44.2009067" lon="8.1176517"><ele>690.0</ele><time>2026-05-02T08:45:14.35Z</time></trkpt><trkpt lat="44.200835" lon="8.1177117"><ele>690.0</ele><time>2026-05-02T08:45:15.353Z</time></trkpt><trkpt lat="44.2007567" lon="8.1177717"><ele>690.0</ele><time>2026-05-02T08:45:16.354Z</time></trkpt><trkpt lat="44.200685" lon="8.11785"><ele>690.0</ele><time>2026-05-02T08:45:17.357Z</time></trkpt><trkpt lat="44.2006283" lon="8.1179517"><ele>690.0</ele><time>2026-05-02T08:45:18.359Z</time></trkpt><trkpt lat="44.2005933" lon="8.1180717"><ele>690.2</ele><time>2026-05-02T08:45:19.355Z</time></trkpt><trkpt lat="44.2005583" lon="8.1182033"><ele>690.4</ele><time>2026-05-02T08:45:20.354Z</time></trkpt><trkpt lat="44.200515" lon="8.1183333"><ele>690.5999999999999</ele><time>2026-05-02T08:45:21.352Z</time></trkpt><trkpt lat="44.200465" lon="8.1184633"><ele>690.8</ele><time>2026-05-02T08:45:22.352Z</time></trkpt><trkpt lat="44.2004117" lon="8.1185917"><ele>691.0</ele><time>2026-05-02T08:45:23.354Z</time></trkpt><trkpt lat="44.2003517" lon="8.11871"><ele>691.0</ele><time>2026-05-02T08:45:24.349Z</time></trkpt><trkpt lat="44.2002917" lon="8.11881"><ele>691.0</ele><time>2026-05-02T08:45:25.351Z</time></trkpt><trkpt lat="44.2002317" lon="8.1189033"><ele>691.0</ele><time>2026-05-02T08:45:26.352Z</time></trkpt><trkpt lat="44.200175" lon="8.1189967"><ele>691.0</ele><time>2026-05-02T08:45:27.354Z</time></trkpt><trkpt lat="44.2001217" lon="8.119085"><ele>691.0</ele><time>2026-05-02T08:45:28.35Z</time></trkpt><trkpt lat="44.2000683" lon="8.119175"><ele>691.0</ele><time>2026-05-02T08:45:29.356Z</time></trkpt><trkpt lat="44.2000183" lon="8.11926"><ele>690.3333333333334</ele><time>2026-05-02T08:45:30.352Z</time></trkpt><trkpt lat="44.1999617" lon="8.1193367"><ele>689.6666666666667</ele><time>2026-05-02T08:45:31.352Z</time></trkpt><trkpt lat="44.199905" lon="8.11941"><ele>689.0</ele><time>2026-05-02T08:45:32.355Z</time></trkpt><trkpt lat="44.1998467" lon="8.1194867"><ele>688.3333333333334</ele><time>2026-05-02T08:45:33.353Z</time></trkpt><trkpt lat="44.1997917" lon="8.1195533"><ele>687.6666666666666</ele><time>2026-05-02T08:45:34.357Z</time></trkpt><trkpt lat="44.1997283" lon="8.1196133"><ele>687.0</ele><time>2026-05-02T08:45:35.354Z</time></trkpt><trkpt lat="44.1996533" lon="8.1196667"><ele>687.4000000000001</ele><time>2026-05-02T08:45:36.354Z</time></trkpt><trkpt lat="44.1995717" lon="8.1197167"><ele>687.8000000000001</ele><time>2026-05-02T08:45:37.353Z</time></trkpt><trkpt lat="44.1994733" lon="8.1197667"><ele>688.2</ele><time>2026-05-02T08:45:38.352Z</time></trkpt><trkpt lat="44.1993617" lon="8.1198133"><ele>688.6</ele><time>2026-05-02T08:45:39.355Z</time></trkpt><trkpt lat="44.1992517" lon="8.1198733"><ele>689.0</ele><time>2026-05-02T08:45:40.351Z</time></trkpt><trkpt lat="44.1991383" lon="8.1199433"><ele>689.0</ele><time>2026-05-02T08:45:41.35Z</time></trkpt><trkpt lat="44.1990333" lon="8.1200217"><ele>689.0</ele><time>2026-05-02T08:45:42.351Z</time></trkpt><trkpt lat="44.1989367" lon="8.1200983"><ele>689.0</ele><time>2026-05-02T08:45:43.352Z</time></trkpt><trkpt lat="44.1988467" lon="8.1201817"><ele>689.0</ele><time>2026-05-02T08:45:44.352Z</time></trkpt><trkpt lat="44.19876" lon="8.1202617"><ele>689.0</ele><time>2026-05-02T08:45:45.351Z</time></trkpt><trkpt lat="44.1986733" lon="8.1203417"><ele>689.0</ele><time>2026-05-02T08:45:46.353Z</time></trkpt><trkpt lat="44.19859" lon="8.1204267"><ele>689.0</ele><time>2026-05-02T08:45:47.351Z</time></trkpt><trkpt lat="44.19851" lon="8.12051"><ele>689.0</ele><time>2026-05-02T08:45:48.354Z</time></trkpt><trkpt lat="44.198425" lon="8.1205917"><ele>689.0</ele><time>2026-05-02T08:45:49.351Z</time></trkpt><trkpt lat="44.198335" lon="8.120665"><ele>689.0</ele><time>2026-05-02T08:45:50.351Z</time></trkpt><trkpt lat="44.1982467" lon="8.1207417"><ele>690.4000000000001</ele><time>2026-05-02T08:45:51.35Z</time></trkpt><trkpt lat="44.1981617" lon="8.1208167"><ele>691.8</ele><time>2026-05-02T08:45:52.354Z</time></trkpt><trkpt lat="44.1980683" lon="8.1208967"><ele>693.2</ele><time>2026-05-02T08:45:53.352Z</time></trkpt><trkpt lat="44.1979817" lon="8.1209667"><ele>694.5999999999999</ele><time>2026-05-02T08:45:54.351Z</time></trkpt><trkpt lat="44.1979" lon="8.1210467"><ele>696.0</ele><time>2026-05-02T08:45:55.352Z</time></trkpt><trkpt lat="44.1978167" lon="8.1211317"><ele>696.0</ele><time>2026-05-02T08:45:56.352Z</time></trkpt><trkpt lat="44.1977333" lon="8.12121"><ele>696.0</ele><time>2026-05-02T08:45:57.356Z</time></trkpt><trkpt lat="44.19765" lon="8.1212717"><ele>696.0</ele><time>2026-05-02T08:45:58.353Z</time></trkpt><trkpt lat="44.1975683" lon="8.1213233"><ele>696.0</ele><time>2026-05-02T08:45:59.354Z</time></trkpt><trkpt lat="44.197485" lon="8.1213733"><ele>696.0</ele><time>2026-05-02T08:46:00.358Z</time></trkpt><trkpt lat="44.1974033" lon="8.1214233"><ele>696.1999999999999</ele><time>2026-05-02T08:46:01.352Z</time></trkpt><trkpt lat="44.1973183" lon="8.121475"><ele>696.4</ele><time>2026-05-02T08:46:02.355Z</time></trkpt><trkpt lat="44.19723" lon="8.1215217"><ele>696.6</ele><time>2026-05-02T08:46:03.356Z</time></trkpt><trkpt lat="44.1971383" lon="8.12157"><ele>696.8</ele><time>2026-05-02T08:46:04.352Z</time></trkpt><trkpt lat="44.1970467" lon="8.1216167"><ele>697.0</ele><time>2026-05-02T08:46:05.352Z</time></trkpt><trkpt lat="44.1969533" lon="8.121665"><ele>697.0</ele><time>2026-05-02T08:46:06.352Z</time></trkpt><trkpt lat="44.19686" lon="8.12171"><ele>697.0</ele><time>2026-05-02T08:46:07.352Z</time></trkpt><trkpt lat="44.1967633" lon="8.1217467"><ele>697.0</ele><time>2026-05-02T08:46:08.353Z</time></trkpt><trkpt lat="44.1966617" lon="8.1217783"><ele>697.0</ele><time>2026-05-02T08:46:09.355Z</time></trkpt><trkpt lat="44.1965533" lon="8.121795"><ele>697.0</ele><time>2026-05-02T08:46:10.354Z</time></trkpt><trkpt lat="44.1964533" lon="8.1218167"><ele>697.4000000000001</ele><time>2026-05-02T08:46:11.352Z</time></trkpt><trkpt lat="44.1963533" lon="8.1218433"><ele>697.8000000000001</ele><time>2026-05-02T08:46:12.354Z</time></trkpt><trkpt lat="44.19625" lon="8.1218733"><ele>698.2</ele><time>2026-05-02T08:46:13.355Z</time></trkpt><trkpt lat="44.19614" lon="8.1219033"><ele>698.6</ele><time>2026-05-02T08:46:14.349Z</time></trkpt><trkpt lat="44.1960267" lon="8.1219333"><ele>699.0</ele><time>2026-05-02T08:46:15.353Z</time></trkpt><trkpt lat="44.1959083" lon="8.1219717"><ele>699.0</ele><time>2026-05-02T08:46:16.349Z</time></trkpt><trkpt lat="44.1957917" lon="8.12201"><ele>699.0</ele><time>2026-05-02T08:46:17.353Z</time></trkpt><trkpt lat="44.1956767" lon="8.1220467"><ele>699.0</ele><time>2026-05-02T08:46:18.352Z</time></trkpt><trkpt lat="44.1955667" lon="8.1220817"><ele>699.0</ele><time>2026-05-02T08:46:19.353Z</time></trkpt><trkpt lat="44.195465" lon="8.12212"><ele>699.6</ele><time>2026-05-02T08:46:20.353Z</time></trkpt><trkpt lat="44.1953717" lon="8.12216"><ele>700.2</ele><time>2026-05-02T08:46:21.353Z</time></trkpt><trkpt lat="44.195285" lon="8.1222017"><ele>700.8000000000001</ele><time>2026-05-02T08:46:22.352Z</time></trkpt><trkpt lat="44.195205" lon="8.1222383"><ele>701.4000000000001</ele><time>2026-05-02T08:46:23.355Z</time></trkpt><trkpt lat="44.1951367" lon="8.1222633"><ele>702.0</ele><time>2026-05-02T08:46:24.352Z</time></trkpt><trkpt lat="44.1950317" lon="8.12232"><ele>701.4000000000001</ele><time>2026-05-02T08:46:26.353Z</time></trkpt><trkpt lat="44.1949467" lon="8.1224383"><ele>700.8000000000001</ele><time>2026-05-02T08:46:28.351Z</time></trkpt><trkpt lat="44.1949" lon="8.122525"><ele>700.2</ele><time>2026-05-02T08:46:29.352Z</time></trkpt><trkpt lat="44.194845" lon="8.1226333"><ele>699.6</ele><time>2026-05-02T08:46:30.354Z</time></trkpt><trkpt lat="44.1947933" lon="8.122735"><ele>699.0</ele><time>2026-05-02T08:46:31.356Z</time></trkpt><trkpt lat="44.1947333" lon="8.1228417"><ele>699.0</ele><time>2026-05-02T08:46:32.349Z</time></trkpt><trkpt lat="44.1946683" lon="8.122945"><ele>699.0</ele><time>2026-05-02T08:46:33.351Z</time></trkpt><trkpt lat="44.1946" lon="8.1230467"><ele>699.0</ele><time>2026-05-02T08:46:34.35Z</time></trkpt><trkpt lat="44.1945317" lon="8.1231383"><ele>699.0</ele><time>2026-05-02T08:46:35.355Z</time></trkpt><trkpt lat="44.19445" lon="8.1232167"><ele>699.0</ele><time>2026-05-02T08:46:36.351Z</time></trkpt><trkpt lat="44.194355" lon="8.12329"><ele>698.0</ele><time>2026-05-02T08:46:37.352Z</time></trkpt><trkpt lat="44.1942533" lon="8.1233583"><ele>697.0</ele><time>2026-05-02T08:46:38.357Z</time></trkpt><trkpt lat="44.1941483" lon="8.1234283"><ele>696.0</ele><time>2026-05-02T08:46:39.353Z</time></trkpt><trkpt lat="44.1940467" lon="8.1234917"><ele>695.0</ele><time>2026-05-02T08:46:40.351Z</time></trkpt><trkpt lat="44.1939483" lon="8.12355"><ele>694.0</ele><time>2026-05-02T08:46:41.356Z</time></trkpt><trkpt lat="44.1938617" lon="8.12361"><ele>693.8000000000001</ele><time>2026-05-02T08:46:42.351Z</time></trkpt><trkpt lat="44.19379" lon="8.123675"><ele>693.6</ele><time>2026-05-02T08:46:43.353Z</time></trkpt><trkpt lat="44.1937083" lon="8.1237917"><ele>693.4</ele><time>2026-05-02T08:46:45.351Z</time></trkpt><trkpt lat="44.19369" lon="8.123895"><ele>693.2</ele><time>2026-05-02T08:46:47.35Z</time></trkpt><trkpt lat="44.19376" lon="8.1239983"><ele>693.0</ele><time>2026-05-02T08:46:49.355Z</time></trkpt><trkpt lat="44.193815" lon="8.1240717"><ele>692.8</ele><time>2026-05-02T08:46:50.357Z</time></trkpt><trkpt lat="44.1938783" lon="8.1241583"><ele>692.5999999999999</ele><time>2026-05-02T08:46:51.354Z</time></trkpt><trkpt lat="44.1939567" lon="8.124255"><ele>692.4000000000001</ele><time>2026-05-02T08:46:52.351Z</time></trkpt><trkpt lat="44.19405" lon="8.1243467"><ele>692.2</ele><time>2026-05-02T08:46:53.36Z</time></trkpt><trkpt lat="44.194155" lon="8.1244417"><ele>692.0</ele><time>2026-05-02T08:46:54.354Z</time></trkpt><trkpt lat="44.19427" lon="8.1245367"><ele>692.0</ele><time>2026-05-02T08:46:55.353Z</time></trkpt><trkpt lat="44.1943783" lon="8.124635"><ele>692.0</ele><time>2026-05-02T08:46:56.351Z</time></trkpt><trkpt lat="44.1944833" lon="8.1247283"><ele>692.0</ele><time>2026-05-02T08:46:57.355Z</time></trkpt><trkpt lat="44.1945917" lon="8.1248183"><ele>692.0</ele><time>2026-05-02T08:46:58.349Z</time></trkpt><trkpt lat="44.1947" lon="8.124905"><ele>692.0</ele><time>2026-05-02T08:46:59.35Z</time></trkpt><trkpt lat="44.1948117" lon="8.1249867"><ele>692.0</ele><time>2026-05-02T08:47:00.35Z</time></trkpt><trkpt lat="44.1949233" lon="8.1250683"><ele>692.0</ele><time>2026-05-02T08:47:01.352Z</time></trkpt><trkpt lat="44.1950217" lon="8.12513"><ele>692.0</ele><time>2026-05-02T08:47:02.351Z</time></trkpt><trkpt lat="44.19512" lon="8.1251917"><ele>692.0</ele><time>2026-05-02T08:47:03.351Z</time></trkpt><trkpt lat="44.1952183" lon="8.125245"><ele>692.0</ele><time>2026-05-02T08:47:04.349Z</time></trkpt><trkpt lat="44.1953133" lon="8.125295"><ele>692.0</ele><time>2026-05-02T08:47:05.35Z</time></trkpt><trkpt lat="44.1954083" lon="8.1253567"><ele>692.0</ele><time>2026-05-02T08:47:07.351Z</time></trkpt><trkpt lat="44.195435" lon="8.1254633"><ele>692.0</ele><time>2026-05-02T08:47:12.358Z</time></trkpt><trkpt lat="44.1954517" lon="8.12557"><ele>692.0</ele><time>2026-05-02T08:47:14.357Z</time></trkpt><trkpt lat="44.19544" lon="8.1256667"><ele>692.0</ele><time>2026-05-02T08:47:15.354Z</time></trkpt><trkpt lat="44.19541" lon="8.1257733"><ele>692.0</ele><time>2026-05-02T08:47:16.35Z</time></trkpt><trkpt lat="44.1953683" lon="8.1258817"><ele>692.0</ele><time>2026-05-02T08:47:17.349Z</time></trkpt><trkpt lat="44.195325" lon="8.125995"><ele>692.0</ele><time>2026-05-02T08:47:18.352Z</time></trkpt><trkpt lat="44.1952817" lon="8.1261117"><ele>692.0</ele><time>2026-05-02T08:47:19.352Z</time></trkpt><trkpt lat="44.19524" lon="8.1262333"><ele>692.0</ele><time>2026-05-02T08:47:20.352Z</time></trkpt><trkpt lat="44.1952" lon="8.1263533"><ele>692.0</ele><time>2026-05-02T08:47:21.352Z</time></trkpt><trkpt lat="44.1951517" lon="8.1264767"><ele>692.0</ele><time>2026-05-02T08:47:22.352Z</time></trkpt><trkpt lat="44.1951067" lon="8.1265917"><ele>692.0</ele><time>2026-05-02T08:47:23.354Z</time></trkpt><trkpt lat="44.195075" lon="8.1266933"><ele>692.0</ele><time>2026-05-02T08:47:24.354Z</time></trkpt><trkpt lat="44.195065" lon="8.126785"><ele>692.0</ele><time>2026-05-02T08:47:25.349Z</time></trkpt><trkpt lat="44.19509" lon="8.1269033"><ele>693.0</ele><time>2026-05-02T08:47:27.352Z</time></trkpt><trkpt lat="44.1950883" lon="8.1270017"><ele>694.0</ele><time>2026-05-02T08:47:30.354Z</time></trkpt><trkpt lat="44.1949917" lon="8.1270617"><ele>695.0</ele><time>2026-05-02T08:47:32.352Z</time></trkpt><trkpt lat="44.19491" lon="8.127085"><ele>696.0</ele><time>2026-05-02T08:47:33.357Z</time></trkpt><trkpt lat="44.19482" lon="8.1270917"><ele>697.0</ele><time>2026-05-02T08:47:34.353Z</time></trkpt><trkpt lat="44.194725" lon="8.1270833"><ele>698.0</ele><time>2026-05-02T08:47:35.351Z</time></trkpt><trkpt lat="44.1946217" lon="8.12707"><ele>699.5</ele><time>2026-05-02T08:47:36.355Z</time></trkpt><trkpt lat="44.194515" lon="8.1270467"><ele>701.0</ele><time>2026-05-02T08:47:37.352Z</time></trkpt><trkpt lat="44.1944" lon="8.127015"><ele>702.5</ele><time>2026-05-02T08:47:38.351Z</time></trkpt><trkpt lat="44.194285" lon="8.1269717"><ele>704.0</ele><time>2026-05-02T08:47:39.353Z</time></trkpt><trkpt lat="44.1941767" lon="8.1269217"><ele>704.0</ele><time>2026-05-02T08:47:40.353Z</time></trkpt><trkpt lat="44.194065" lon="8.12686"><ele>704.0</ele><time>2026-05-02T08:47:41.352Z</time></trkpt><trkpt lat="44.193945" lon="8.1267917"><ele>704.0</ele><time>2026-05-02T08:47:42.355Z</time></trkpt><trkpt lat="44.1938167" lon="8.12672"><ele>704.0</ele><time>2026-05-02T08:47:43.353Z</time></trkpt><trkpt lat="44.1936867" lon="8.126645"><ele>704.5</ele><time>2026-05-02T08:47:44.354Z</time></trkpt><trkpt lat="44.1935533" lon="8.12657"><ele>705.0</ele><time>2026-05-02T08:47:45.352Z</time></trkpt><trkpt lat="44.1934267" lon="8.1265067"><ele>705.5</ele><time>2026-05-02T08:47:46.353Z</time></trkpt><trkpt lat="44.1933017" lon="8.1264767"><ele>706.0</ele><time>2026-05-02T08:47:47.354Z</time></trkpt><trkpt lat="44.19318" lon="8.1264983"><ele>705.0</ele><time>2026-05-02T08:47:48.352Z</time></trkpt><trkpt lat="44.193065" lon="8.1265733"><ele>704.0</ele><time>2026-05-02T08:47:49.353Z</time></trkpt><trkpt lat="44.1929433" lon="8.1266717"><ele>703.0</ele><time>2026-05-02T08:47:50.353Z</time></trkpt><trkpt lat="44.192805" lon="8.126765"><ele>702.0</ele><time>2026-05-02T08:47:51.363Z</time></trkpt><trkpt lat="44.1926567" lon="8.12685"><ele>702.0</ele><time>2026-05-02T08:47:52.352Z</time></trkpt><trkpt lat="44.19251" lon="8.126935"><ele>702.0</ele><time>2026-05-02T08:47:53.354Z</time></trkpt><trkpt lat="44.1923617" lon="8.1270383"><ele>702.0</ele><time>2026-05-02T08:47:54.356Z</time></trkpt><trkpt lat="44.1922117" lon="8.12717"><ele>702.3333333333334</ele><time>2026-05-02T08:47:55.353Z</time></trkpt><trkpt lat="44.1920617" lon="8.1273133"><ele>702.6666666666667</ele><time>2026-05-02T08:47:56.354Z</time></trkpt><trkpt lat="44.1919083" lon="8.1274617"><ele>703.0</ele><time>2026-05-02T08:47:57.356Z</time></trkpt><trkpt lat="44.1917467" lon="8.1276183"><ele>703.0</ele><time>2026-05-02T08:47:58.359Z</time></trkpt><trkpt lat="44.19158" lon="8.12777"><ele>703.0</ele><time>2026-05-02T08:47:59.351Z</time></trkpt><trkpt lat="44.19141" lon="8.1279133"><ele>703.0</ele><time>2026-05-02T08:48:00.353Z</time></trkpt><trkpt lat="44.19124" lon="8.1280483"><ele>703.0</ele><time>2026-05-02T08:48:01.356Z</time></trkpt><trkpt lat="44.191075" lon="8.1281783"><ele>703.0</ele><time>2026-05-02T08:48:02.355Z</time></trkpt><trkpt lat="44.1909183" lon="8.1283033"><ele>703.0</ele><time>2026-05-02T08:48:03.355Z</time></trkpt><trkpt lat="44.190755" lon="8.12842"><ele>702.6666666666667</ele><time>2026-05-02T08:48:04.359Z</time></trkpt><trkpt lat="44.1905867" lon="8.12851"><ele>702.3333333333334</ele><time>2026-05-02T08:48:05.354Z</time></trkpt><trkpt lat="44.1904133" lon="8.12857"><ele>702.0</ele><time>2026-05-02T08:48:06.349Z</time></trkpt><trkpt lat="44.190235" lon="8.1286167"><ele>702.0</ele><time>2026-05-02T08:48:07.352Z</time></trkpt><trkpt lat="44.1900483" lon="8.1286583"><ele>702.0</ele><time>2026-05-02T08:48:08.35Z</time></trkpt><trkpt lat="44.1898533" lon="8.1287067"><ele>702.0</ele><time>2026-05-02T08:48:09.351Z</time></trkpt><trkpt lat="44.18965" lon="8.1287583"><ele>701.6666666666666</ele><time>2026-05-02T08:48:10.354Z</time></trkpt><trkpt lat="44.189445" lon="8.1288133"><ele>701.3333333333333</ele><time>2026-05-02T08:48:11.35Z</time></trkpt><trkpt lat="44.1892417" lon="8.128865"><ele>701.0</ele><time>2026-05-02T08:48:12.35Z</time></trkpt><trkpt lat="44.189045" lon="8.1289133"><ele>701.3333333333333</ele><time>2026-05-02T08:48:13.35Z</time></trkpt><trkpt lat="44.1888617" lon="8.12896"><ele>701.6666666666666</ele><time>2026-05-02T08:48:14.35Z</time></trkpt><trkpt lat="44.1886917" lon="8.1290083"><ele>702.0</ele><time>2026-05-02T08:48:15.355Z</time></trkpt><trkpt lat="44.188535" lon="8.1290533"><ele>702.2</ele><time>2026-05-02T08:48:16.358Z</time></trkpt><trkpt lat="44.1884" lon="8.1290917"><ele>702.4000000000001</ele><time>2026-05-02T08:48:17.353Z</time></trkpt><trkpt lat="44.1882883" lon="8.1291217"><ele>702.5999999999999</ele><time>2026-05-02T08:48:18.354Z</time></trkpt><trkpt lat="44.1881917" lon="8.1291267"><ele>702.8</ele><time>2026-05-02T08:48:19.351Z</time></trkpt><trkpt lat="44.1881083" lon="8.1290883"><ele>703.0</ele><time>2026-05-02T08:48:20.35Z</time></trkpt><trkpt lat="44.188035" lon="8.1290083"><ele>702.5</ele><time>2026-05-02T08:48:21.35Z</time></trkpt><trkpt lat="44.1879683" lon="8.128895"><ele>702.0</ele><time>2026-05-02T08:48:22.354Z</time></trkpt><trkpt lat="44.1879" lon="8.1287683"><ele>701.5</ele><time>2026-05-02T08:48:23.35Z</time></trkpt><trkpt lat="44.1878233" lon="8.1286383"><ele>701.0</ele><time>2026-05-02T08:48:24.351Z</time></trkpt><trkpt lat="44.1877433" lon="8.12852"><ele>701.0</ele><time>2026-05-02T08:48:25.35Z</time></trkpt><trkpt lat="44.1876733" lon="8.1283917"><ele>701.0</ele><time>2026-05-02T08:48:26.353Z</time></trkpt><trkpt lat="44.187615" lon="8.1282417"><ele>701.0</ele><time>2026-05-02T08:48:27.356Z</time></trkpt><trkpt lat="44.1875583" lon="8.1280767"><ele>701.0</ele><time>2026-05-02T08:48:28.351Z</time></trkpt><trkpt lat="44.1874983" lon="8.127905"><ele>700.75</ele><time>2026-05-02T08:48:29.352Z</time></trkpt><trkpt lat="44.187435" lon="8.1277333"><ele>700.5</ele><time>2026-05-02T08:48:30.353Z</time></trkpt><trkpt lat="44.1873717" lon="8.1275633"><ele>700.25</ele><time>2026-05-02T08:48:31.349Z</time></trkpt><trkpt lat="44.1873083" lon="8.1274033"><ele>700.0</ele><time>2026-05-02T08:48:32.353Z</time></trkpt><trkpt lat="44.1872383" lon="8.127255"><ele>702.5</ele><time>2026-05-02T08:48:33.35Z</time></trkpt><trkpt lat="44.18716" lon="8.12712"><ele>705.0</ele><time>2026-05-02T08:48:34.353Z</time></trkpt><trkpt lat="44.1870783" lon="8.126995"><ele>707.5</ele><time>2026-05-02T08:48:35.356Z</time></trkpt><trkpt lat="44.186995" lon="8.1268717"><ele>710.0</ele><time>2026-05-02T08:48:36.355Z</time></trkpt><trkpt lat="44.18692" lon="8.1267517"><ele>710.0</ele><time>2026-05-02T08:48:37.351Z</time></trkpt><trkpt lat="44.1868517" lon="8.12663"><ele>710.0</ele><time>2026-05-02T08:48:38.353Z</time></trkpt><trkpt lat="44.1867817" lon="8.1265183"><ele>710.0</ele><time>2026-05-02T08:48:39.355Z</time></trkpt><trkpt lat="44.186715" lon="8.1264033"><ele>710.0</ele><time>2026-05-02T08:48:40.353Z</time></trkpt><trkpt lat="44.1866533" lon="8.12628"><ele>710.0</ele><time>2026-05-02T08:48:41.35Z</time></trkpt><trkpt lat="44.1865967" lon="8.1261517"><ele>710.2</ele><time>2026-05-02T08:48:42.354Z</time></trkpt><trkpt lat="44.1865467" lon="8.1260117"><ele>710.4</ele><time>2026-05-02T08:48:43.354Z</time></trkpt><trkpt lat="44.1864983" lon="8.1258717"><ele>710.5999999999999</ele><time>2026-05-02T08:48:44.35Z</time></trkpt><trkpt lat="44.1864617" lon="8.125735"><ele>710.8</ele><time>2026-05-02T08:48:45.356Z</time></trkpt><trkpt lat="44.186435" lon="8.1255983"><ele>711.0</ele><time>2026-05-02T08:48:46.35Z</time></trkpt><trkpt lat="44.1864067" lon="8.125455"><ele>716.25</ele><time>2026-05-02T08:48:47.353Z</time></trkpt><trkpt lat="44.1863683" lon="8.12531"><ele>721.5</ele><time>2026-05-02T08:48:48.356Z</time></trkpt><trkpt lat="44.186315" lon="8.1251667"><ele>726.75</ele><time>2026-05-02T08:48:49.356Z</time></trkpt><trkpt lat="44.1862633" lon="8.1250267"><ele>732.0</ele><time>2026-05-02T08:48:50.354Z</time></trkpt><trkpt lat="44.1862033" lon="8.12489"><ele>732.0</ele><time>2026-05-02T08:48:51.357Z</time></trkpt><trkpt lat="44.1861367" lon="8.12475"><ele>732.0</ele><time>2026-05-02T08:48:52.358Z</time></trkpt><trkpt lat="44.186075" lon="8.1246067"><ele>732.0</ele><time>2026-05-02T08:48:53.358Z</time></trkpt><trkpt lat="44.186025" lon="8.124455"><ele>732.0</ele><time>2026-05-02T08:48:54.354Z</time></trkpt><trkpt lat="44.18599" lon="8.1242917"><ele>732.0</ele><time>2026-05-02T08:48:55.357Z</time></trkpt><trkpt lat="44.185965" lon="8.12413"><ele>732.0</ele><time>2026-05-02T08:48:56.353Z</time></trkpt><trkpt lat="44.1859417" lon="8.1239733"><ele>732.0</ele><time>2026-05-02T08:48:57.352Z</time></trkpt><trkpt lat="44.1859083" lon="8.1238167"><ele>732.0</ele><time>2026-05-02T08:48:58.357Z</time></trkpt><trkpt lat="44.185865" lon="8.12366"><ele>733.0</ele><time>2026-05-02T08:48:59.35Z</time></trkpt><trkpt lat="44.1858167" lon="8.1234983"><ele>734.0</ele><time>2026-05-02T08:49:00.353Z</time></trkpt><trkpt lat="44.18576" lon="8.1233467"><ele>735.0</ele><time>2026-05-02T08:49:01.351Z</time></trkpt><trkpt lat="44.1857133" lon="8.1232017"><ele>736.0</ele><time>2026-05-02T08:49:02.356Z</time></trkpt><trkpt lat="44.1856783" lon="8.1230733"><ele>736.0</ele><time>2026-05-02T08:49:03.352Z</time></trkpt><trkpt lat="44.18566" lon="8.1229617"><ele>736.0</ele><time>2026-05-02T08:49:04.351Z</time></trkpt><trkpt lat="44.1856567" lon="8.1228533"><ele>736.0</ele><time>2026-05-02T08:49:05.356Z</time></trkpt><trkpt lat="44.18566" lon="8.1227383"><ele>736.0</ele><time>2026-05-02T08:49:06.354Z</time></trkpt><trkpt lat="44.1856767" lon="8.12262"><ele>736.0</ele><time>2026-05-02T08:49:07.446Z</time></trkpt><trkpt lat="44.1856967" lon="8.1225033"><ele>736.0</ele><time>2026-05-02T08:49:08.355Z</time></trkpt><trkpt lat="44.18572" lon="8.1223967"><ele>734.5999999999999</ele><time>2026-05-02T08:49:09.355Z</time></trkpt><trkpt lat="44.1857317" lon="8.122285"><ele>733.2</ele><time>2026-05-02T08:49:10.354Z</time></trkpt><trkpt lat="44.1857333" lon="8.1221617"><ele>731.8</ele><time>2026-05-02T08:49:11.353Z</time></trkpt><trkpt lat="44.185725" lon="8.1220367"><ele>730.4000000000001</ele><time>2026-05-02T08:49:12.352Z</time></trkpt><trkpt lat="44.1856783" lon="8.1219033"><ele>729.0</ele><time>2026-05-02T08:49:13.351Z</time></trkpt><trkpt lat="44.1856067" lon="8.12179"><ele>728.0</ele><time>2026-05-02T08:49:14.354Z</time></trkpt><trkpt lat="44.185525" lon="8.12168"><ele>727.0</ele><time>2026-05-02T08:49:15.351Z</time></trkpt><trkpt lat="44.1854433" lon="8.12158"><ele>726.0</ele><time>2026-05-02T08:49:16.349Z</time></trkpt><trkpt lat="44.185375" lon="8.1214733"><ele>725.0</ele><time>2026-05-02T08:49:17.349Z</time></trkpt><trkpt lat="44.18532" lon="8.1213533"><ele>724.0</ele><time>2026-05-02T08:49:18.354Z</time></trkpt><trkpt lat="44.1852683" lon="8.1212267"><ele>726.4000000000001</ele><time>2026-05-02T08:49:19.358Z</time></trkpt><trkpt lat="44.1852167" lon="8.1211133"><ele>728.8</ele><time>2026-05-02T08:49:20.356Z</time></trkpt><trkpt lat="44.1851533" lon="8.1210117"><ele>731.2</ele><time>2026-05-02T08:49:21.352Z</time></trkpt><trkpt lat="44.185065" lon="8.1209283"><ele>733.5999999999999</ele><time>2026-05-02T08:49:22.35Z</time></trkpt><trkpt lat="44.18497" lon="8.1208483"><ele>736.0</ele><time>2026-05-02T08:49:23.353Z</time></trkpt><trkpt lat="44.184875" lon="8.1207717"><ele>738.4</ele><time>2026-05-02T08:49:24.355Z</time></trkpt><trkpt lat="44.1847733" lon="8.1207133"><ele>740.8</ele><time>2026-05-02T08:49:25.353Z</time></trkpt><trkpt lat="44.184665" lon="8.1206717"><ele>743.1999999999999</ele><time>2026-05-02T08:49:26.355Z</time></trkpt><trkpt lat="44.1845617" lon="8.1206433"><ele>745.5999999999999</ele><time>2026-05-02T08:49:27.356Z</time></trkpt><trkpt lat="44.1844667" lon="8.1206017"><ele>748.0</ele><time>2026-05-02T08:49:28.352Z</time></trkpt><trkpt lat="44.1843717" lon="8.1205467"><ele>748.0</ele><time>2026-05-02T08:49:29.357Z</time></trkpt><trkpt lat="44.184275" lon="8.1204883"><ele>748.0</ele><time>2026-05-02T08:49:30.355Z</time></trkpt><trkpt lat="44.1841783" lon="8.1204233"><ele>748.0</ele><time>2026-05-02T08:49:31.355Z</time></trkpt><trkpt lat="44.18408" lon="8.1203533"><ele>748.0</ele><time>2026-05-02T08:49:32.353Z</time></trkpt><trkpt lat="44.1839833" lon="8.1202783"><ele>748.0</ele><time>2026-05-02T08:49:33.351Z</time></trkpt><trkpt lat="44.1838833" lon="8.1202017"><ele>744.5</ele><time>2026-05-02T08:49:34.351Z</time></trkpt><trkpt lat="44.1837833" lon="8.1201267"><ele>741.0</ele><time>2026-05-02T08:49:35.356Z</time></trkpt><trkpt lat="44.183685" lon="8.1200483"><ele>737.5</ele><time>2026-05-02T08:49:36.355Z</time></trkpt><trkpt lat="44.1835833" lon="8.1199833"><ele>734.0</ele><time>2026-05-02T08:49:37.352Z</time></trkpt><trkpt lat="44.1834767" lon="8.1199217"><ele>737.0</ele><time>2026-05-02T08:49:38.353Z</time></trkpt><trkpt lat="44.1833733" lon="8.1198617"><ele>740.0</ele><time>2026-05-02T08:49:39.352Z</time></trkpt><trkpt lat="44.18327" lon="8.1198017"><ele>743.0</ele><time>2026-05-02T08:49:40.352Z</time></trkpt><trkpt lat="44.1831617" lon="8.11974"><ele>746.0</ele><time>2026-05-02T08:49:41.355Z</time></trkpt><trkpt lat="44.1830583" lon="8.11968"><ele>746.0</ele><time>2026-05-02T08:49:42.352Z</time></trkpt><trkpt lat="44.1829533" lon="8.1196183"><ele>746.0</ele><time>2026-05-02T08:49:43.353Z</time></trkpt><trkpt lat="44.1828467" lon="8.119545"><ele>746.0</ele><time>2026-05-02T08:49:44.353Z</time></trkpt><trkpt lat="44.1827333" lon="8.1194667"><ele>746.0</ele><time>2026-05-02T08:49:45.354Z</time></trkpt><trkpt lat="44.18262" lon="8.119385"><ele>746.0</ele><time>2026-05-02T08:49:46.355Z</time></trkpt><trkpt lat="44.1825" lon="8.1193183"><ele>746.0</ele><time>2026-05-02T08:49:47.353Z</time></trkpt><trkpt lat="44.1823833" lon="8.11926"><ele>746.0</ele><time>2026-05-02T08:49:48.35Z</time></trkpt><trkpt lat="44.18227" lon="8.1192017"><ele>746.0</ele><time>2026-05-02T08:49:49.351Z</time></trkpt><trkpt lat="44.182165" lon="8.1191433"><ele>743.5999999999999</ele><time>2026-05-02T08:49:50.355Z</time></trkpt><trkpt lat="44.182065" lon="8.11908"><ele>741.2</ele><time>2026-05-02T08:49:51.351Z</time></trkpt><trkpt lat="44.1819733" lon="8.11899"><ele>738.8</ele><time>2026-05-02T08:49:52.353Z</time></trkpt><trkpt lat="44.181885" lon="8.11891"><ele>736.4000000000001</ele><time>2026-05-02T08:49:53.354Z</time></trkpt><trkpt lat="44.1817983" lon="8.118845"><ele>734.0</ele><time>2026-05-02T08:49:54.35Z</time></trkpt><trkpt lat="44.181715" lon="8.1187867"><ele>735.8333333333333</ele><time>2026-05-02T08:49:55.353Z</time></trkpt><trkpt lat="44.1816367" lon="8.1187283"><ele>737.6666666666666</ele><time>2026-05-02T08:49:56.356Z</time></trkpt><trkpt lat="44.1815633" lon="8.1186683"><ele>739.5</ele><time>2026-05-02T08:49:57.352Z</time></trkpt><trkpt lat="44.1814967" lon="8.1186033"><ele>741.3333333333334</ele><time>2026-05-02T08:49:58.355Z</time></trkpt><trkpt lat="44.181435" lon="8.1185467"><ele>743.1666666666667</ele><time>2026-05-02T08:49:59.354Z</time></trkpt><trkpt lat="44.18137" lon="8.1185017"><ele>745.0</ele><time>2026-05-02T08:50:00.352Z</time></trkpt><trkpt lat="44.1812967" lon="8.11845"><ele>745.0</ele><time>2026-05-02T08:50:01.355Z</time></trkpt><trkpt lat="44.1812083" lon="8.118415"><ele>745.0</ele><time>2026-05-02T08:50:02.353Z</time></trkpt><trkpt lat="44.18112" lon="8.1183783"><ele>745.0</ele><time>2026-05-02T08:50:03.355Z</time></trkpt><trkpt lat="44.1810067" lon="8.11834"><ele>745.0</ele><time>2026-05-02T08:50:04.354Z</time></trkpt><trkpt lat="44.1808983" lon="8.1182817"><ele>745.0</ele><time>2026-05-02T08:50:05.352Z</time></trkpt><trkpt lat="44.1807883" lon="8.1182133"><ele>748.25</ele><time>2026-05-02T08:50:06.35Z</time></trkpt><trkpt lat="44.18068" lon="8.1181433"><ele>751.5</ele><time>2026-05-02T08:50:07.353Z</time></trkpt><trkpt lat="44.18057" lon="8.1180733"><ele>754.75</ele><time>2026-05-02T08:50:08.353Z</time></trkpt><trkpt lat="44.1804583" lon="8.1180067"><ele>758.0</ele><time>2026-05-02T08:50:09.356Z</time></trkpt><trkpt lat="44.1803517" lon="8.1179333"><ele>758.0</ele><time>2026-05-02T08:50:10.355Z</time></trkpt><trkpt lat="44.1802433" lon="8.1178617"><ele>758.0</ele><time>2026-05-02T08:50:11.352Z</time></trkpt><trkpt lat="44.1801433" lon="8.1177983"><ele>758.0</ele><time>2026-05-02T08:50:12.351Z</time></trkpt><trkpt lat="44.1800567" lon="8.1177333"><ele>758.0</ele><time>2026-05-02T08:50:13.353Z</time></trkpt><trkpt lat="44.1799783" lon="8.1176733"><ele>758.0</ele><time>2026-05-02T08:50:14.352Z</time></trkpt><trkpt lat="44.179905" lon="8.117625"><ele>756.8333333333333</ele><time>2026-05-02T08:50:15.352Z</time></trkpt><trkpt lat="44.1798283" lon="8.1175917"><ele>755.6666666666666</ele><time>2026-05-02T08:50:16.354Z</time></trkpt><trkpt lat="44.1797517" lon="8.11757"><ele>754.5</ele><time>2026-05-02T08:50:17.355Z</time></trkpt><trkpt lat="44.1796683" lon="8.1175633"><ele>753.3333333333334</ele><time>2026-05-02T08:50:18.351Z</time></trkpt><trkpt lat="44.1795917" lon="8.117565"><ele>752.1666666666667</ele><time>2026-05-02T08:50:19.353Z</time></trkpt><trkpt lat="44.1795133" lon="8.1175667"><ele>751.0</ele><time>2026-05-02T08:50:20.358Z</time></trkpt><trkpt lat="44.17943" lon="8.1175533"><ele>751.0</ele><time>2026-05-02T08:50:21.355Z</time></trkpt><trkpt lat="44.1793517" lon="8.117525"><ele>751.0</ele><time>2026-05-02T08:50:22.357Z</time></trkpt><trkpt lat="44.179265" lon="8.1175067"><ele>751.0</ele><time>2026-05-02T08:50:23.351Z</time></trkpt><trkpt lat="44.1791817" lon="8.117465"><ele>751.0</ele><time>2026-05-02T08:50:24.351Z</time></trkpt><trkpt lat="44.1791117" lon="8.11737"><ele>751.0</ele><time>2026-05-02T08:50:25.356Z</time></trkpt><trkpt lat="44.1790533" lon="8.1172617"><ele>754.5</ele><time>2026-05-02T08:50:26.357Z</time></trkpt><trkpt lat="44.1789833" lon="8.117135"><ele>758.0</ele><time>2026-05-02T08:50:27.351Z</time></trkpt><trkpt lat="44.1789167" lon="8.117"><ele>761.5</ele><time>2026-05-02T08:50:28.351Z</time></trkpt><trkpt lat="44.1788317" lon="8.11688"><ele>765.0</ele><time>2026-05-02T08:50:29.352Z</time></trkpt><trkpt lat="44.17874" lon="8.1167867"><ele>765.0</ele><time>2026-05-02T08:50:30.352Z</time></trkpt><trkpt lat="44.17865" lon="8.1167133"><ele>765.0</ele><time>2026-05-02T08:50:31.349Z</time></trkpt><trkpt lat="44.1785517" lon="8.11666"><ele>765.0</ele><time>2026-05-02T08:50:32.352Z</time></trkpt><trkpt lat="44.1784517" lon="8.11661"><ele>765.0</ele><time>2026-05-02T08:50:33.356Z</time></trkpt><trkpt lat="44.1783567" lon="8.116565"><ele>765.0</ele><time>2026-05-02T08:50:34.351Z</time></trkpt><trkpt lat="44.1782667" lon="8.11654"><ele>769.0</ele><time>2026-05-02T08:50:35.356Z</time></trkpt><trkpt lat="44.1781717" lon="8.1165283"><ele>773.0</ele><time>2026-05-02T08:50:36.354Z</time></trkpt><trkpt lat="44.1780517" lon="8.1165333"><ele>777.0</ele><time>2026-05-02T08:50:37.352Z</time></trkpt><trkpt lat="44.17795" lon="8.1165383"><ele>781.0</ele><time>2026-05-02T08:50:38.353Z</time></trkpt><trkpt lat="44.177835" lon="8.1165433"><ele>785.0</ele><time>2026-05-02T08:50:39.352Z</time></trkpt><trkpt lat="44.1777217" lon="8.1165483"><ele>785.0</ele><time>2026-05-02T08:50:40.351Z</time></trkpt><trkpt lat="44.1776217" lon="8.1165533"><ele>785.0</ele><time>2026-05-02T08:50:41.354Z</time></trkpt><trkpt lat="44.177535" lon="8.11656"><ele>785.0</ele><time>2026-05-02T08:50:42.353Z</time></trkpt><trkpt lat="44.1774683" lon="8.116575"><ele>785.0</ele><time>2026-05-02T08:50:43.353Z</time></trkpt><trkpt lat="44.1773717" lon="8.1166467"><ele>785.0</ele><time>2026-05-02T08:50:45.354Z</time></trkpt><trkpt lat="44.177275" lon="8.116735"><ele>782.3333333333334</ele><time>2026-05-02T08:50:47.354Z</time></trkpt><trkpt lat="44.177205" lon="8.11678"><ele>779.6666666666667</ele><time>2026-05-02T08:50:48.356Z</time></trkpt><trkpt lat="44.1771267" lon="8.1168167"><ele>777.0</ele><time>2026-05-02T08:50:49.358Z</time></trkpt><trkpt lat="44.1770383" lon="8.11685"><ele>774.3333333333333</ele><time>2026-05-02T08:50:50.354Z</time></trkpt><trkpt lat="44.176945" lon="8.1168783"><ele>771.6666666666666</ele><time>2026-05-02T08:50:51.356Z</time></trkpt><trkpt lat="44.1768567" lon="8.116905"><ele>769.0</ele><time>2026-05-02T08:50:52.353Z</time></trkpt><trkpt lat="44.1767767" lon="8.1169433"><ele>768.9999999999999</ele><time>2026-05-02T08:50:53.357Z</time></trkpt><trkpt lat="44.1766983" lon="8.1169983"><ele>769.0</ele><time>2026-05-02T08:50:54.352Z</time></trkpt><trkpt lat="44.1766217" lon="8.117055"><ele>769.0</ele><time>2026-05-02T08:50:55.355Z</time></trkpt><trkpt lat="44.1765467" lon="8.1171117"><ele>769.0</ele><time>2026-05-02T08:50:56.356Z</time></trkpt><trkpt lat="44.1764733" lon="8.11716"><ele>768.9999999999999</ele><time>2026-05-02T08:50:57.355Z</time></trkpt><trkpt lat="44.1764" lon="8.1172067"><ele>769.0</ele><time>2026-05-02T08:50:58.355Z</time></trkpt><trkpt lat="44.1763367" lon="8.117245"><ele>769.9999999999999</ele><time>2026-05-02T08:50:59.353Z</time></trkpt><trkpt lat="44.1762733" lon="8.117275"><ele>771.0</ele><time>2026-05-02T08:51:00.354Z</time></trkpt><trkpt lat="44.17617" lon="8.1173083"><ele>772.0</ele><time>2026-05-02T08:51:02.352Z</time></trkpt><trkpt lat="44.1761" lon="8.1173"><ele>773.0</ele><time>2026-05-02T08:51:04.352Z</time></trkpt><trkpt lat="44.176035" lon="8.1172933"><ele>773.9999999999999</ele><time>2026-05-02T08:51:06.357Z</time></trkpt><trkpt lat="44.1759567" lon="8.1172883"><ele>775.0</ele><time>2026-05-02T08:51:08.353Z</time></trkpt><trkpt lat="44.17589" lon="8.1172867"><ele>775.0</ele><time>2026-05-02T08:51:10.354Z</time></trkpt><trkpt lat="44.17582" lon="8.117315"><ele>775.0</ele><time>2026-05-02T08:51:12.356Z</time></trkpt><trkpt lat="44.1757567" lon="8.117355"><ele>775.0</ele><time>2026-05-02T08:51:14.355Z</time></trkpt><trkpt lat="44.1756783" lon="8.1174083"><ele>775.0</ele><time>2026-05-02T08:51:16.353Z</time></trkpt><trkpt lat="44.1755833" lon="8.1174767"><ele>775.0</ele><time>2026-05-02T08:51:18.355Z</time></trkpt><trkpt lat="44.17546" lon="8.1175583"><ele>777.6666666666666</ele><time>2026-05-02T08:51:20.355Z</time></trkpt><trkpt lat="44.175395" lon="8.1176033"><ele>780.3333333333333</ele><time>2026-05-02T08:51:21.354Z</time></trkpt><trkpt lat="44.175335" lon="8.1176417"><ele>783.0</ele><time>2026-05-02T08:51:22.355Z</time></trkpt><trkpt lat="44.1752767" lon="8.117675"><ele>785.6666666666667</ele><time>2026-05-02T08:51:23.354Z</time></trkpt><trkpt lat="44.175185" lon="8.1177333"><ele>788.3333333333334</ele><time>2026-05-02T08:51:25.35Z</time></trkpt><trkpt lat="44.17512" lon="8.117795"><ele>791.0</ele><time>2026-05-02T08:51:27.354Z</time></trkpt><trkpt lat="44.1750567" lon="8.1178583"><ele>791.0000000000001</ele><time>2026-05-02T08:51:29.352Z</time></trkpt><trkpt lat="44.1750033" lon="8.1179233"><ele>791.0</ele><time>2026-05-02T08:51:31.354Z</time></trkpt><trkpt lat="44.1749483" lon="8.1179917"><ele>791.0</ele><time>2026-05-02T08:51:33.355Z</time></trkpt><trkpt lat="44.17486" lon="8.1180817"><ele>791.0</ele><time>2026-05-02T08:51:35.354Z</time></trkpt><trkpt lat="44.1747817" lon="8.1181567"><ele>791.0000000000001</ele><time>2026-05-02T08:51:37.356Z</time></trkpt><trkpt lat="44.17472" lon="8.11819"><ele>791.0</ele><time>2026-05-02T08:51:39.352Z</time></trkpt><trkpt lat="44.1746567" lon="8.1182533"><ele>794.0000000000001</ele><time>2026-05-02T08:51:52.353Z</time></trkpt><trkpt lat="44.1745883" lon="8.1182967"><ele>797.0</ele><time>2026-05-02T08:51:55.356Z</time></trkpt><trkpt lat="44.1745083" lon="8.1183267"><ele>800.0</ele><time>2026-05-02T08:51:58.355Z</time></trkpt><trkpt lat="44.1744217" lon="8.118355"><ele>803.0</ele><time>2026-05-02T08:52:01.354Z</time></trkpt><trkpt lat="44.174365" lon="8.1183933"><ele>806.0000000000001</ele><time>2026-05-02T08:52:03.355Z</time></trkpt><trkpt lat="44.1742817" lon="8.11847"><ele>809.0</ele><time>2026-05-02T08:52:06.355Z</time></trkpt><trkpt lat="44.174225" lon="8.1185417"><ele>809.0</ele><time>2026-05-02T08:52:09.354Z</time></trkpt><trkpt lat="44.1741767" lon="8.1186067"><ele>809.0</ele><time>2026-05-02T08:52:12.354Z</time></trkpt><trkpt lat="44.17413" lon="8.11868"><ele>809.0</ele><time>2026-05-02T08:52:14.356Z</time></trkpt><trkpt lat="44.1740917" lon="8.1187717"><ele>809.0</ele><time>2026-05-02T08:52:16.351Z</time></trkpt><trkpt lat="44.1740633" lon="8.1188867"><ele>809.0</ele><time>2026-05-02T08:52:18.351Z</time></trkpt><trkpt lat="44.17403" lon="8.1189733"><ele>809.0</ele><time>2026-05-02T08:52:20.351Z</time></trkpt><trkpt lat="44.1739883" lon="8.1190633"><ele>809.0</ele><time>2026-05-02T08:52:23.35Z</time></trkpt><trkpt lat="44.1739383" lon="8.1191517"><ele>814.2</ele><time>2026-05-02T08:52:25.351Z</time></trkpt><trkpt lat="44.1738617" lon="8.1192717"><ele>819.4000000000001</ele><time>2026-05-02T08:52:27.352Z</time></trkpt><trkpt lat="44.1738117" lon="8.1193267"><ele>824.6</ele><time>2026-05-02T08:52:28.355Z</time></trkpt><trkpt lat="44.1737333" lon="8.11943"><ele>829.8</ele><time>2026-05-02T08:52:30.35Z</time></trkpt><trkpt lat="44.1736833" lon="8.1195083"><ele>835.0</ele><time>2026-05-02T08:52:31.35Z</time></trkpt><trkpt lat="44.1736267" lon="8.1196383"><ele>834.9999999999999</ele><time>2026-05-02T08:52:33.355Z</time></trkpt><trkpt lat="44.17358" lon="8.11974"><ele>835.0</ele><time>2026-05-02T08:52:35.349Z</time></trkpt><trkpt lat="44.173535" lon="8.1198467"><ele>835.0</ele><time>2026-05-02T08:52:37.355Z</time></trkpt><trkpt lat="44.1734517" lon="8.11996"><ele>835.0</ele><time>2026-05-02T08:52:39.356Z</time></trkpt><trkpt lat="44.1734017" lon="8.1200233"><ele>834.9999999999999</ele><time>2026-05-02T08:52:40.353Z</time></trkpt><trkpt lat="44.1733483" lon="8.1200767"><ele>835.0</ele><time>2026-05-02T08:52:41.355Z</time></trkpt><trkpt lat="44.173285" lon="8.120135"><ele>833.6666666666666</ele><time>2026-05-02T08:52:42.351Z</time></trkpt><trkpt lat="44.1732217" lon="8.12019"><ele>832.3333333333333</ele><time>2026-05-02T08:52:43.354Z</time></trkpt><trkpt lat="44.1731617" lon="8.120235"><ele>831.0</ele><time>2026-05-02T08:52:44.35Z</time></trkpt><trkpt lat="44.173045" lon="8.1203117"><ele>829.6666666666667</ele><time>2026-05-02T08:52:46.358Z</time></trkpt><trkpt lat="44.1729917" lon="8.1203783"><ele>828.3333333333334</ele><time>2026-05-02T08:52:47.356Z</time></trkpt><trkpt lat="44.1729467" lon="8.120455"><ele>827.0</ele><time>2026-05-02T08:52:48.352Z</time></trkpt><trkpt lat="44.17289" lon="8.12056"><ele>831.4000000000001</ele><time>2026-05-02T08:52:50.353Z</time></trkpt><trkpt lat="44.1728183" lon="8.1206183"><ele>835.8000000000001</ele><time>2026-05-02T08:52:52.359Z</time></trkpt><trkpt lat="44.1727567" lon="8.12072"><ele>840.2</ele><time>2026-05-02T08:52:54.353Z</time></trkpt><trkpt lat="44.172725" lon="8.1208583"><ele>844.6</ele><time>2026-05-02T08:52:56.35Z</time></trkpt><trkpt lat="44.1727233" lon="8.121005"><ele>849.0</ele><time>2026-05-02T08:52:58.355Z</time></trkpt><trkpt lat="44.1727033" lon="8.1211467"><ele>849.0</ele><time>2026-05-02T08:53:00.352Z</time></trkpt><trkpt lat="44.1726867" lon="8.1212567"><ele>849.0</ele><time>2026-05-02T08:53:02.351Z</time></trkpt><trkpt lat="44.1726583" lon="8.1213633"><ele>849.0</ele><time>2026-05-02T08:53:04.35Z</time></trkpt><trkpt lat="44.17261" lon="8.1214933"><ele>849.0</ele><time>2026-05-02T08:53:06.354Z</time></trkpt><trkpt lat="44.17256" lon="8.121635"><ele>849.0</ele><time>2026-05-02T08:53:08.351Z</time></trkpt><trkpt lat="44.1725233" lon="8.121765"><ele>848.2</ele><time>2026-05-02T08:53:10.349Z</time></trkpt><trkpt lat="44.17247" lon="8.1218767"><ele>847.4000000000001</ele><time>2026-05-02T08:53:12.35Z</time></trkpt><trkpt lat="44.172375" lon="8.1219383"><ele>846.6</ele><time>2026-05-02T08:53:14.353Z</time></trkpt><trkpt lat="44.17227" lon="8.1218967"><ele>845.8</ele><time>2026-05-02T08:53:16.357Z</time></trkpt><trkpt lat="44.1721467" lon="8.121895"><ele>845.0</ele><time>2026-05-02T08:53:18.351Z</time></trkpt><trkpt lat="44.1720567" lon="8.1218883"><ele>846.3333333333334</ele><time>2026-05-02T08:53:20.352Z</time></trkpt><trkpt lat="44.1719983" lon="8.121825"><ele>847.6666666666667</ele><time>2026-05-02T08:53:22.351Z</time></trkpt><trkpt lat="44.17196" lon="8.12171"><ele>849.0</ele><time>2026-05-02T08:53:24.352Z</time></trkpt><trkpt lat="44.1719383" lon="8.12161"><ele>850.3333333333333</ele><time>2026-05-02T08:53:26.354Z</time></trkpt><trkpt lat="44.171895" lon="8.12151"><ele>851.6666666666666</ele><time>2026-05-02T08:53:28.352Z</time></trkpt><trkpt lat="44.1718383" lon="8.1213983"><ele>853.0</ele><time>2026-05-02T08:53:30.351Z</time></trkpt><trkpt lat="44.1718133" lon="8.1212667"><ele>854.4999999999999</ele><time>2026-05-02T08:53:32.349Z</time></trkpt><trkpt lat="44.1717917" lon="8.12113"><ele>856.0</ele><time>2026-05-02T08:53:34.351Z</time></trkpt><trkpt lat="44.1717567" lon="8.121015"><ele>857.5</ele><time>2026-05-02T08:53:36.35Z</time></trkpt><trkpt lat="44.1716833" lon="8.12095"><ele>859.0</ele><time>2026-05-02T08:53:38.358Z</time></trkpt><trkpt lat="44.1716067" lon="8.1209"><ele>860.4999999999999</ele><time>2026-05-02T08:53:40.35Z</time></trkpt><trkpt lat="44.1715283" lon="8.12085"><ele>862.0</ele><time>2026-05-02T08:53:42.35Z</time></trkpt><trkpt lat="44.1714617" lon="8.1207683"><ele>865.8</ele><time>2026-05-02T08:53:44.358Z</time></trkpt><trkpt lat="44.17137" lon="8.12068"><ele>869.6</ele><time>2026-05-02T08:53:46.357Z</time></trkpt><trkpt lat="44.1713217" lon="8.120615"><ele>873.3999999999999</ele><time>2026-05-02T08:53:47.353Z</time></trkpt><trkpt lat="44.171245" lon="8.1204867"><ele>877.1999999999999</ele><time>2026-05-02T08:53:49.355Z</time></trkpt><trkpt lat="44.1711833" lon="8.1203667"><ele>881.0</ele><time>2026-05-02T08:53:51.36Z</time></trkpt><trkpt lat="44.1711267" lon="8.12025"><ele>881.0000000000001</ele><time>2026-05-02T08:53:53.352Z</time></trkpt><trkpt lat="44.171075" lon="8.120155"><ele>881.0</ele><time>2026-05-02T08:53:55.356Z</time></trkpt><trkpt lat="44.1710267" lon="8.1200733"><ele>881.0</ele><time>2026-05-02T08:53:57.355Z</time></trkpt><trkpt lat="44.171005" lon="8.11999"><ele>881.0</ele><time>2026-05-02T08:53:59.353Z</time></trkpt><trkpt lat="44.1709783" lon="8.1198783"><ele>881.0000000000001</ele><time>2026-05-02T08:54:01.354Z</time></trkpt><trkpt lat="44.1709483" lon="8.119745"><ele>881.0</ele><time>2026-05-02T08:54:03.353Z</time></trkpt><trkpt lat="44.170915" lon="8.119595"><ele>881.6666666666667</ele><time>2026-05-02T08:54:05.355Z</time></trkpt><trkpt lat="44.1708817" lon="8.1195117"><ele>882.3333333333334</ele><time>2026-05-02T08:54:06.356Z</time></trkpt><trkpt lat="44.1708517" lon="8.11943"><ele>883.0</ele><time>2026-05-02T08:54:07.354Z</time></trkpt><trkpt lat="44.1707917" lon="8.119305"><ele>883.6666666666667</ele><time>2026-05-02T08:54:09.355Z</time></trkpt><trkpt lat="44.1707333" lon="8.1192183"><ele>884.3333333333334</ele><time>2026-05-02T08:54:11.355Z</time></trkpt><trkpt lat="44.1706883" lon="8.1191317"><ele>885.0</ele><time>2026-05-02T08:54:13.352Z</time></trkpt><trkpt lat="44.170615" lon="8.11905"><ele>885.0</ele><time>2026-05-02T08:54:15.355Z</time></trkpt><trkpt lat="44.17055" lon="8.1189633"><ele>885.0</ele><time>2026-05-02T08:54:17.353Z</time></trkpt><trkpt lat="44.1704217" lon="8.1188517"><ele>885.0</ele><time>2026-05-02T08:54:42.349Z</time></trkpt><trkpt lat="44.1703867" lon="8.1187433"><ele>885.0</ele><time>2026-05-02T08:59:09.358Z</time></trkpt><trkpt lat="44.1703067" lon="8.11868"><ele>885.0</ele><time>2026-05-02T08:59:12.353Z</time></trkpt><trkpt lat="44.1702333" lon="8.118635"><ele>885.0</ele><time>2026-05-02T08:59:14.355Z</time></trkpt><trkpt lat="44.170175" lon="8.118595"><ele>885.0</ele><time>2026-05-02T08:59:16.354Z</time></trkpt><trkpt lat="44.1701083" lon="8.1185133"><ele>885.0</ele><time>2026-05-02T08:59:19.356Z</time></trkpt><trkpt lat="44.1700767" lon="8.1183933"><ele>885.0</ele><time>2026-05-02T08:59:22.351Z</time></trkpt><trkpt lat="44.1700733" lon="8.1182667"><ele>885.0</ele><time>2026-05-02T08:59:24.35Z</time></trkpt><trkpt lat="44.1700517" lon="8.118125"><ele>885.0</ele><time>2026-05-02T08:59:26.352Z</time></trkpt><trkpt lat="44.1700017" lon="8.11798"><ele>887.8</ele><time>2026-05-02T08:59:28.353Z</time></trkpt><trkpt lat="44.16995" lon="8.11784"><ele>890.6</ele><time>2026-05-02T08:59:30.351Z</time></trkpt><trkpt lat="44.1699033" lon="8.1177217"><ele>893.4000000000001</ele><time>2026-05-02T08:59:32.355Z</time></trkpt><trkpt lat="44.1698583" lon="8.1176067"><ele>896.2</ele><time>2026-05-02T08:59:34.359Z</time></trkpt><trkpt lat="44.1697867" lon="8.1175133"><ele>899.0</ele><time>2026-05-02T08:59:36.35Z</time></trkpt><trkpt lat="44.169705" lon="8.1174267"><ele>904.4000000000001</ele><time>2026-05-02T08:59:38.352Z</time></trkpt><trkpt lat="44.169625" lon="8.11736"><ele>909.8000000000001</ele><time>2026-05-02T08:59:40.354Z</time></trkpt><trkpt lat="44.1695333" lon="8.1172933"><ele>915.1999999999999</ele><time>2026-05-02T08:59:42.354Z</time></trkpt><trkpt lat="44.16944" lon="8.117245"><ele>920.5999999999999</ele><time>2026-05-02T08:59:44.353Z</time></trkpt><trkpt lat="44.16935" lon="8.1172367"><ele>926.0</ele><time>2026-05-02T08:59:46.354Z</time></trkpt><trkpt lat="44.1692483" lon="8.1172533"><ele>926.0</ele><time>2026-05-02T08:59:48.351Z</time></trkpt><trkpt lat="44.1691483" lon="8.11731"><ele>925.9999999999999</ele><time>2026-05-02T08:59:50.354Z</time></trkpt><trkpt lat="44.1690433" lon="8.1173967"><ele>925.9999999999999</ele><time>2026-05-02T08:59:52.354Z</time></trkpt><trkpt lat="44.1689467" lon="8.1174517"><ele>926.0</ele><time>2026-05-02T08:59:54.351Z</time></trkpt><trkpt lat="44.1688533" lon="8.1175133"><ele>926.0</ele><time>2026-05-02T08:59:56.357Z</time></trkpt><trkpt lat="44.1687867" lon="8.1176083"><ele>923.0</ele><time>2026-05-02T08:59:58.358Z</time></trkpt><trkpt lat="44.1687467" lon="8.11773"><ele>919.9999999999999</ele><time>2026-05-02T09:00:00.35Z</time></trkpt><trkpt lat="44.1686917" lon="8.1178467"><ele>916.9999999999999</ele><time>2026-05-02T09:00:02.352Z</time></trkpt><trkpt lat="44.1686283" lon="8.1179383"><ele>914.0</ele><time>2026-05-02T09:00:04.356Z</time></trkpt><trkpt lat="44.1685567" lon="8.1180183"><ele>911.0</ele><time>2026-05-02T09:00:06.352Z</time></trkpt><trkpt lat="44.1684517" lon="8.118095"><ele>911.0</ele><time>2026-05-02T09:00:08.353Z</time></trkpt><trkpt lat="44.1683217" lon="8.1181483"><ele>910.9999999999999</ele><time>2026-05-02T09:00:10.354Z</time></trkpt><trkpt lat="44.1682483" lon="8.1181533"><ele>910.9999999999999</ele><time>2026-05-02T09:00:11.351Z</time></trkpt><trkpt lat="44.1681333" lon="8.1181367"><ele>911.0</ele><time>2026-05-02T09:00:13.354Z</time></trkpt><trkpt lat="44.168045" lon="8.118085"><ele>911.0</ele><time>2026-05-02T09:00:15.349Z</time></trkpt><trkpt lat="44.168015" lon="8.1179733"><ele>910.0</ele><time>2026-05-02T09:00:17.354Z</time></trkpt><trkpt lat="44.167975" lon="8.117835"><ele>908.9999999999999</ele><time>2026-05-02T09:00:19.353Z</time></trkpt><trkpt lat="44.1679083" lon="8.1177117"><ele>907.9999999999999</ele><time>2026-05-02T09:00:21.355Z</time></trkpt><trkpt lat="44.167835" lon="8.11761"><ele>907.0</ele><time>2026-05-02T09:00:23.354Z</time></trkpt><trkpt lat="44.1677583" lon="8.1175283"><ele>906.0</ele><time>2026-05-02T09:00:25.35Z</time></trkpt><trkpt lat="44.16767" lon="8.1174683"><ele>906.0</ele><time>2026-05-02T09:00:27.351Z</time></trkpt><trkpt lat="44.1675717" lon="8.1174233"><ele>905.9999999999999</ele><time>2026-05-02T09:00:29.358Z</time></trkpt><trkpt lat="44.167475" lon="8.11739"><ele>905.9999999999999</ele><time>2026-05-02T09:00:31.35Z</time></trkpt><trkpt lat="44.1673833" lon="8.1173483"><ele>906.0</ele><time>2026-05-02T09:00:33.358Z</time></trkpt><trkpt lat="44.1672967" lon="8.1173083"><ele>906.0</ele><time>2026-05-02T09:00:35.35Z</time></trkpt><trkpt lat="44.167185" lon="8.117315"><ele>906.5999999999999</ele><time>2026-05-02T09:00:37.351Z</time></trkpt><trkpt lat="44.1670683" lon="8.117355"><ele>907.1999999999999</ele><time>2026-05-02T09:00:39.352Z</time></trkpt><trkpt lat="44.1669517" lon="8.117425"><ele>907.8000000000001</ele><time>2026-05-02T09:00:41.354Z</time></trkpt><trkpt lat="44.1668883" lon="8.1174667"><ele>908.4000000000001</ele><time>2026-05-02T09:00:42.355Z</time></trkpt><trkpt lat="44.1668167" lon="8.1175067"><ele>909.0</ele><time>2026-05-02T09:00:43.352Z</time></trkpt><trkpt lat="44.1667417" lon="8.1175417"><ele>909.0</ele><time>2026-05-02T09:00:44.354Z</time></trkpt><trkpt lat="44.1666667" lon="8.1175767"><ele>909.0</ele><time>2026-05-02T09:00:45.352Z</time></trkpt><trkpt lat="44.1665917" lon="8.1176033"><ele>909.0</ele><time>2026-05-02T09:00:46.35Z</time></trkpt><trkpt lat="44.1665183" lon="8.117625"><ele>909.0</ele><time>2026-05-02T09:00:47.349Z</time></trkpt><trkpt lat="44.1664417" lon="8.117645"><ele>909.0</ele><time>2026-05-02T09:00:48.353Z</time></trkpt><trkpt lat="44.16633" lon="8.1176733"><ele>909.0</ele><time>2026-05-02T09:00:50.354Z</time></trkpt><trkpt lat="44.16624" lon="8.1177267"><ele>911.1666666666666</ele><time>2026-05-02T09:00:52.35Z</time></trkpt><trkpt lat="44.1661483" lon="8.117815"><ele>913.3333333333333</ele><time>2026-05-02T09:00:54.353Z</time></trkpt><trkpt lat="44.1660883" lon="8.117875"><ele>915.5</ele><time>2026-05-02T09:00:55.353Z</time></trkpt><trkpt lat="44.166015" lon="8.117945"><ele>917.6666666666666</ele><time>2026-05-02T09:00:56.354Z</time></trkpt><trkpt lat="44.1659483" lon="8.1180083"><ele>919.8333333333333</ele><time>2026-05-02T09:00:57.353Z</time></trkpt><trkpt lat="44.1658833" lon="8.1180733"><ele>922.0</ele><time>2026-05-02T09:00:58.354Z</time></trkpt><trkpt lat="44.16583" lon="8.1181233"><ele>922.0</ele><time>2026-05-02T09:00:59.354Z</time></trkpt><trkpt lat="44.1657283" lon="8.1182083"><ele>922.0</ele><time>2026-05-02T09:01:01.354Z</time></trkpt><trkpt lat="44.1656183" lon="8.1182983"><ele>922.0</ele><time>2026-05-02T09:01:03.352Z</time></trkpt><trkpt lat="44.1655633" lon="8.118345"><ele>922.0</ele><time>2026-05-02T09:01:04.357Z</time></trkpt><trkpt lat="44.1655033" lon="8.1183933"><ele>922.0</ele><time>2026-05-02T09:01:05.353Z</time></trkpt><trkpt lat="44.1654333" lon="8.1184433"><ele>920.2</ele><time>2026-05-02T09:01:06.356Z</time></trkpt><trkpt lat="44.1653767" lon="8.1184983"><ele>918.4000000000001</ele><time>2026-05-02T09:01:07.356Z</time></trkpt><trkpt lat="44.16528" lon="8.1185833"><ele>916.5999999999999</ele><time>2026-05-02T09:01:09.355Z</time></trkpt><trkpt lat="44.1651683" lon="8.11864"><ele>914.8</ele><time>2026-05-02T09:01:11.351Z</time></trkpt><trkpt lat="44.1650917" lon="8.1186683"><ele>913.0</ele><time>2026-05-02T09:01:12.352Z</time></trkpt><trkpt lat="44.16501" lon="8.118695"><ele>912.9999999999999</ele><time>2026-05-02T09:01:13.352Z</time></trkpt><trkpt lat="44.16494" lon="8.118695"><ele>913.0</ele><time>2026-05-02T09:01:14.35Z</time></trkpt><trkpt lat="44.164875" lon="8.1186783"><ele>913.0</ele><time>2026-05-02T09:01:15.351Z</time></trkpt><trkpt lat="44.1647767" lon="8.1185883"><ele>913.0</ele><time>2026-05-02T09:01:17.35Z</time></trkpt><trkpt lat="44.1647367" lon="8.118515"><ele>912.9999999999999</ele><time>2026-05-02T09:01:18.349Z</time></trkpt><trkpt lat="44.1646917" lon="8.11844"><ele>913.0</ele><time>2026-05-02T09:01:19.35Z</time></trkpt><trkpt lat="44.1646467" lon="8.1183617"><ele>910.4999999999999</ele><time>2026-05-02T09:01:20.35Z</time></trkpt><trkpt lat="44.1646033" lon="8.118285"><ele>908.0</ele><time>2026-05-02T09:01:21.35Z</time></trkpt><trkpt lat="44.1645533" lon="8.1182133"><ele>905.5</ele><time>2026-05-02T09:01:22.35Z</time></trkpt><trkpt lat="44.1645033" lon="8.1181317"><ele>903.0</ele><time>2026-05-02T09:01:23.35Z</time></trkpt><trkpt lat="44.1644517" lon="8.1180617"><ele>900.4999999999999</ele><time>2026-05-02T09:01:24.35Z</time></trkpt><trkpt lat="44.164355" lon="8.117965"><ele>898.0</ele><time>2026-05-02T09:01:26.349Z</time></trkpt><trkpt lat="44.1642733" lon="8.1179083"><ele>899.0</ele><time>2026-05-02T09:01:28.349Z</time></trkpt><trkpt lat="44.1641867" lon="8.1178633"><ele>900.0</ele><time>2026-05-02T09:01:30.349Z</time></trkpt><trkpt lat="44.164075" lon="8.1178633"><ele>901.0</ele><time>2026-05-02T09:01:32.35Z</time></trkpt><trkpt lat="44.16395" lon="8.11786"><ele>902.0</ele><time>2026-05-02T09:01:34.35Z</time></trkpt><trkpt lat="44.1638833" lon="8.1178483"><ele>903.0</ele><time>2026-05-02T09:01:35.349Z</time></trkpt><trkpt lat="44.16382" lon="8.1178283"><ele>903.0</ele><time>2026-05-02T09:01:36.35Z</time></trkpt><trkpt lat="44.16376" lon="8.1177933"><ele>903.0</ele><time>2026-05-02T09:01:37.35Z</time></trkpt><trkpt lat="44.163655" lon="8.1177033"><ele>903.0</ele><time>2026-05-02T09:01:39.35Z</time></trkpt><trkpt lat="44.163565" lon="8.1176067"><ele>903.0</ele><time>2026-05-02T09:01:41.349Z</time></trkpt><trkpt lat="44.1634933" lon="8.1175217"><ele>903.0</ele><time>2026-05-02T09:01:43.35Z</time></trkpt><trkpt lat="44.1634383" lon="8.1174667"><ele>903.0</ele><time>2026-05-02T09:01:45.355Z</time></trkpt><trkpt lat="44.1633767" lon="8.11743"><ele>903.0</ele><time>2026-05-02T09:01:47.351Z</time></trkpt><trkpt lat="44.1632917" lon="8.1174117"><ele>903.0</ele><time>2026-05-02T09:01:49.351Z</time></trkpt><trkpt lat="44.1631767" lon="8.117405"><ele>903.0</ele><time>2026-05-02T09:01:51.351Z</time></trkpt><trkpt lat="44.1630717" lon="8.1173967"><ele>903.0</ele><time>2026-05-02T09:01:53.351Z</time></trkpt><trkpt lat="44.1629783" lon="8.1173883"><ele>902.3333333333334</ele><time>2026-05-02T09:01:55.351Z</time></trkpt><trkpt lat="44.1628833" lon="8.1173917"><ele>901.6666666666667</ele><time>2026-05-02T09:01:57.353Z</time></trkpt><trkpt lat="44.162775" lon="8.1173883"><ele>901.0</ele><time>2026-05-02T09:01:59.351Z</time></trkpt><trkpt lat="44.1626783" lon="8.1173733"><ele>900.3333333333334</ele><time>2026-05-02T09:02:01.35Z</time></trkpt><trkpt lat="44.1626183" lon="8.1173417"><ele>899.6666666666667</ele><time>2026-05-02T09:02:03.352Z</time></trkpt><trkpt lat="44.16257" lon="8.1172817"><ele>899.0</ele><time>2026-05-02T09:02:05.35Z</time></trkpt><trkpt lat="44.162545" lon="8.1171717"><ele>899.0</ele><time>2026-05-02T09:02:07.349Z</time></trkpt><trkpt lat="44.1625283" lon="8.11704"><ele>899.0000000000001</ele><time>2026-05-02T09:02:09.356Z</time></trkpt><trkpt lat="44.1625233" lon="8.116895"><ele>899.0000000000001</ele><time>2026-05-02T09:02:11.354Z</time></trkpt><trkpt lat="44.16254" lon="8.1167583"><ele>899.0</ele><time>2026-05-02T09:02:13.352Z</time></trkpt><trkpt lat="44.1625583" lon="8.1166283"><ele>899.0</ele><time>2026-05-02T09:02:15.356Z</time></trkpt><trkpt lat="44.1625783" lon="8.1164867"><ele>900.4000000000001</ele><time>2026-05-02T09:02:17.353Z</time></trkpt><trkpt lat="44.1626" lon="8.1163617"><ele>901.8000000000001</ele><time>2026-05-02T09:02:19.354Z</time></trkpt><trkpt lat="44.16262" lon="8.1162233"><ele>903.1999999999999</ele><time>2026-05-02T09:02:21.354Z</time></trkpt><trkpt lat="44.1626333" lon="8.11606"><ele>904.5999999999999</ele><time>2026-05-02T09:02:23.355Z</time></trkpt><trkpt lat="44.16264" lon="8.1159617"><ele>906.0</ele><time>2026-05-02T09:02:24.354Z</time></trkpt><trkpt lat="44.1626433" lon="8.1158617"><ele>905.9999999999999</ele><time>2026-05-02T09:02:25.35Z</time></trkpt><trkpt lat="44.1626417" lon="8.1157733"><ele>906.0</ele><time>2026-05-02T09:02:26.35Z</time></trkpt><trkpt lat="44.1626283" lon="8.115685"><ele>905.9999999999999</ele><time>2026-05-02T09:02:27.352Z</time></trkpt><trkpt lat="44.1626117" lon="8.115595"><ele>905.9999999999999</ele><time>2026-05-02T09:02:28.354Z</time></trkpt><trkpt lat="44.1625967" lon="8.1155"><ele>906.0</ele><time>2026-05-02T09:02:29.349Z</time></trkpt><trkpt lat="44.1625817" lon="8.1154083"><ele>905.9999999999999</ele><time>2026-05-02T09:02:30.354Z</time></trkpt><trkpt lat="44.1625683" lon="8.11531"><ele>905.9999999999999</ele><time>2026-05-02T09:02:31.357Z</time></trkpt><trkpt lat="44.1625533" lon="8.1152067"><ele>908.0</ele><time>2026-05-02T09:02:32.35Z</time></trkpt><trkpt lat="44.1625367" lon="8.115115"><ele>910.0</ele><time>2026-05-02T09:02:33.354Z</time></trkpt><trkpt lat="44.16253" lon="8.1149583"><ele>912.0</ele><time>2026-05-02T09:02:35.354Z</time></trkpt><trkpt lat="44.1625317" lon="8.1148467"><ele>914.0</ele><time>2026-05-02T09:02:38.356Z</time></trkpt><trkpt lat="44.1625183" lon="8.1149567"><ele>916.0</ele><time>2026-05-02T09:02:59.348Z</time></trkpt><trkpt lat="44.1625233" lon="8.1150983"><ele>918.0</ele><time>2026-05-02T09:03:02.352Z</time></trkpt><trkpt lat="44.16255" lon="8.1152483"><ele>918.0</ele><time>2026-05-02T09:03:04.354Z</time></trkpt><trkpt lat="44.1625733" lon="8.11542"><ele>918.0</ele><time>2026-05-02T09:03:06.352Z</time></trkpt><trkpt lat="44.1625833" lon="8.1155183"><ele>918.0</ele><time>2026-05-02T09:03:07.352Z</time></trkpt><trkpt lat="44.162595" lon="8.11561"><ele>918.0</ele><time>2026-05-02T09:03:08.352Z</time></trkpt><trkpt lat="44.162605" lon="8.1157133"><ele>918.0</ele><time>2026-05-02T09:03:09.353Z</time></trkpt><trkpt lat="44.162615" lon="8.1158133"><ele>918.0</ele><time>2026-05-02T09:03:10.353Z</time></trkpt><trkpt lat="44.16262" lon="8.1159133"><ele>916.0</ele><time>2026-05-02T09:03:11.357Z</time></trkpt><trkpt lat="44.16262" lon="8.11601"><ele>914.0</ele><time>2026-05-02T09:03:12.353Z</time></trkpt><trkpt lat="44.1626167" lon="8.1161133"><ele>912.0</ele><time>2026-05-02T09:03:13.353Z</time></trkpt><trkpt lat="44.1626067" lon="8.1162183"><ele>910.0</ele><time>2026-05-02T09:03:14.351Z</time></trkpt><trkpt lat="44.1625933" lon="8.1163233"><ele>908.0</ele><time>2026-05-02T09:03:15.35Z</time></trkpt><trkpt lat="44.1625817" lon="8.1164283"><ele>906.0</ele><time>2026-05-02T09:03:16.353Z</time></trkpt><trkpt lat="44.162565" lon="8.116535"><ele>904.9999999999999</ele><time>2026-05-02T09:03:17.349Z</time></trkpt><trkpt lat="44.162545" lon="8.1166417"><ele>904.0</ele><time>2026-05-02T09:03:18.349Z</time></trkpt><trkpt lat="44.1625233" lon="8.1167467"><ele>902.9999999999999</ele><time>2026-05-02T09:03:19.353Z</time></trkpt><trkpt lat="44.1625067" lon="8.1168517"><ele>901.9999999999999</ele><time>2026-05-02T09:03:20.353Z</time></trkpt><trkpt lat="44.162495" lon="8.1169517"><ele>901.0</ele><time>2026-05-02T09:03:21.355Z</time></trkpt><trkpt lat="44.1625" lon="8.117045"><ele>899.9999999999999</ele><time>2026-05-02T09:03:22.356Z</time></trkpt><trkpt lat="44.1625067" lon="8.1171383"><ele>898.9999999999999</ele><time>2026-05-02T09:03:23.355Z</time></trkpt><trkpt lat="44.16249" lon="8.1172833"><ele>899.0</ele><time>2026-05-02T09:03:25.353Z</time></trkpt><trkpt lat="44.1624883" lon="8.117385"><ele>899.0000000000001</ele><time>2026-05-02T09:03:28.35Z</time></trkpt><trkpt lat="44.1625217" lon="8.1173033"><ele>899.0000000000001</ele><time>2026-05-02T09:03:41.35Z</time></trkpt><trkpt lat="44.1625017" lon="8.117115"><ele>899.0</ele><time>2026-05-02T09:03:43.349Z</time></trkpt><trkpt lat="44.1624917" lon="8.1169633"><ele>899.0</ele><time>2026-05-02T09:03:44.354Z</time></trkpt><trkpt lat="44.1625067" lon="8.116785"><ele>899.0</ele><time>2026-05-02T09:03:45.355Z</time></trkpt><trkpt lat="44.1625367" lon="8.1165817"><ele>899.0</ele><time>2026-05-02T09:03:46.354Z</time></trkpt><trkpt lat="44.1625683" lon="8.11637"><ele>899.0</ele><time>2026-05-02T09:03:47.35Z</time></trkpt><trkpt lat="44.1625967" lon="8.116155"><ele>900.75</ele><time>2026-05-02T09:03:48.353Z</time></trkpt><trkpt lat="44.1626167" lon="8.1159533"><ele>902.5</ele><time>2026-05-02T09:03:49.352Z</time></trkpt><trkpt lat="44.162625" lon="8.1157767"><ele>904.25</ele><time>2026-05-02T09:03:50.35Z</time></trkpt><trkpt lat="44.1626133" lon="8.1155933"><ele>906.0</ele><time>2026-05-02T09:03:51.353Z</time></trkpt><trkpt lat="44.1625933" lon="8.1154033"><ele>909.0</ele><time>2026-05-02T09:03:52.35Z</time></trkpt><trkpt lat="44.1625667" lon="8.11522"><ele>912.0</ele><time>2026-05-02T09:03:53.349Z</time></trkpt><trkpt lat="44.162545" lon="8.1150367"><ele>915.0</ele><time>2026-05-02T09:03:54.352Z</time></trkpt><trkpt lat="44.1625233" lon="8.1148683"><ele>918.0</ele><time>2026-05-02T09:03:55.354Z</time></trkpt><trkpt lat="44.16249" lon="8.1147167"><ele>919.0</ele><time>2026-05-02T09:03:56.351Z</time></trkpt><trkpt lat="44.162455" lon="8.1145783"><ele>920.0</ele><time>2026-05-02T09:03:57.354Z</time></trkpt><trkpt lat="44.162435" lon="8.114455"><ele>921.0</ele><time>2026-05-02T09:03:58.353Z</time></trkpt><trkpt lat="44.16243" lon="8.114335"><ele>922.0</ele><time>2026-05-02T09:03:59.351Z</time></trkpt><trkpt lat="44.16244" lon="8.1141983"><ele>923.0</ele><time>2026-05-02T09:04:00.356Z</time></trkpt><trkpt lat="44.1624817" lon="8.1140283"><ele>923.0</ele><time>2026-05-02T09:04:01.352Z</time></trkpt><trkpt lat="44.1625233" lon="8.1138633"><ele>923.0</ele><time>2026-05-02T09:04:02.352Z</time></trkpt><trkpt lat="44.1625733" lon="8.11369"><ele>923.0</ele><time>2026-05-02T09:04:03.352Z</time></trkpt><trkpt lat="44.1626283" lon="8.1135083"><ele>923.0</ele><time>2026-05-02T09:04:04.349Z</time></trkpt><trkpt lat="44.16268" lon="8.1133267"><ele>923.0</ele><time>2026-05-02T09:04:05.352Z</time></trkpt><trkpt lat="44.1627167" lon="8.11315"><ele>923.0</ele><time>2026-05-02T09:04:06.352Z</time></trkpt><trkpt lat="44.1627467" lon="8.112995"><ele>923.0</ele><time>2026-05-02T09:04:07.349Z</time></trkpt><trkpt lat="44.1627683" lon="8.1128367"><ele>923.0</ele><time>2026-05-02T09:04:08.354Z</time></trkpt><trkpt lat="44.16278" lon="8.1126767"><ele>923.0000000000001</ele><time>2026-05-02T09:04:09.351Z</time></trkpt><trkpt lat="44.1627933" lon="8.1125183"><ele>923.0</ele><time>2026-05-02T09:04:10.353Z</time></trkpt><trkpt lat="44.1627967" lon="8.1123833"><ele>923.0</ele><time>2026-05-02T09:04:11.356Z</time></trkpt><trkpt lat="44.1627917" lon="8.11226"><ele>923.0</ele><time>2026-05-02T09:04:12.356Z</time></trkpt><trkpt lat="44.1627867" lon="8.1121617"><ele>923.0000000000001</ele><time>2026-05-02T09:04:13.353Z</time></trkpt><trkpt lat="44.1627867" lon="8.1120733"><ele>923.0</ele><time>2026-05-02T09:04:14.352Z</time></trkpt><trkpt lat="44.16288" lon="8.1119483"><ele>919.8</ele><time>2026-05-02T09:04:16.349Z</time></trkpt><trkpt lat="44.1629617" lon="8.1119167"><ele>916.5999999999999</ele><time>2026-05-02T09:04:17.354Z</time></trkpt><trkpt lat="44.1630333" lon="8.1118833"><ele>913.4000000000001</ele><time>2026-05-02T09:04:18.354Z</time></trkpt><trkpt lat="44.1630717" lon="8.1118083"><ele>910.2</ele><time>2026-05-02T09:04:21.356Z</time></trkpt><trkpt lat="44.162975" lon="8.1118483"><ele>907.0</ele><time>2026-05-02T09:04:25.35Z</time></trkpt><trkpt lat="44.1628617" lon="8.11195"><ele>906.9999999999999</ele><time>2026-05-02T09:04:27.349Z</time></trkpt><trkpt lat="44.1628017" lon="8.11201"><ele>907.0</ele><time>2026-05-02T09:04:28.355Z</time></trkpt><trkpt lat="44.162755" lon="8.1121633"><ele>907.0</ele><time>2026-05-02T09:04:30.356Z</time></trkpt><trkpt lat="44.1627483" lon="8.1122533"><ele>907.0</ele><time>2026-05-02T09:04:31.354Z</time></trkpt><trkpt lat="44.1627517" lon="8.1123633"><ele>906.9999999999999</ele><time>2026-05-02T09:04:32.356Z</time></trkpt><trkpt lat="44.1627517" lon="8.1124783"><ele>907.0</ele><time>2026-05-02T09:04:33.358Z</time></trkpt><trkpt lat="44.1627433" lon="8.1126033"><ele>910.2</ele><time>2026-05-02T09:04:34.358Z</time></trkpt><trkpt lat="44.1627317" lon="8.1127233"><ele>913.4000000000001</ele><time>2026-05-02T09:04:35.353Z</time></trkpt><trkpt lat="44.1627167" lon="8.112855"><ele>916.5999999999999</ele><time>2026-05-02T09:04:36.353Z</time></trkpt><trkpt lat="44.1627033" lon="8.112975"><ele>919.8</ele><time>2026-05-02T09:04:37.353Z</time></trkpt><trkpt lat="44.162685" lon="8.1131083"><ele>923.0</ele><time>2026-05-02T09:04:38.352Z</time></trkpt><trkpt lat="44.162665" lon="8.1132467"><ele>923.0</ele><time>2026-05-02T09:04:39.352Z</time></trkpt><trkpt lat="44.1626383" lon="8.1133883"><ele>923.0</ele><time>2026-05-02T09:04:40.353Z</time></trkpt><trkpt lat="44.1626067" lon="8.1135217"><ele>923.0</ele><time>2026-05-02T09:04:41.353Z</time></trkpt><trkpt lat="44.1625683" lon="8.1136583"><ele>923.0</ele><time>2026-05-02T09:04:42.353Z</time></trkpt><trkpt lat="44.1625317" lon="8.113795"><ele>923.0</ele><time>2026-05-02T09:04:43.349Z</time></trkpt><trkpt lat="44.1625017" lon="8.1139383"><ele>923.5999999999999</ele><time>2026-05-02T09:04:44.349Z</time></trkpt><trkpt lat="44.162465" lon="8.114075"><ele>924.1999999999999</ele><time>2026-05-02T09:04:45.349Z</time></trkpt><trkpt lat="44.1624283" lon="8.1142"><ele>924.8</ele><time>2026-05-02T09:04:46.356Z</time></trkpt><trkpt lat="44.162405" lon="8.11432"><ele>925.4</ele><time>2026-05-02T09:04:47.351Z</time></trkpt><trkpt lat="44.1623967" lon="8.1144317"><ele>926.0</ele><time>2026-05-02T09:04:48.354Z</time></trkpt><trkpt lat="44.1624083" lon="8.114555"><ele>926.0</ele><time>2026-05-02T09:04:49.354Z</time></trkpt><trkpt lat="44.1624383" lon="8.1146883"><ele>925.9999999999999</ele><time>2026-05-02T09:04:50.352Z</time></trkpt><trkpt lat="44.1624717" lon="8.114815"><ele>925.9999999999999</ele><time>2026-05-02T09:04:51.354Z</time></trkpt><trkpt lat="44.1625017" lon="8.1149417"><ele>926.0</ele><time>2026-05-02T09:04:52.354Z</time></trkpt><trkpt lat="44.162525" lon="8.1150833"><ele>926.0</ele><time>2026-05-02T09:04:53.357Z</time></trkpt><trkpt lat="44.1625517" lon="8.1152067"><ele>924.4</ele><time>2026-05-02T09:04:54.353Z</time></trkpt><trkpt lat="44.1625833" lon="8.1153417"><ele>922.8</ele><time>2026-05-02T09:04:55.354Z</time></trkpt><trkpt lat="44.1626" lon="8.1154817"><ele>921.1999999999999</ele><time>2026-05-02T09:04:56.354Z</time></trkpt><trkpt lat="44.1626217" lon="8.1156467"><ele>919.5999999999999</ele><time>2026-05-02T09:04:57.35Z</time></trkpt><trkpt lat="44.1626333" lon="8.1157983"><ele>918.0</ele><time>2026-05-02T09:04:58.35Z</time></trkpt><trkpt lat="44.162635" lon="8.115965"><ele>915.0</ele><time>2026-05-02T09:04:59.349Z</time></trkpt><trkpt lat="44.162625" lon="8.1161517"><ele>912.0</ele><time>2026-05-02T09:05:00.352Z</time></trkpt><trkpt lat="44.16259" lon="8.1163717"><ele>909.0</ele><time>2026-05-02T09:05:01.35Z</time></trkpt><trkpt lat="44.16256" lon="8.1165733"><ele>906.0</ele><time>2026-05-02T09:05:02.353Z</time></trkpt><trkpt lat="44.16253" lon="8.11675"><ele>904.5999999999999</ele><time>2026-05-02T09:05:03.353Z</time></trkpt><trkpt lat="44.162505" lon="8.1169"><ele>903.1999999999999</ele><time>2026-05-02T09:05:04.353Z</time></trkpt><trkpt lat="44.162505" lon="8.1170317"><ele>901.8000000000001</ele><time>2026-05-02T09:05:05.354Z</time></trkpt><trkpt lat="44.16251" lon="8.11716"><ele>900.4000000000001</ele><time>2026-05-02T09:05:06.351Z</time></trkpt><trkpt lat="44.162515" lon="8.117275"><ele>899.0</ele><time>2026-05-02T09:05:07.351Z</time></trkpt><trkpt lat="44.1624717" lon="8.1173517"><ele>899.0000000000001</ele><time>2026-05-02T09:05:09.351Z</time></trkpt><trkpt lat="44.1624133" lon="8.1173067"><ele>899.0</ele><time>2026-05-02T09:05:11.35Z</time></trkpt><trkpt lat="44.1623983" lon="8.1172133"><ele>899.0</ele><time>2026-05-02T09:05:14.35Z</time></trkpt><trkpt lat="44.1623583" lon="8.117105"><ele>899.0</ele><time>2026-05-02T09:05:17.349Z</time></trkpt><trkpt lat="44.16234" lon="8.1169983"><ele>899.0000000000001</ele><time>2026-05-02T09:05:19.353Z</time></trkpt><trkpt lat="44.1623567" lon="8.1168483"><ele>899.0</ele><time>2026-05-02T09:05:21.354Z</time></trkpt><trkpt lat="44.1623633" lon="8.11675"><ele>899.0000000000001</ele><time>2026-05-02T09:05:23.358Z</time></trkpt><trkpt lat="44.162345" lon="8.1168833"><ele>899.0</ele><time>2026-05-02T09:05:32.349Z</time></trkpt><trkpt lat="44.1623483" lon="8.117035"><ele>899.0</ele><time>2026-05-02T09:05:34.351Z</time></trkpt><trkpt lat="44.1623617" lon="8.1171217"><ele>899.0</ele><time>2026-05-02T09:05:35.356Z</time></trkpt><trkpt lat="44.1623983" lon="8.1172533"><ele>899.0000000000001</ele><time>2026-05-02T09:05:37.353Z</time></trkpt><trkpt lat="44.1623333" lon="8.1172383"><ele>899.0</ele><time>2026-05-02T09:19:25.35Z</time></trkpt><trkpt lat="44.1623333" lon="8.1171267"><ele>899.0000000000001</ele><time>2026-05-02T09:19:28.352Z</time></trkpt><trkpt lat="44.1623583" lon="8.1170283"><ele>899.0</ele><time>2026-05-02T09:19:30.353Z</time></trkpt><trkpt lat="44.1623667" lon="8.1168917"><ele>899.0</ele><time>2026-05-02T09:19:32.355Z</time></trkpt><trkpt lat="44.162365" lon="8.1167217"><ele>899.0</ele><time>2026-05-02T09:19:34.353Z</time></trkpt><trkpt lat="44.162365" lon="8.1166283"><ele>899.0000000000001</ele><time>2026-05-02T09:19:35.353Z</time></trkpt><trkpt lat="44.1623617" lon="8.1165367"><ele>899.0</ele><time>2026-05-02T09:19:36.352Z</time></trkpt><trkpt lat="44.162355" lon="8.1164417"><ele>895.1666666666667</ele><time>2026-05-02T09:19:37.352Z</time></trkpt><trkpt lat="44.16234" lon="8.1163483"><ele>891.3333333333334</ele><time>2026-05-02T09:19:38.351Z</time></trkpt><trkpt lat="44.1623167" lon="8.1162633"><ele>887.5</ele><time>2026-05-02T09:19:39.351Z</time></trkpt><trkpt lat="44.1622767" lon="8.11619"><ele>883.6666666666667</ele><time>2026-05-02T09:19:40.349Z</time></trkpt><trkpt lat="44.16219" lon="8.116055"><ele>879.8333333333334</ele><time>2026-05-02T09:19:42.355Z</time></trkpt><trkpt lat="44.1621317" lon="8.1159983"><ele>876.0</ele><time>2026-05-02T09:19:43.35Z</time></trkpt><trkpt lat="44.16207" lon="8.1159583"><ele>876.0</ele><time>2026-05-02T09:19:44.349Z</time></trkpt><trkpt lat="44.1619983" lon="8.1159283"><ele>876.0</ele><time>2026-05-02T09:19:45.351Z</time></trkpt><trkpt lat="44.1619283" lon="8.1158983"><ele>876.0</ele><time>2026-05-02T09:19:46.354Z</time></trkpt><trkpt lat="44.161865" lon="8.1158533"><ele>876.0</ele><time>2026-05-02T09:19:47.35Z</time></trkpt><trkpt lat="44.1618033" lon="8.1157933"><ele>876.0</ele><time>2026-05-02T09:19:48.353Z</time></trkpt><trkpt lat="44.1617467" lon="8.11571"><ele>876.0</ele><time>2026-05-02T09:19:49.35Z</time></trkpt><trkpt lat="44.161685" lon="8.1156317"><ele>877.6666666666666</ele><time>2026-05-02T09:19:50.35Z</time></trkpt><trkpt lat="44.1616217" lon="8.115545"><ele>879.3333333333333</ele><time>2026-05-02T09:19:51.35Z</time></trkpt><trkpt lat="44.1615717" lon="8.1154467"><ele>881.0</ele><time>2026-05-02T09:19:52.355Z</time></trkpt><trkpt lat="44.161535" lon="8.1153367"><ele>882.6666666666666</ele><time>2026-05-02T09:19:53.348Z</time></trkpt><trkpt lat="44.1615033" lon="8.1152317"><ele>884.3333333333333</ele><time>2026-05-02T09:19:54.352Z</time></trkpt><trkpt lat="44.161475" lon="8.1151467"><ele>886.0</ele><time>2026-05-02T09:19:55.353Z</time></trkpt><trkpt lat="44.1614117" lon="8.1150433"><ele>880.9999999999999</ele><time>2026-05-02T09:19:57.352Z</time></trkpt><trkpt lat="44.1613517" lon="8.115095"><ele>876.0</ele><time>2026-05-02T09:19:59.35Z</time></trkpt><trkpt lat="44.16133" lon="8.1151817"><ele>871.0</ele><time>2026-05-02T09:20:00.35Z</time></trkpt><trkpt lat="44.161315" lon="8.1152767"><ele>866.0</ele><time>2026-05-02T09:20:01.352Z</time></trkpt><trkpt lat="44.1612933" lon="8.1153817"><ele>860.9999999999999</ele><time>2026-05-02T09:20:02.351Z</time></trkpt><trkpt lat="44.161265" lon="8.1155"><ele>856.0</ele><time>2026-05-02T09:20:03.349Z</time></trkpt><trkpt lat="44.1612383" lon="8.1156233"><ele>855.3333333333333</ele><time>2026-05-02T09:20:04.35Z</time></trkpt><trkpt lat="44.1612283" lon="8.115745"><ele>854.6666666666666</ele><time>2026-05-02T09:20:05.353Z</time></trkpt><trkpt lat="44.1612383" lon="8.115865"><ele>854.0</ele><time>2026-05-02T09:20:06.352Z</time></trkpt><trkpt lat="44.1612617" lon="8.1159833"><ele>853.3333333333333</ele><time>2026-05-02T09:20:07.351Z</time></trkpt><trkpt lat="44.1613017" lon="8.1161017"><ele>852.6666666666666</ele><time>2026-05-02T09:20:08.35Z</time></trkpt><trkpt lat="44.16134" lon="8.1162183"><ele>852.0</ele><time>2026-05-02T09:20:09.35Z</time></trkpt><trkpt lat="44.1613817" lon="8.1163233"><ele>852.0</ele><time>2026-05-02T09:20:10.351Z</time></trkpt><trkpt lat="44.1614267" lon="8.116415"><ele>852.0</ele><time>2026-05-02T09:20:11.354Z</time></trkpt><trkpt lat="44.1614717" lon="8.11649"><ele>852.0</ele><time>2026-05-02T09:20:12.354Z</time></trkpt><trkpt lat="44.1615233" lon="8.1166133"><ele>852.0</ele><time>2026-05-02T09:20:14.35Z</time></trkpt><trkpt lat="44.161515" lon="8.1167417"><ele>852.0</ele><time>2026-05-02T09:20:16.351Z</time></trkpt><trkpt lat="44.16147" lon="8.1168617"><ele>852.0</ele><time>2026-05-02T09:20:18.35Z</time></trkpt><trkpt lat="44.1614117" lon="8.1169867"><ele>849.0</ele><time>2026-05-02T09:20:20.351Z</time></trkpt><trkpt lat="44.16136" lon="8.11711"><ele>846.0</ele><time>2026-05-02T09:20:22.35Z</time></trkpt><trkpt lat="44.1613333" lon="8.1172517"><ele>843.0</ele><time>2026-05-02T09:20:24.349Z</time></trkpt><trkpt lat="44.1613217" lon="8.1174183"><ele>840.0</ele><time>2026-05-02T09:20:26.35Z</time></trkpt><trkpt lat="44.1613" lon="8.117595"><ele>838.6666666666666</ele><time>2026-05-02T09:20:28.353Z</time></trkpt><trkpt lat="44.1612767" lon="8.1176867"><ele>837.3333333333333</ele><time>2026-05-02T09:20:29.35Z</time></trkpt><trkpt lat="44.1612483" lon="8.1177783"><ele>836.0</ele><time>2026-05-02T09:20:30.349Z</time></trkpt><trkpt lat="44.1612167" lon="8.1178633"><ele>834.6666666666666</ele><time>2026-05-02T09:20:31.352Z</time></trkpt><trkpt lat="44.161155" lon="8.11799"><ele>833.3333333333333</ele><time>2026-05-02T09:20:33.351Z</time></trkpt><trkpt lat="44.161125" lon="8.118075"><ele>832.0</ele><time>2026-05-02T09:20:35.35Z</time></trkpt><trkpt lat="44.161155" lon="8.1181633"><ele>832.0</ele><time>2026-05-02T09:20:38.353Z</time></trkpt><trkpt lat="44.161215" lon="8.1181267"><ele>832.0</ele><time>2026-05-02T09:20:41.349Z</time></trkpt><trkpt lat="44.161235" lon="8.11804"><ele>832.0</ele><time>2026-05-02T09:20:43.351Z</time></trkpt><trkpt lat="44.1612467" lon="8.1179133"><ele>832.0</ele><time>2026-05-02T09:20:45.354Z</time></trkpt><trkpt lat="44.1612717" lon="8.117755"><ele>832.0</ele><time>2026-05-02T09:20:47.349Z</time></trkpt><trkpt lat="44.1613033" lon="8.1175883"><ele>831.9999999999999</ele><time>2026-05-02T09:20:49.355Z</time></trkpt><trkpt lat="44.16132" lon="8.117495"><ele>832.0</ele><time>2026-05-02T09:20:50.351Z</time></trkpt><trkpt lat="44.1613333" lon="8.1174017"><ele>832.0</ele><time>2026-05-02T09:20:51.355Z</time></trkpt><trkpt lat="44.1613467" lon="8.117305"><ele>832.0</ele><time>2026-05-02T09:20:52.355Z</time></trkpt><trkpt lat="44.16136" lon="8.1172133"><ele>831.9999999999999</ele><time>2026-05-02T09:20:53.353Z</time></trkpt><trkpt lat="44.1613833" lon="8.1171267"><ele>832.0</ele><time>2026-05-02T09:20:54.349Z</time></trkpt><trkpt lat="44.1614517" lon="8.1169767"><ele>833.3333333333333</ele><time>2026-05-02T09:20:56.352Z</time></trkpt><trkpt lat="44.1614867" lon="8.1168983"><ele>834.6666666666666</ele><time>2026-05-02T09:20:57.352Z</time></trkpt><trkpt lat="44.1615117" lon="8.1168133"><ele>836.0</ele><time>2026-05-02T09:20:58.349Z</time></trkpt><trkpt lat="44.161535" lon="8.1167317"><ele>837.3333333333333</ele><time>2026-05-02T09:20:59.353Z</time></trkpt><trkpt lat="44.1615417" lon="8.1165767"><ele>838.6666666666666</ele><time>2026-05-02T09:21:01.352Z</time></trkpt><trkpt lat="44.16149" lon="8.1164517"><ele>840.0</ele><time>2026-05-02T09:21:03.352Z</time></trkpt><trkpt lat="44.1614033" lon="8.116335"><ele>842.0</ele><time>2026-05-02T09:21:05.353Z</time></trkpt><trkpt lat="44.1613617" lon="8.1162633"><ele>844.0</ele><time>2026-05-02T09:21:06.35Z</time></trkpt><trkpt lat="44.1613217" lon="8.116195"><ele>846.0</ele><time>2026-05-02T09:21:07.353Z</time></trkpt><trkpt lat="44.1612483" lon="8.1160817"><ele>848.0</ele><time>2026-05-02T09:21:09.352Z</time></trkpt><trkpt lat="44.161205" lon="8.1159967"><ele>850.0</ele><time>2026-05-02T09:21:11.35Z</time></trkpt><trkpt lat="44.1611717" lon="8.115915"><ele>852.0</ele><time>2026-05-02T09:21:14.349Z</time></trkpt><trkpt lat="44.16112" lon="8.11579"><ele>852.8</ele><time>2026-05-02T09:21:31.352Z</time></trkpt><trkpt lat="44.161085" lon="8.1156533"><ele>853.6</ele><time>2026-05-02T09:21:33.351Z</time></trkpt><trkpt lat="44.16108" lon="8.1154967"><ele>854.3999999999999</ele><time>2026-05-02T09:21:35.349Z</time></trkpt><trkpt lat="44.161095" lon="8.1153333"><ele>855.1999999999999</ele><time>2026-05-02T09:21:37.35Z</time></trkpt><trkpt lat="44.1610783" lon="8.1151867"><ele>856.0</ele><time>2026-05-02T09:21:39.353Z</time></trkpt><trkpt lat="44.1610483" lon="8.115105"><ele>855.9999999999999</ele><time>2026-05-02T09:21:40.355Z</time></trkpt><trkpt lat="44.1610133" lon="8.1150267"><ele>856.0</ele><time>2026-05-02T09:21:41.35Z</time></trkpt><trkpt lat="44.1609683" lon="8.1149467"><ele>856.0</ele><time>2026-05-02T09:21:42.355Z</time></trkpt><trkpt lat="44.1609183" lon="8.1148733"><ele>856.0</ele><time>2026-05-02T09:21:43.351Z</time></trkpt><trkpt lat="44.1608683" lon="8.1148083"><ele>855.9999999999999</ele><time>2026-05-02T09:21:44.352Z</time></trkpt><trkpt lat="44.1608217" lon="8.1147483"><ele>856.0</ele><time>2026-05-02T09:21:45.357Z</time></trkpt><trkpt lat="44.1607583" lon="8.1146233"><ele>856.8</ele><time>2026-05-02T09:21:47.361Z</time></trkpt><trkpt lat="44.160735" lon="8.114495"><ele>857.5999999999999</ele><time>2026-05-02T09:21:49.352Z</time></trkpt><trkpt lat="44.160725" lon="8.11434"><ele>858.4</ele><time>2026-05-02T09:21:51.351Z</time></trkpt><trkpt lat="44.160695" lon="8.1141983"><ele>859.2</ele><time>2026-05-02T09:21:53.352Z</time></trkpt><trkpt lat="44.1606517" lon="8.1141017"><ele>860.0</ele><time>2026-05-02T09:21:55.355Z</time></trkpt><trkpt lat="44.16058" lon="8.1140583"><ele>855.8333333333334</ele><time>2026-05-02T09:21:57.357Z</time></trkpt><trkpt lat="44.1605183" lon="8.114015"><ele>851.6666666666667</ele><time>2026-05-02T09:21:58.354Z</time></trkpt><trkpt lat="44.160435" lon="8.11398"><ele>847.5</ele><time>2026-05-02T09:21:59.351Z</time></trkpt><trkpt lat="44.1603583" lon="8.1139333"><ele>843.3333333333333</ele><time>2026-05-02T09:22:00.352Z</time></trkpt><trkpt lat="44.1602817" lon="8.1138983"><ele>839.1666666666666</ele><time>2026-05-02T09:22:01.353Z</time></trkpt><trkpt lat="44.1601983" lon="8.113875"><ele>835.0</ele><time>2026-05-02T09:22:02.355Z</time></trkpt><trkpt lat="44.1601267" lon="8.113865"><ele>834.9999999999999</ele><time>2026-05-02T09:22:03.359Z</time></trkpt><trkpt lat="44.1600583" lon="8.1138617"><ele>835.0</ele><time>2026-05-02T09:22:04.352Z</time></trkpt><trkpt lat="44.15994" lon="8.11386"><ele>835.0</ele><time>2026-05-02T09:22:06.353Z</time></trkpt><trkpt lat="44.1598583" lon="8.11381"><ele>835.0</ele><time>2026-05-02T09:22:08.35Z</time></trkpt><trkpt lat="44.1598317" lon="8.1137233"><ele>834.9999999999999</ele><time>2026-05-02T09:22:10.35Z</time></trkpt><trkpt lat="44.15989" lon="8.11366"><ele>835.0</ele><time>2026-05-02T09:22:12.35Z</time></trkpt><trkpt lat="44.1599817" lon="8.113625"><ele>835.0</ele><time>2026-05-02T09:22:14.353Z</time></trkpt><trkpt lat="44.1600817" lon="8.1135867"><ele>835.0</ele><time>2026-05-02T09:22:16.354Z</time></trkpt><trkpt lat="44.1601733" lon="8.113525"><ele>835.0</ele><time>2026-05-02T09:22:18.349Z</time></trkpt><trkpt lat="44.1602717" lon="8.1134817"><ele>835.0</ele><time>2026-05-02T09:22:20.35Z</time></trkpt><trkpt lat="44.160355" lon="8.113435"><ele>835.0</ele><time>2026-05-02T09:22:22.354Z</time></trkpt><trkpt lat="44.1604467" lon="8.113355"><ele>834.9999999999999</ele><time>2026-05-02T09:22:24.352Z</time></trkpt><trkpt lat="44.1605533" lon="8.1132717"><ele>835.0</ele><time>2026-05-02T09:22:26.352Z</time></trkpt><trkpt lat="44.1606117" lon="8.113225"><ele>835.0</ele><time>2026-05-02T09:22:27.351Z</time></trkpt><trkpt lat="44.160665" lon="8.11317"><ele>835.0</ele><time>2026-05-02T09:22:28.35Z</time></trkpt><trkpt lat="44.1607267" lon="8.1131167"><ele>834.9999999999999</ele><time>2026-05-02T09:22:29.351Z</time></trkpt><trkpt lat="44.1608283" lon="8.1130317"><ele>835.0</ele><time>2026-05-02T09:22:31.355Z</time></trkpt><trkpt lat="44.1609083" lon="8.1129283"><ele>835.2</ele><time>2026-05-02T09:22:33.353Z</time></trkpt><trkpt lat="44.1609933" lon="8.1128117"><ele>835.4</ele><time>2026-05-02T09:22:35.351Z</time></trkpt><trkpt lat="44.1610483" lon="8.1127417"><ele>835.5999999999999</ele><time>2026-05-02T09:22:36.354Z</time></trkpt><trkpt lat="44.161095" lon="8.1126633"><ele>835.8</ele><time>2026-05-02T09:22:37.353Z</time></trkpt><trkpt lat="44.16115" lon="8.112515"><ele>836.0</ele><time>2026-05-02T09:22:39.354Z</time></trkpt><trkpt lat="44.1611517" lon="8.1123667"><ele>836.0</ele><time>2026-05-02T09:22:41.358Z</time></trkpt><trkpt lat="44.1611367" lon="8.1122767"><ele>836.0</ele><time>2026-05-02T09:22:42.353Z</time></trkpt><trkpt lat="44.161115" lon="8.1121833"><ele>836.0</ele><time>2026-05-02T09:22:43.351Z</time></trkpt><trkpt lat="44.1610867" lon="8.112095"><ele>836.0</ele><time>2026-05-02T09:22:44.358Z</time></trkpt><trkpt lat="44.16105" lon="8.11202"><ele>836.0</ele><time>2026-05-02T09:22:45.35Z</time></trkpt><trkpt lat="44.1610117" lon="8.1119483"><ele>836.0</ele><time>2026-05-02T09:22:46.353Z</time></trkpt><trkpt lat="44.1609633" lon="8.1118167"><ele>836.0</ele><time>2026-05-02T09:22:48.352Z</time></trkpt><trkpt lat="44.1609683" lon="8.1116833"><ele>834.2857142857142</ele><time>2026-05-02T09:22:50.358Z</time></trkpt><trkpt lat="44.1610133" lon="8.111545"><ele>832.5714285714286</ele><time>2026-05-02T09:22:52.353Z</time></trkpt><trkpt lat="44.1610467" lon="8.11147"><ele>830.8571428571429</ele><time>2026-05-02T09:22:53.351Z</time></trkpt><trkpt lat="44.161085" lon="8.1113967"><ele>829.1428571428571</ele><time>2026-05-02T09:22:54.352Z</time></trkpt><trkpt lat="44.16112" lon="8.1113167"><ele>827.4285714285714</ele><time>2026-05-02T09:22:55.351Z</time></trkpt><trkpt lat="44.1611583" lon="8.1112367"><ele>825.7142857142857</ele><time>2026-05-02T09:22:56.351Z</time></trkpt><trkpt lat="44.1612" lon="8.111155"><ele>824.0</ele><time>2026-05-02T09:22:57.352Z</time></trkpt><trkpt lat="44.1612483" lon="8.1110733"><ele>824.0</ele><time>2026-05-02T09:22:58.36Z</time></trkpt><trkpt lat="44.1612983" lon="8.1110067"><ele>824.0</ele><time>2026-05-02T09:22:59.351Z</time></trkpt><trkpt lat="44.1613817" lon="8.1108983"><ele>824.0</ele><time>2026-05-02T09:23:01.352Z</time></trkpt><trkpt lat="44.16146" lon="8.1108"><ele>824.0</ele><time>2026-05-02T09:23:03.354Z</time></trkpt><trkpt lat="44.1615467" lon="8.1107233"><ele>824.0</ele><time>2026-05-02T09:23:05.358Z</time></trkpt><trkpt lat="44.1616417" lon="8.1106917"><ele>824.1666666666667</ele><time>2026-05-02T09:23:07.352Z</time></trkpt><trkpt lat="44.16171" lon="8.1106417"><ele>824.3333333333334</ele><time>2026-05-02T09:23:09.356Z</time></trkpt><trkpt lat="44.1616833" lon="8.1105333"><ele>824.5</ele><time>2026-05-02T09:23:12.35Z</time></trkpt><trkpt lat="44.161575" lon="8.110575"><ele>824.6666666666667</ele><time>2026-05-02T09:23:14.353Z</time></trkpt><trkpt lat="44.1615133" lon="8.1106017"><ele>824.8333333333334</ele><time>2026-05-02T09:23:15.352Z</time></trkpt><trkpt lat="44.1614467" lon="8.1106183"><ele>825.0</ele><time>2026-05-02T09:23:16.354Z</time></trkpt><trkpt lat="44.1613817" lon="8.11062"><ele>822.2</ele><time>2026-05-02T09:23:17.355Z</time></trkpt><trkpt lat="44.1612783" lon="8.1106083"><ele>819.4</ele><time>2026-05-02T09:23:19.356Z</time></trkpt><trkpt lat="44.1611867" lon="8.1106183"><ele>816.5999999999999</ele><time>2026-05-02T09:23:21.351Z</time></trkpt><trkpt lat="44.1610817" lon="8.1106167"><ele>813.8</ele><time>2026-05-02T09:23:23.359Z</time></trkpt><trkpt lat="44.1609683" lon="8.1106083"><ele>811.0</ele><time>2026-05-02T09:23:25.351Z</time></trkpt><trkpt lat="44.16085" lon="8.1106117"><ele>811.0</ele><time>2026-05-02T09:23:27.35Z</time></trkpt><trkpt lat="44.1607883" lon="8.1106417"><ele>811.0</ele><time>2026-05-02T09:23:28.352Z</time></trkpt><trkpt lat="44.1607233" lon="8.1106767"><ele>811.0</ele><time>2026-05-02T09:23:29.352Z</time></trkpt><trkpt lat="44.1606533" lon="8.1107083"><ele>811.0</ele><time>2026-05-02T09:23:30.35Z</time></trkpt><trkpt lat="44.1605867" lon="8.11074"><ele>811.0</ele><time>2026-05-02T09:23:31.351Z</time></trkpt><trkpt lat="44.1605183" lon="8.1107817"><ele>811.0</ele><time>2026-05-02T09:23:32.353Z</time></trkpt><trkpt lat="44.16045" lon="8.1108183"><ele>811.0</ele><time>2026-05-02T09:23:33.352Z</time></trkpt><trkpt lat="44.1603883" lon="8.1108933"><ele>810.6666666666666</ele><time>2026-05-02T09:23:34.351Z</time></trkpt><trkpt lat="44.16034" lon="8.11097"><ele>810.3333333333333</ele><time>2026-05-02T09:23:35.349Z</time></trkpt><trkpt lat="44.1603033" lon="8.1110517"><ele>810.0</ele><time>2026-05-02T09:23:36.352Z</time></trkpt><trkpt lat="44.1602683" lon="8.1111367"><ele>809.6666666666667</ele><time>2026-05-02T09:23:37.351Z</time></trkpt><trkpt lat="44.1602267" lon="8.1112183"><ele>809.3333333333334</ele><time>2026-05-02T09:23:38.35Z</time></trkpt><trkpt lat="44.16018" lon="8.1112883"><ele>809.0</ele><time>2026-05-02T09:23:39.352Z</time></trkpt><trkpt lat="44.1600817" lon="8.1113867"><ele>809.0</ele><time>2026-05-02T09:23:41.351Z</time></trkpt><trkpt lat="44.15998" lon="8.1114167"><ele>809.0</ele><time>2026-05-02T09:23:43.353Z</time></trkpt><trkpt lat="44.159885" lon="8.1114383"><ele>809.0</ele><time>2026-05-02T09:23:45.356Z</time></trkpt><trkpt lat="44.1598167" lon="8.111495"><ele>809.0</ele><time>2026-05-02T09:23:47.353Z</time></trkpt><trkpt lat="44.1597367" lon="8.1115583"><ele>809.0</ele><time>2026-05-02T09:23:49.36Z</time></trkpt><trkpt lat="44.1596333" lon="8.111595"><ele>805.8000000000001</ele><time>2026-05-02T09:23:51.36Z</time></trkpt><trkpt lat="44.1595483" lon="8.1115417"><ele>802.6</ele><time>2026-05-02T09:23:53.353Z</time></trkpt><trkpt lat="44.1595" lon="8.111415"><ele>799.4</ele><time>2026-05-02T09:23:55.359Z</time></trkpt><trkpt lat="44.1594867" lon="8.11125"><ele>796.2</ele><time>2026-05-02T09:23:57.352Z</time></trkpt><trkpt lat="44.159445" lon="8.1111383"><ele>793.0</ele><time>2026-05-02T09:23:59.348Z</time></trkpt><trkpt lat="44.1593783" lon="8.1110633"><ele>793.0</ele><time>2026-05-02T09:24:01.35Z</time></trkpt><trkpt lat="44.159285" lon="8.11104"><ele>793.0</ele><time>2026-05-02T09:24:03.353Z</time></trkpt><trkpt lat="44.1591867" lon="8.111005"><ele>793.0</ele><time>2026-05-02T09:24:05.353Z</time></trkpt><trkpt lat="44.159095" lon="8.1109467"><ele>793.0</ele><time>2026-05-02T09:24:07.351Z</time></trkpt><trkpt lat="44.1589983" lon="8.1109267"><ele>793.0</ele><time>2026-05-02T09:24:09.349Z</time></trkpt><trkpt lat="44.1589033" lon="8.11099"><ele>792.9999999999999</ele><time>2026-05-02T09:24:11.349Z</time></trkpt><trkpt lat="44.1588683" lon="8.1111"><ele>793.0</ele><time>2026-05-02T09:24:13.351Z</time></trkpt><trkpt lat="44.1589133" lon="8.1111983"><ele>793.0</ele><time>2026-05-02T09:24:15.352Z</time></trkpt><trkpt lat="44.1589833" lon="8.1113133"><ele>793.0</ele><time>2026-05-02T09:24:17.353Z</time></trkpt><trkpt lat="44.1590267" lon="8.1113817"><ele>792.9999999999999</ele><time>2026-05-02T09:24:18.349Z</time></trkpt><trkpt lat="44.15907" lon="8.1114567"><ele>793.0</ele><time>2026-05-02T09:24:19.357Z</time></trkpt><trkpt lat="44.1591333" lon="8.1115967"><ele>793.2</ele><time>2026-05-02T09:24:21.349Z</time></trkpt><trkpt lat="44.1592" lon="8.1117033"><ele>793.4</ele><time>2026-05-02T09:24:23.348Z</time></trkpt><trkpt lat="44.1592317" lon="8.1118"><ele>793.6</ele><time>2026-05-02T09:24:25.349Z</time></trkpt><trkpt lat="44.15916" lon="8.11184"><ele>793.8000000000001</ele><time>2026-05-02T09:24:28.349Z</time></trkpt><trkpt lat="44.1590683" lon="8.1117867"><ele>794.0</ele><time>2026-05-02T09:24:30.35Z</time></trkpt><trkpt lat="44.1589533" lon="8.11173"><ele>791.0000000000001</ele><time>2026-05-02T09:24:32.349Z</time></trkpt><trkpt lat="44.15889" lon="8.1116883"><ele>788.0</ele><time>2026-05-02T09:24:33.351Z</time></trkpt><trkpt lat="44.1588333" lon="8.11164"><ele>785.0</ele><time>2026-05-02T09:24:34.35Z</time></trkpt><trkpt lat="44.1587783" lon="8.1115917"><ele>782.0</ele><time>2026-05-02T09:24:35.355Z</time></trkpt><trkpt lat="44.1586667" lon="8.111535"><ele>779.0000000000001</ele><time>2026-05-02T09:24:37.349Z</time></trkpt><trkpt lat="44.1585583" lon="8.1115117"><ele>776.0</ele><time>2026-05-02T09:24:39.351Z</time></trkpt><trkpt lat="44.1584617" lon="8.1114617"><ele>776.0</ele><time>2026-05-02T09:24:41.352Z</time></trkpt><trkpt lat="44.158375" lon="8.1113817"><ele>776.0</ele><time>2026-05-02T09:24:43.35Z</time></trkpt><trkpt lat="44.1582783" lon="8.1112933"><ele>776.0</ele><time>2026-05-02T09:24:45.349Z</time></trkpt><trkpt lat="44.1581817" lon="8.1112367"><ele>776.0</ele><time>2026-05-02T09:24:47.348Z</time></trkpt><trkpt lat="44.1581183" lon="8.1112117"><ele>776.0</ele><time>2026-05-02T09:24:48.349Z</time></trkpt><trkpt lat="44.1580533" lon="8.1111767"><ele>770.5000000000001</ele><time>2026-05-02T09:24:49.351Z</time></trkpt><trkpt lat="44.1579983" lon="8.11113"><ele>765.0</ele><time>2026-05-02T09:24:50.35Z</time></trkpt><trkpt lat="44.1579467" lon="8.1110617"><ele>759.5</ele><time>2026-05-02T09:24:51.35Z</time></trkpt><trkpt lat="44.1578767" lon="8.11092"><ele>754.0</ele><time>2026-05-02T09:24:53.348Z</time></trkpt><trkpt lat="44.157835" lon="8.1108383"><ele>748.5</ele><time>2026-05-02T09:24:54.351Z</time></trkpt><trkpt lat="44.1578033" lon="8.110755"><ele>743.0</ele><time>2026-05-02T09:24:55.352Z</time></trkpt><trkpt lat="44.1577917" lon="8.1105917"><ele>740.8333333333333</ele><time>2026-05-02T09:24:57.352Z</time></trkpt><trkpt lat="44.1578433" lon="8.110465"><ele>738.6666666666666</ele><time>2026-05-02T09:24:59.354Z</time></trkpt><trkpt lat="44.15795" lon="8.110375"><ele>736.5</ele><time>2026-05-02T09:25:01.352Z</time></trkpt><trkpt lat="44.1580133" lon="8.1103333"><ele>734.3333333333334</ele><time>2026-05-02T09:25:02.349Z</time></trkpt><trkpt lat="44.1580767" lon="8.1102933"><ele>732.1666666666667</ele><time>2026-05-02T09:25:03.349Z</time></trkpt><trkpt lat="44.1581417" lon="8.110255"><ele>730.0</ele><time>2026-05-02T09:25:04.349Z</time></trkpt><trkpt lat="44.15821" lon="8.1102133"><ele>734.6666666666667</ele><time>2026-05-02T09:25:05.348Z</time></trkpt><trkpt lat="44.15828" lon="8.1101683"><ele>739.3333333333334</ele><time>2026-05-02T09:25:06.353Z</time></trkpt><trkpt lat="44.1583517" lon="8.1101317"><ele>744.0</ele><time>2026-05-02T09:25:07.351Z</time></trkpt><trkpt lat="44.15842" lon="8.1100967"><ele>748.6666666666666</ele><time>2026-05-02T09:25:08.349Z</time></trkpt><trkpt lat="44.15849" lon="8.1100567"><ele>753.3333333333333</ele><time>2026-05-02T09:25:09.351Z</time></trkpt><trkpt lat="44.15856" lon="8.110025"><ele>758.0</ele><time>2026-05-02T09:25:10.348Z</time></trkpt><trkpt lat="44.1586767" lon="8.1099683"><ele>757.0</ele><time>2026-05-02T09:25:12.354Z</time></trkpt><trkpt lat="44.1587867" lon="8.1098983"><ele>756.0</ele><time>2026-05-02T09:25:14.349Z</time></trkpt><trkpt lat="44.1589033" lon="8.1098267"><ele>755.0</ele><time>2026-05-02T09:25:16.356Z</time></trkpt><trkpt lat="44.1589683" lon="8.1097867"><ele>754.0</ele><time>2026-05-02T09:25:17.349Z</time></trkpt><trkpt lat="44.1590383" lon="8.109745"><ele>753.0</ele><time>2026-05-02T09:25:18.349Z</time></trkpt><trkpt lat="44.1591083" lon="8.1097033"><ele>753.0</ele><time>2026-05-02T09:25:19.354Z</time></trkpt><trkpt lat="44.1591733" lon="8.1096633"><ele>753.0</ele><time>2026-05-02T09:25:20.354Z</time></trkpt><trkpt lat="44.1592317" lon="8.1096233"><ele>753.0</ele><time>2026-05-02T09:25:21.349Z</time></trkpt><trkpt lat="44.159295" lon="8.1095833"><ele>753.0</ele><time>2026-05-02T09:25:22.353Z</time></trkpt><trkpt lat="44.1593983" lon="8.1094917"><ele>753.0</ele><time>2026-05-02T09:25:24.352Z</time></trkpt><trkpt lat="44.159475" lon="8.109365"><ele>753.0</ele><time>2026-05-02T09:25:26.359Z</time></trkpt><trkpt lat="44.1595067" lon="8.1092867"><ele>753.0</ele><time>2026-05-02T09:25:27.352Z</time></trkpt><trkpt lat="44.1595317" lon="8.1092"><ele>753.0</ele><time>2026-05-02T09:25:28.356Z</time></trkpt><trkpt lat="44.1595767" lon="8.10905"><ele>753.0</ele><time>2026-05-02T09:25:30.349Z</time></trkpt><trkpt lat="44.1596467" lon="8.1088983"><ele>753.0</ele><time>2026-05-02T09:25:32.35Z</time></trkpt><trkpt lat="44.1596867" lon="8.10882"><ele>753.0</ele><time>2026-05-02T09:25:33.349Z</time></trkpt><trkpt lat="44.1597333" lon="8.1087417"><ele>752.3333333333334</ele><time>2026-05-02T09:25:34.352Z</time></trkpt><trkpt lat="44.15978" lon="8.1086717"><ele>751.6666666666666</ele><time>2026-05-02T09:25:35.353Z</time></trkpt><trkpt lat="44.1598367" lon="8.1086167"><ele>751.0</ele><time>2026-05-02T09:25:36.348Z</time></trkpt><trkpt lat="44.15989" lon="8.1085683"><ele>750.3333333333333</ele><time>2026-05-02T09:25:37.356Z</time></trkpt><trkpt lat="44.1599917" lon="8.1084967"><ele>749.6666666666666</ele><time>2026-05-02T09:25:39.35Z</time></trkpt><trkpt lat="44.160045" lon="8.1084483"><ele>749.0</ele><time>2026-05-02T09:25:40.349Z</time></trkpt><trkpt lat="44.160135" lon="8.1083783"><ele>749.0</ele><time>2026-05-02T09:25:42.348Z</time></trkpt><trkpt lat="44.1602333" lon="8.1083667"><ele>749.0</ele><time>2026-05-02T09:25:44.349Z</time></trkpt><trkpt lat="44.1603183" lon="8.108375"><ele>749.0</ele><time>2026-05-02T09:25:46.348Z</time></trkpt><trkpt lat="44.1603983" lon="8.1083783"><ele>749.0</ele><time>2026-05-02T09:25:48.35Z</time></trkpt><trkpt lat="44.1604783" lon="8.1083833"><ele>749.0</ele><time>2026-05-02T09:25:50.349Z</time></trkpt><trkpt lat="44.1605717" lon="8.1083467"><ele>749.0</ele><time>2026-05-02T09:25:52.351Z</time></trkpt><trkpt lat="44.1606567" lon="8.10824"><ele>745.2</ele><time>2026-05-02T09:25:54.349Z</time></trkpt><trkpt lat="44.1607333" lon="8.1081383"><ele>741.4000000000001</ele><time>2026-05-02T09:25:56.349Z</time></trkpt><trkpt lat="44.1607783" lon="8.1080267"><ele>737.6</ele><time>2026-05-02T09:25:58.349Z</time></trkpt><trkpt lat="44.1608433" lon="8.1079117"><ele>733.8</ele><time>2026-05-02T09:26:00.351Z</time></trkpt><trkpt lat="44.1609267" lon="8.1078217"><ele>730.0</ele><time>2026-05-02T09:26:02.353Z</time></trkpt><trkpt lat="44.1610383" lon="8.1077667"><ele>730.0</ele><time>2026-05-02T09:26:04.354Z</time></trkpt><trkpt lat="44.1611483" lon="8.1077683"><ele>730.0</ele><time>2026-05-02T09:26:06.352Z</time></trkpt><trkpt lat="44.1612533" lon="8.107775"><ele>730.0</ele><time>2026-05-02T09:26:08.351Z</time></trkpt><trkpt lat="44.1613483" lon="8.10773"><ele>730.0</ele><time>2026-05-02T09:26:10.351Z</time></trkpt><trkpt lat="44.1614283" lon="8.1076533"><ele>730.0</ele><time>2026-05-02T09:26:12.349Z</time></trkpt><trkpt lat="44.1615067" lon="8.1075583"><ele>728.0</ele><time>2026-05-02T09:26:14.348Z</time></trkpt><trkpt lat="44.1615667" lon="8.1074183"><ele>726.0</ele><time>2026-05-02T09:26:16.354Z</time></trkpt><trkpt lat="44.16157" lon="8.1072533"><ele>724.0</ele><time>2026-05-02T09:26:18.351Z</time></trkpt><trkpt lat="44.1615467" lon="8.1071033"><ele>722.0</ele><time>2026-05-02T09:26:20.348Z</time></trkpt><trkpt lat="44.1615183" lon="8.1069483"><ele>722.0</ele><time>2026-05-02T09:26:22.35Z</time></trkpt><trkpt lat="44.161495" lon="8.10678"><ele>722.0</ele><time>2026-05-02T09:26:24.35Z</time></trkpt><trkpt lat="44.161495" lon="8.1066283"><ele>722.0</ele><time>2026-05-02T09:26:26.352Z</time></trkpt><trkpt lat="44.1615017" lon="8.1065"><ele>722.0</ele><time>2026-05-02T09:26:28.353Z</time></trkpt><trkpt lat="44.16147" lon="8.1063883"><ele>722.0</ele><time>2026-05-02T09:26:30.351Z</time></trkpt><trkpt lat="44.161405" lon="8.10636"><ele>722.0</ele><time>2026-05-02T09:26:32.349Z</time></trkpt><trkpt lat="44.16131" lon="8.1064383"><ele>722.0</ele><time>2026-05-02T09:26:34.348Z</time></trkpt><trkpt lat="44.1612433" lon="8.10658"><ele>722.0</ele><time>2026-05-02T09:26:36.35Z</time></trkpt><trkpt lat="44.1611683" lon="8.106675"><ele>722.0</ele><time>2026-05-02T09:26:38.351Z</time></trkpt><trkpt lat="44.161065" lon="8.1067317"><ele>722.0</ele><time>2026-05-02T09:26:40.351Z</time></trkpt><trkpt lat="44.1609467" lon="8.106755"><ele>722.0</ele><time>2026-05-02T09:26:42.351Z</time></trkpt><trkpt lat="44.1608833" lon="8.10675"><ele>722.0</ele><time>2026-05-02T09:26:43.348Z</time></trkpt><trkpt lat="44.1608183" lon="8.1067383"><ele>722.0</ele><time>2026-05-02T09:26:44.351Z</time></trkpt><trkpt lat="44.1607233" lon="8.1066667"><ele>722.0</ele><time>2026-05-02T09:26:46.355Z</time></trkpt><trkpt lat="44.16068" lon="8.106535"><ele>722.0</ele><time>2026-05-02T09:26:48.353Z</time></trkpt><trkpt lat="44.160635" lon="8.106385"><ele>718.2</ele><time>2026-05-02T09:26:50.351Z</time></trkpt><trkpt lat="44.16057" lon="8.1062383"><ele>714.4000000000001</ele><time>2026-05-02T09:26:52.353Z</time></trkpt><trkpt lat="44.1605383" lon="8.1061583"><ele>710.5999999999999</ele><time>2026-05-02T09:26:53.354Z</time></trkpt><trkpt lat="44.160505" lon="8.1060817"><ele>706.8</ele><time>2026-05-02T09:26:54.35Z</time></trkpt><trkpt lat="44.1604367" lon="8.1059367"><ele>703.0</ele><time>2026-05-02T09:26:56.353Z</time></trkpt><trkpt lat="44.160355" lon="8.10581"><ele>705.3333333333334</ele><time>2026-05-02T09:26:58.351Z</time></trkpt><trkpt lat="44.16026" lon="8.1057067"><ele>707.6666666666667</ele><time>2026-05-02T09:27:00.353Z</time></trkpt><trkpt lat="44.1602" lon="8.1056567"><ele>710.0</ele><time>2026-05-02T09:27:01.35Z</time></trkpt><trkpt lat="44.160135" lon="8.1056083"><ele>712.3333333333334</ele><time>2026-05-02T09:27:02.362Z</time></trkpt><trkpt lat="44.160065" lon="8.1055767"><ele>714.6666666666666</ele><time>2026-05-02T09:27:03.351Z</time></trkpt><trkpt lat="44.1599967" lon="8.105545"><ele>717.0</ele><time>2026-05-02T09:27:04.353Z</time></trkpt><trkpt lat="44.15993" lon="8.1055233"><ele>713.1666666666666</ele><time>2026-05-02T09:27:05.354Z</time></trkpt><trkpt lat="44.1598667" lon="8.105505"><ele>709.3333333333334</ele><time>2026-05-02T09:27:06.35Z</time></trkpt><trkpt lat="44.159745" lon="8.10547"><ele>705.5</ele><time>2026-05-02T09:27:08.35Z</time></trkpt><trkpt lat="44.1596733" lon="8.1054617"><ele>701.6666666666667</ele><time>2026-05-02T09:27:09.351Z</time></trkpt><trkpt lat="44.1596033" lon="8.1054567"><ele>697.8333333333334</ele><time>2026-05-02T09:27:10.352Z</time></trkpt><trkpt lat="44.1595367" lon="8.1054633"><ele>694.0</ele><time>2026-05-02T09:27:11.353Z</time></trkpt><trkpt lat="44.15947" lon="8.1054683"><ele>694.0</ele><time>2026-05-02T09:27:12.35Z</time></trkpt><trkpt lat="44.1593483" lon="8.105435"><ele>694.0</ele><time>2026-05-02T09:27:14.352Z</time></trkpt><trkpt lat="44.1592433" lon="8.10536"><ele>694.0</ele><time>2026-05-02T09:27:16.361Z</time></trkpt><trkpt lat="44.159165" lon="8.1052667"><ele>694.0</ele><time>2026-05-02T09:27:18.351Z</time></trkpt><trkpt lat="44.159115" lon="8.1051383"><ele>694.0</ele><time>2026-05-02T09:27:20.351Z</time></trkpt><trkpt lat="44.1590783" lon="8.1049983"><ele>694.0</ele><time>2026-05-02T09:27:22.353Z</time></trkpt><trkpt lat="44.1590317" lon="8.1048433"><ele>694.0</ele><time>2026-05-02T09:27:24.354Z</time></trkpt><trkpt lat="44.159" lon="8.1047617"><ele>694.0</ele><time>2026-05-02T09:27:25.353Z</time></trkpt><trkpt lat="44.15896" lon="8.1046817"><ele>694.0</ele><time>2026-05-02T09:27:26.35Z</time></trkpt><trkpt lat="44.1589117" lon="8.10461"><ele>694.0</ele><time>2026-05-02T09:27:27.352Z</time></trkpt><trkpt lat="44.1588583" lon="8.1045367"><ele>689.3333333333334</ele><time>2026-05-02T09:27:28.354Z</time></trkpt><trkpt lat="44.158805" lon="8.1044683"><ele>684.6666666666667</ele><time>2026-05-02T09:27:29.355Z</time></trkpt><trkpt lat="44.158755" lon="8.104395"><ele>680.0</ele><time>2026-05-02T09:27:30.351Z</time></trkpt><trkpt lat="44.1587117" lon="8.104325"><ele>675.3333333333334</ele><time>2026-05-02T09:27:31.352Z</time></trkpt><trkpt lat="44.1586733" lon="8.1041517"><ele>670.6666666666666</ele><time>2026-05-02T09:27:33.352Z</time></trkpt><trkpt lat="44.1586917" lon="8.1040583"><ele>666.0</ele><time>2026-05-02T09:27:34.351Z</time></trkpt><trkpt lat="44.1587267" lon="8.103985"><ele>665.7142857142858</ele><time>2026-05-02T09:27:35.35Z</time></trkpt><trkpt lat="44.15878" lon="8.1039267"><ele>665.4285714285713</ele><time>2026-05-02T09:27:36.35Z</time></trkpt><trkpt lat="44.1588417" lon="8.103885"><ele>665.1428571428571</ele><time>2026-05-02T09:27:37.354Z</time></trkpt><trkpt lat="44.15891" lon="8.1038517"><ele>664.8571428571429</ele><time>2026-05-02T09:27:38.354Z</time></trkpt><trkpt lat="44.1589767" lon="8.1038267"><ele>664.5714285714287</ele><time>2026-05-02T09:27:39.349Z</time></trkpt><trkpt lat="44.1590417" lon="8.10381"><ele>664.2857142857142</ele><time>2026-05-02T09:27:40.356Z</time></trkpt><trkpt lat="44.1591067" lon="8.1038"><ele>664.0</ele><time>2026-05-02T09:27:41.349Z</time></trkpt><trkpt lat="44.159225" lon="8.103805"><ele>668.0</ele><time>2026-05-02T09:27:43.351Z</time></trkpt><trkpt lat="44.15933" lon="8.1037983"><ele>672.0</ele><time>2026-05-02T09:27:45.351Z</time></trkpt><trkpt lat="44.1594183" lon="8.10378"><ele>676.0</ele><time>2026-05-02T09:27:47.355Z</time></trkpt><trkpt lat="44.159515" lon="8.1037517"><ele>680.0</ele><time>2026-05-02T09:27:49.352Z</time></trkpt><trkpt lat="44.15959" lon="8.10368"><ele>684.0</ele><time>2026-05-02T09:27:51.351Z</time></trkpt><trkpt lat="44.1595983" lon="8.1035917"><ele>688.0</ele><time>2026-05-02T09:27:53.349Z</time></trkpt><trkpt lat="44.15954" lon="8.1034517"><ele>688.0</ele><time>2026-05-02T09:27:55.349Z</time></trkpt><trkpt lat="44.1594683" lon="8.10334"><ele>688.0</ele><time>2026-05-02T09:27:57.353Z</time></trkpt><trkpt lat="44.1593717" lon="8.1032517"><ele>688.0</ele><time>2026-05-02T09:27:59.35Z</time></trkpt><trkpt lat="44.159265" lon="8.103165"><ele>688.0</ele><time>2026-05-02T09:28:01.349Z</time></trkpt><trkpt lat="44.15921" lon="8.1031217"><ele>688.0</ele><time>2026-05-02T09:28:02.349Z</time></trkpt><trkpt lat="44.1591017" lon="8.1030383"><ele>687.0000000000001</ele><time>2026-05-02T09:28:04.352Z</time></trkpt><trkpt lat="44.159045" lon="8.1029933"><ele>686.0</ele><time>2026-05-02T09:28:05.35Z</time></trkpt><trkpt lat="44.1589883" lon="8.102945"><ele>685.0</ele><time>2026-05-02T09:28:06.353Z</time></trkpt><trkpt lat="44.1589183" lon="8.1029"><ele>684.0</ele><time>2026-05-02T09:28:07.352Z</time></trkpt><trkpt lat="44.158845" lon="8.1028583"><ele>683.0</ele><time>2026-05-02T09:28:08.349Z</time></trkpt><trkpt lat="44.1587683" lon="8.10283"><ele>682.0000000000001</ele><time>2026-05-02T09:28:09.351Z</time></trkpt><trkpt lat="44.1586967" lon="8.1028067"><ele>681.0</ele><time>2026-05-02T09:28:10.35Z</time></trkpt><trkpt lat="44.1586267" lon="8.1027783"><ele>681.0000000000001</ele><time>2026-05-02T09:28:11.351Z</time></trkpt><trkpt lat="44.1585583" lon="8.1027367"><ele>681.0</ele><time>2026-05-02T09:28:12.35Z</time></trkpt><trkpt lat="44.1584933" lon="8.102685"><ele>681.0</ele><time>2026-05-02T09:28:13.351Z</time></trkpt><trkpt lat="44.15843" lon="8.1026333"><ele>681.0</ele><time>2026-05-02T09:28:14.352Z</time></trkpt><trkpt lat="44.1583733" lon="8.1025833"><ele>681.0</ele><time>2026-05-02T09:28:15.352Z</time></trkpt><trkpt lat="44.1583217" lon="8.1025133"><ele>681.0000000000001</ele><time>2026-05-02T09:28:16.35Z</time></trkpt><trkpt lat="44.1582733" lon="8.10244"><ele>681.0</ele><time>2026-05-02T09:28:17.35Z</time></trkpt><trkpt lat="44.158235" lon="8.1023633"><ele>679.0</ele><time>2026-05-02T09:28:18.357Z</time></trkpt><trkpt lat="44.1581917" lon="8.1021867"><ele>677.0</ele><time>2026-05-02T09:28:20.354Z</time></trkpt><trkpt lat="44.15818" lon="8.1020933"><ele>675.0</ele><time>2026-05-02T09:28:21.352Z</time></trkpt><trkpt lat="44.1581733" lon="8.1019967"><ele>673.0</ele><time>2026-05-02T09:28:22.352Z</time></trkpt><trkpt lat="44.1581717" lon="8.1019033"><ele>671.0</ele><time>2026-05-02T09:28:23.351Z</time></trkpt><trkpt lat="44.1581717" lon="8.1018133"><ele>669.0</ele><time>2026-05-02T09:28:24.354Z</time></trkpt><trkpt lat="44.1581667" lon="8.10167"><ele>669.0</ele><time>2026-05-02T09:28:26.351Z</time></trkpt><trkpt lat="44.1581183" lon="8.1015883"><ele>669.0</ele><time>2026-05-02T09:28:30.355Z</time></trkpt><trkpt lat="44.1580417" lon="8.1015367"><ele>669.0</ele><time>2026-05-02T09:28:43.353Z</time></trkpt><trkpt lat="44.1580467" lon="8.10144"><ele>669.0</ele><time>2026-05-02T09:28:47.359Z</time></trkpt><trkpt lat="44.15806" lon="8.101335"><ele>669.0</ele><time>2026-05-02T09:28:51.354Z</time></trkpt><trkpt lat="44.1580167" lon="8.1012467"><ele>669.0</ele><time>2026-05-02T09:28:53.351Z</time></trkpt><trkpt lat="44.1579433" lon="8.1011683"><ele>671.0</ele><time>2026-05-02T09:28:55.351Z</time></trkpt><trkpt lat="44.15785" lon="8.1011367"><ele>673.0</ele><time>2026-05-02T09:28:57.354Z</time></trkpt><trkpt lat="44.1577367" lon="8.101155"><ele>675.0</ele><time>2026-05-02T09:28:59.351Z</time></trkpt><trkpt lat="44.1576717" lon="8.101185"><ele>677.0</ele><time>2026-05-02T09:29:00.353Z</time></trkpt><trkpt lat="44.1576017" lon="8.1012317"><ele>679.0</ele><time>2026-05-02T09:29:01.35Z</time></trkpt><trkpt lat="44.157535" lon="8.1012833"><ele>681.0</ele><time>2026-05-02T09:29:02.354Z</time></trkpt><trkpt lat="44.1574683" lon="8.101345"><ele>681.0</ele><time>2026-05-02T09:29:03.356Z</time></trkpt><trkpt lat="44.1574017" lon="8.1014117"><ele>681.0</ele><time>2026-05-02T09:29:04.356Z</time></trkpt><trkpt lat="44.1573383" lon="8.1014767"><ele>681.0</ele><time>2026-05-02T09:29:05.349Z</time></trkpt><trkpt lat="44.1572767" lon="8.10154"><ele>681.0</ele><time>2026-05-02T09:29:06.354Z</time></trkpt><trkpt lat="44.1572233" lon="8.1015967"><ele>681.0</ele><time>2026-05-02T09:29:07.349Z</time></trkpt><trkpt lat="44.1571533" lon="8.1017133"><ele>681.0</ele><time>2026-05-02T09:29:09.355Z</time></trkpt><trkpt lat="44.1571517" lon="8.1018633"><ele>678.5999999999999</ele><time>2026-05-02T09:29:11.355Z</time></trkpt><trkpt lat="44.1571683" lon="8.102035"><ele>676.2</ele><time>2026-05-02T09:29:13.351Z</time></trkpt><trkpt lat="44.1572117" lon="8.10219"><ele>673.8</ele><time>2026-05-02T09:29:15.356Z</time></trkpt><trkpt lat="44.1572967" lon="8.1023117"><ele>671.4000000000001</ele><time>2026-05-02T09:29:17.353Z</time></trkpt><trkpt lat="44.1573617" lon="8.1023617"><ele>669.0</ele><time>2026-05-02T09:29:18.351Z</time></trkpt><trkpt lat="44.1574333" lon="8.1024117"><ele>666.7142857142858</ele><time>2026-05-02T09:29:19.353Z</time></trkpt><trkpt lat="44.1575033" lon="8.1024567"><ele>664.4285714285714</ele><time>2026-05-02T09:29:20.353Z</time></trkpt><trkpt lat="44.157575" lon="8.1025083"><ele>662.1428571428571</ele><time>2026-05-02T09:29:21.356Z</time></trkpt><trkpt lat="44.1576333" lon="8.102575"><ele>659.8571428571429</ele><time>2026-05-02T09:29:22.351Z</time></trkpt><trkpt lat="44.15768" lon="8.102645"><ele>657.5714285714286</ele><time>2026-05-02T09:29:23.349Z</time></trkpt><trkpt lat="44.1577133" lon="8.1027233"><ele>655.2857142857143</ele><time>2026-05-02T09:29:24.354Z</time></trkpt><trkpt lat="44.1577383" lon="8.1028183"><ele>653.0</ele><time>2026-05-02T09:29:25.352Z</time></trkpt><trkpt lat="44.1577567" lon="8.102925"><ele>653.0</ele><time>2026-05-02T09:29:26.35Z</time></trkpt><trkpt lat="44.1577783" lon="8.1030417"><ele>653.0</ele><time>2026-05-02T09:29:27.351Z</time></trkpt><trkpt lat="44.157795" lon="8.1031667"><ele>653.0</ele><time>2026-05-02T09:29:28.356Z</time></trkpt><trkpt lat="44.1578217" lon="8.1033017"><ele>653.0</ele><time>2026-05-02T09:29:29.352Z</time></trkpt><trkpt lat="44.1578367" lon="8.10343"><ele>653.0</ele><time>2026-05-02T09:29:30.35Z</time></trkpt><trkpt lat="44.1578517" lon="8.1035483"><ele>650.0</ele><time>2026-05-02T09:29:31.349Z</time></trkpt><trkpt lat="44.1578517" lon="8.1036617"><ele>647.0</ele><time>2026-05-02T09:29:32.359Z</time></trkpt><trkpt lat="44.15783" lon="8.1037567"><ele>644.0</ele><time>2026-05-02T09:29:33.355Z</time></trkpt><trkpt lat="44.1577967" lon="8.1038433"><ele>641.0</ele><time>2026-05-02T09:29:34.353Z</time></trkpt><trkpt lat="44.1577683" lon="8.103935"><ele>638.0</ele><time>2026-05-02T09:29:35.349Z</time></trkpt><trkpt lat="44.1577517" lon="8.104045"><ele>635.0</ele><time>2026-05-02T09:29:36.352Z</time></trkpt><trkpt lat="44.157755" lon="8.10417"><ele>633.6</ele><time>2026-05-02T09:29:37.353Z</time></trkpt><trkpt lat="44.1577567" lon="8.104305"><ele>632.2</ele><time>2026-05-02T09:29:38.354Z</time></trkpt><trkpt lat="44.1577517" lon="8.1044367"><ele>630.8</ele><time>2026-05-02T09:29:39.35Z</time></trkpt><trkpt lat="44.1577317" lon="8.1045667"><ele>629.4</ele><time>2026-05-02T09:29:40.351Z</time></trkpt><trkpt lat="44.15771" lon="8.1047033"><ele>628.0</ele><time>2026-05-02T09:29:41.353Z</time></trkpt><trkpt lat="44.1576833" lon="8.104845"><ele>627.4</ele><time>2026-05-02T09:29:42.353Z</time></trkpt><trkpt lat="44.1576633" lon="8.1049983"><ele>626.8</ele><time>2026-05-02T09:29:43.353Z</time></trkpt><trkpt lat="44.1576517" lon="8.105155"><ele>626.2</ele><time>2026-05-02T09:29:44.354Z</time></trkpt><trkpt lat="44.1576483" lon="8.105305"><ele>625.6</ele><time>2026-05-02T09:29:45.354Z</time></trkpt><trkpt lat="44.15765" lon="8.1054633"><ele>625.0</ele><time>2026-05-02T09:29:46.351Z</time></trkpt><trkpt lat="44.1576617" lon="8.10561"><ele>625.0</ele><time>2026-05-02T09:29:47.356Z</time></trkpt><trkpt lat="44.15769" lon="8.1057433"><ele>625.0</ele><time>2026-05-02T09:29:48.349Z</time></trkpt><trkpt lat="44.1577333" lon="8.105855"><ele>625.0</ele><time>2026-05-02T09:29:49.353Z</time></trkpt><trkpt lat="44.1577933" lon="8.1059383"><ele>625.0</ele><time>2026-05-02T09:29:50.354Z</time></trkpt><trkpt lat="44.1578667" lon="8.1059983"><ele>625.0</ele><time>2026-05-02T09:29:51.351Z</time></trkpt><trkpt lat="44.1579617" lon="8.1060233"><ele>623.2</ele><time>2026-05-02T09:29:52.351Z</time></trkpt><trkpt lat="44.1580483" lon="8.1060667"><ele>621.4</ele><time>2026-05-02T09:29:53.352Z</time></trkpt><trkpt lat="44.158125" lon="8.1061117"><ele>619.6</ele><time>2026-05-02T09:29:54.351Z</time></trkpt><trkpt lat="44.1581817" lon="8.106165"><ele>617.8</ele><time>2026-05-02T09:29:55.353Z</time></trkpt><trkpt lat="44.1581833" lon="8.1063017"><ele>616.0</ele><time>2026-05-02T09:29:57.35Z</time></trkpt><trkpt lat="44.1580883" lon="8.1064233"><ele>616.0</ele><time>2026-05-02T09:29:59.353Z</time></trkpt><trkpt lat="44.1580033" lon="8.1064967"><ele>616.0</ele><time>2026-05-02T09:30:00.35Z</time></trkpt><trkpt lat="44.1579167" lon="8.1065783"><ele>616.0</ele><time>2026-05-02T09:30:01.35Z</time></trkpt><trkpt lat="44.1578367" lon="8.10666"><ele>616.0</ele><time>2026-05-02T09:30:02.349Z</time></trkpt><trkpt lat="44.157755" lon="8.106725"><ele>616.0</ele><time>2026-05-02T09:30:03.358Z</time></trkpt><trkpt lat="44.1576683" lon="8.1067567"><ele>615.8</ele><time>2026-05-02T09:30:04.35Z</time></trkpt><trkpt lat="44.1575833" lon="8.10678"><ele>615.6</ele><time>2026-05-02T09:30:05.35Z</time></trkpt><trkpt lat="44.157495" lon="8.106805"><ele>615.4</ele><time>2026-05-02T09:30:06.349Z</time></trkpt><trkpt lat="44.1574083" lon="8.1068467"><ele>615.2</ele><time>2026-05-02T09:30:07.349Z</time></trkpt><trkpt lat="44.1573283" lon="8.1069"><ele>615.0</ele><time>2026-05-02T09:30:08.356Z</time></trkpt><trkpt lat="44.1572583" lon="8.106985"><ele>613.0</ele><time>2026-05-02T09:30:09.351Z</time></trkpt><trkpt lat="44.1571917" lon="8.1071067"><ele>611.0</ele><time>2026-05-02T09:30:10.349Z</time></trkpt><trkpt lat="44.1571333" lon="8.10724"><ele>609.0</ele><time>2026-05-02T09:30:11.349Z</time></trkpt><trkpt lat="44.1570733" lon="8.107375"><ele>607.0</ele><time>2026-05-02T09:30:12.351Z</time></trkpt><trkpt lat="44.1570033" lon="8.1074933"><ele>605.0</ele><time>2026-05-02T09:30:13.354Z</time></trkpt><trkpt lat="44.156915" lon="8.1075867"><ele>605.0</ele><time>2026-05-02T09:30:14.355Z</time></trkpt><trkpt lat="44.1568117" lon="8.10765"><ele>605.0</ele><time>2026-05-02T09:30:15.35Z</time></trkpt><trkpt lat="44.1567" lon="8.1076967"><ele>605.0</ele><time>2026-05-02T09:30:16.352Z</time></trkpt><trkpt lat="44.156585" lon="8.10774"><ele>605.0</ele><time>2026-05-02T09:30:17.352Z</time></trkpt><trkpt lat="44.156475" lon="8.107785"><ele>595.75</ele><time>2026-05-02T09:30:18.356Z</time></trkpt><trkpt lat="44.1563683" lon="8.1078467"><ele>586.5</ele><time>2026-05-02T09:30:19.349Z</time></trkpt><trkpt lat="44.1562667" lon="8.1079167"><ele>577.25</ele><time>2026-05-02T09:30:20.35Z</time></trkpt><trkpt lat="44.1561717" lon="8.1080033"><ele>568.0</ele><time>2026-05-02T09:30:21.352Z</time></trkpt><trkpt lat="44.1560783" lon="8.1080917"><ele>568.0</ele><time>2026-05-02T09:30:22.355Z</time></trkpt><trkpt lat="44.1559883" lon="8.1081983"><ele>568.0</ele><time>2026-05-02T09:30:23.36Z</time></trkpt><trkpt lat="44.1559" lon="8.1082867"><ele>568.0</ele><time>2026-05-02T09:30:24.355Z</time></trkpt><trkpt lat="44.1558083" lon="8.10838"><ele>568.0</ele><time>2026-05-02T09:30:25.352Z</time></trkpt><trkpt lat="44.155715" lon="8.108465"><ele>568.75</ele><time>2026-05-02T09:30:26.35Z</time></trkpt><trkpt lat="44.155615" lon="8.1085433"><ele>569.5</ele><time>2026-05-02T09:30:27.357Z</time></trkpt><trkpt lat="44.1555117" lon="8.1086183"><ele>570.25</ele><time>2026-05-02T09:30:28.349Z</time></trkpt><trkpt lat="44.1554117" lon="8.108695"><ele>571.0</ele><time>2026-05-02T09:30:29.353Z</time></trkpt><trkpt lat="44.1553167" lon="8.108775"><ele>571.0</ele><time>2026-05-02T09:30:30.351Z</time></trkpt><trkpt lat="44.1552283" lon="8.1088567"><ele>571.0</ele><time>2026-05-02T09:30:31.351Z</time></trkpt><trkpt lat="44.1551517" lon="8.108955"><ele>571.0</ele><time>2026-05-02T09:30:32.355Z</time></trkpt><trkpt lat="44.1550967" lon="8.1090883"><ele>571.0</ele><time>2026-05-02T09:30:33.349Z</time></trkpt><trkpt lat="44.1550533" lon="8.1092483"><ele>571.0</ele><time>2026-05-02T09:30:34.351Z</time></trkpt><trkpt lat="44.1550117" lon="8.1094183"><ele>568.5</ele><time>2026-05-02T09:30:35.35Z</time></trkpt><trkpt lat="44.154965" lon="8.109585"><ele>566.0</ele><time>2026-05-02T09:30:36.35Z</time></trkpt><trkpt lat="44.154905" lon="8.109745"><ele>563.5</ele><time>2026-05-02T09:30:37.349Z</time></trkpt><trkpt lat="44.1548417" lon="8.1098967"><ele>561.0</ele><time>2026-05-02T09:30:38.351Z</time></trkpt><trkpt lat="44.1547833" lon="8.1100383"><ele>561.0</ele><time>2026-05-02T09:30:39.351Z</time></trkpt><trkpt lat="44.1547333" lon="8.1101783"><ele>561.0</ele><time>2026-05-02T09:30:40.354Z</time></trkpt><trkpt lat="44.1547083" lon="8.1103167"><ele>561.0</ele><time>2026-05-02T09:30:41.349Z</time></trkpt><trkpt lat="44.154705" lon="8.1104483"><ele>561.0</ele><time>2026-05-02T09:30:42.352Z</time></trkpt><trkpt lat="44.1547217" lon="8.110585"><ele>561.0</ele><time>2026-05-02T09:30:43.351Z</time></trkpt><trkpt lat="44.1547517" lon="8.1107083"><ele>561.3333333333334</ele><time>2026-05-02T09:30:44.35Z</time></trkpt><trkpt lat="44.1547833" lon="8.1108133"><ele>561.6666666666666</ele><time>2026-05-02T09:30:45.35Z</time></trkpt><trkpt lat="44.1547983" lon="8.1109017"><ele>562.0</ele><time>2026-05-02T09:30:46.35Z</time></trkpt><trkpt lat="44.1547817" lon="8.1110083"><ele>562.3333333333333</ele><time>2026-05-02T09:30:48.353Z</time></trkpt><trkpt lat="44.154685" lon="8.11098"><ele>562.6666666666666</ele><time>2026-05-02T09:30:50.354Z</time></trkpt><trkpt lat="44.1546433" lon="8.110905"><ele>563.0</ele><time>2026-05-02T09:30:51.357Z</time></trkpt><trkpt lat="44.1546067" lon="8.1108033"><ele>562.6666666666666</ele><time>2026-05-02T09:30:52.349Z</time></trkpt><trkpt lat="44.1545733" lon="8.1106867"><ele>562.3333333333333</ele><time>2026-05-02T09:30:53.352Z</time></trkpt><trkpt lat="44.1545383" lon="8.11057"><ele>562.0</ele><time>2026-05-02T09:30:54.35Z</time></trkpt><trkpt lat="44.1545067" lon="8.11046"><ele>561.6666666666666</ele><time>2026-05-02T09:30:55.35Z</time></trkpt><trkpt lat="44.1544733" lon="8.1103483"><ele>561.3333333333334</ele><time>2026-05-02T09:30:56.352Z</time></trkpt><trkpt lat="44.1544517" lon="8.11023"><ele>561.0</ele><time>2026-05-02T09:30:57.351Z</time></trkpt><trkpt lat="44.15445" lon="8.110115"><ele>561.0</ele><time>2026-05-02T09:30:58.351Z</time></trkpt><trkpt lat="44.1544683" lon="8.1099933"><ele>561.0</ele><time>2026-05-02T09:30:59.352Z</time></trkpt><trkpt lat="44.1545017" lon="8.1098767"><ele>561.0</ele><time>2026-05-02T09:31:00.35Z</time></trkpt><trkpt lat="44.1545383" lon="8.1097583"><ele>561.0</ele><time>2026-05-02T09:31:01.352Z</time></trkpt><trkpt lat="44.1545583" lon="8.1096333"><ele>561.0</ele><time>2026-05-02T09:31:02.355Z</time></trkpt><trkpt lat="44.15456" lon="8.1095017"><ele>560.6</ele><time>2026-05-02T09:31:03.35Z</time></trkpt><trkpt lat="44.1545367" lon="8.1093633"><ele>560.2</ele><time>2026-05-02T09:31:04.354Z</time></trkpt><trkpt lat="44.1544983" lon="8.1092317"><ele>559.8</ele><time>2026-05-02T09:31:05.352Z</time></trkpt><trkpt lat="44.1544517" lon="8.1090983"><ele>559.4</ele><time>2026-05-02T09:31:06.356Z</time></trkpt><trkpt lat="44.1544183" lon="8.1089667"><ele>559.0</ele><time>2026-05-02T09:31:07.351Z</time></trkpt><trkpt lat="44.1544017" lon="8.108835"><ele>558.0</ele><time>2026-05-02T09:31:08.35Z</time></trkpt><trkpt lat="44.1544117" lon="8.1087033"><ele>557.0</ele><time>2026-05-02T09:31:09.352Z</time></trkpt><trkpt lat="44.154435" lon="8.10858"><ele>556.0</ele><time>2026-05-02T09:31:10.352Z</time></trkpt><trkpt lat="44.1544833" lon="8.1084683"><ele>555.0</ele><time>2026-05-02T09:31:11.353Z</time></trkpt><trkpt lat="44.1545483" lon="8.1083717"><ele>554.0</ele><time>2026-05-02T09:31:12.354Z</time></trkpt><trkpt lat="44.154625" lon="8.1083083"><ele>554.0</ele><time>2026-05-02T09:31:13.352Z</time></trkpt><trkpt lat="44.1547133" lon="8.1082717"><ele>554.0</ele><time>2026-05-02T09:31:14.351Z</time></trkpt><trkpt lat="44.1548133" lon="8.108255"><ele>554.0</ele><time>2026-05-02T09:31:15.352Z</time></trkpt><trkpt lat="44.15492" lon="8.1082417"><ele>554.0</ele><time>2026-05-02T09:31:16.356Z</time></trkpt><trkpt lat="44.1550217" lon="8.108225"><ele>554.0</ele><time>2026-05-02T09:31:17.35Z</time></trkpt><trkpt lat="44.1551283" lon="8.1082067"><ele>552.6</ele><time>2026-05-02T09:31:18.356Z</time></trkpt><trkpt lat="44.1552183" lon="8.1081667"><ele>551.2</ele><time>2026-05-02T09:31:19.35Z</time></trkpt><trkpt lat="44.155305" lon="8.1080933"><ele>549.8000000000001</ele><time>2026-05-02T09:31:20.353Z</time></trkpt><trkpt lat="44.1553883" lon="8.108005"><ele>548.4</ele><time>2026-05-02T09:31:21.354Z</time></trkpt><trkpt lat="44.1554667" lon="8.10791"><ele>547.0</ele><time>2026-05-02T09:31:22.353Z</time></trkpt><trkpt lat="44.1555267" lon="8.1078"><ele>547.0</ele><time>2026-05-02T09:31:23.349Z</time></trkpt><trkpt lat="44.1555867" lon="8.1076883"><ele>547.0</ele><time>2026-05-02T09:31:24.354Z</time></trkpt><trkpt lat="44.1556483" lon="8.1075683"><ele>547.0</ele><time>2026-05-02T09:31:25.354Z</time></trkpt><trkpt lat="44.1557117" lon="8.1074533"><ele>547.0</ele><time>2026-05-02T09:31:26.356Z</time></trkpt><trkpt lat="44.15577" lon="8.10734"><ele>547.0</ele><time>2026-05-02T09:31:27.35Z</time></trkpt><trkpt lat="44.1558183" lon="8.10724"><ele>546.8333333333334</ele><time>2026-05-02T09:31:28.352Z</time></trkpt><trkpt lat="44.1558533" lon="8.107145"><ele>546.6666666666667</ele><time>2026-05-02T09:31:29.351Z</time></trkpt><trkpt lat="44.155875" lon="8.1070583"><ele>546.5</ele><time>2026-05-02T09:31:30.351Z</time></trkpt><trkpt lat="44.1558267" lon="8.106925"><ele>546.3333333333334</ele><time>2026-05-02T09:31:32.349Z</time></trkpt><trkpt lat="44.155745" lon="8.10689"><ele>546.1666666666666</ele><time>2026-05-02T09:31:33.355Z</time></trkpt><trkpt lat="44.15567" lon="8.1068533"><ele>546.0</ele><time>2026-05-02T09:31:34.349Z</time></trkpt><trkpt lat="44.1555833" lon="8.1068117"><ele>546.0</ele><time>2026-05-02T09:31:35.351Z</time></trkpt><trkpt lat="44.1555117" lon="8.1067617"><ele>546.0</ele><time>2026-05-02T09:31:36.356Z</time></trkpt><trkpt lat="44.1554533" lon="8.1067067"><ele>546.0</ele><time>2026-05-02T09:31:37.354Z</time></trkpt><trkpt lat="44.1554183" lon="8.1066033"><ele>546.0</ele><time>2026-05-02T09:31:38.348Z</time></trkpt><trkpt lat="44.1553883" lon="8.1064783"><ele>546.0</ele><time>2026-05-02T09:31:39.351Z</time></trkpt><trkpt lat="44.15534" lon="8.1063617"><ele>546.0</ele><time>2026-05-02T09:31:40.353Z</time></trkpt><trkpt lat="44.1552767" lon="8.1062717"><ele>546.0</ele><time>2026-05-02T09:31:41.351Z</time></trkpt><trkpt lat="44.1551933" lon="8.1062467"><ele>546.0</ele><time>2026-05-02T09:31:42.353Z</time></trkpt><trkpt lat="44.1551067" lon="8.1062483"><ele>546.0</ele><time>2026-05-02T09:31:43.354Z</time></trkpt><trkpt lat="44.155005" lon="8.106275"><ele>546.0</ele><time>2026-05-02T09:31:44.35Z</time></trkpt><trkpt lat="44.15488" lon="8.1063333"><ele>546.0</ele><time>2026-05-02T09:31:45.355Z</time></trkpt><trkpt lat="44.1547733" lon="8.10638"><ele>546.0</ele><time>2026-05-02T09:31:46.354Z</time></trkpt><trkpt lat="44.1546867" lon="8.1064083"><ele>546.0</ele><time>2026-05-02T09:31:47.354Z</time></trkpt><trkpt lat="44.1546117" lon="8.1064183"><ele>546.0</ele><time>2026-05-02T09:31:48.351Z</time></trkpt><trkpt lat="44.1545183" lon="8.10634"><ele>546.0</ele><time>2026-05-02T09:31:50.349Z</time></trkpt><trkpt lat="44.154565" lon="8.1061617"><ele>546.0</ele><time>2026-05-02T09:31:52.349Z</time></trkpt><trkpt lat="44.1546117" lon="8.1060717"><ele>546.0</ele><time>2026-05-02T09:31:53.352Z</time></trkpt><trkpt lat="44.1546417" lon="8.10599"><ele>546.0</ele><time>2026-05-02T09:31:54.352Z</time></trkpt><trkpt lat="44.15461" lon="8.10591"><ele>546.0</ele><time>2026-05-02T09:31:56.352Z</time></trkpt><trkpt lat="44.1544867" lon="8.1059383"><ele>546.0</ele><time>2026-05-02T09:31:58.356Z</time></trkpt><trkpt lat="44.1544017" lon="8.1059717"><ele>546.0</ele><time>2026-05-02T09:31:59.353Z</time></trkpt><trkpt lat="44.1542883" lon="8.1060033"><ele>546.0</ele><time>2026-05-02T09:32:00.354Z</time></trkpt><trkpt lat="44.1541733" lon="8.1060267"><ele>546.0</ele><time>2026-05-02T09:32:01.352Z</time></trkpt><trkpt lat="44.154065" lon="8.10607"><ele>546.0</ele><time>2026-05-02T09:32:02.352Z</time></trkpt><trkpt lat="44.1539583" lon="8.1061417"><ele>546.0</ele><time>2026-05-02T09:32:03.352Z</time></trkpt><trkpt lat="44.1538567" lon="8.1062367"><ele>543.2</ele><time>2026-05-02T09:32:04.352Z</time></trkpt><trkpt lat="44.1537517" lon="8.10632"><ele>540.4000000000001</ele><time>2026-05-02T09:32:05.349Z</time></trkpt><trkpt lat="44.15365" lon="8.1063883"><ele>537.6</ele><time>2026-05-02T09:32:06.354Z</time></trkpt><trkpt lat="44.15355" lon="8.1064433"><ele>534.8000000000001</ele><time>2026-05-02T09:32:07.35Z</time></trkpt><trkpt lat="44.1534567" lon="8.1064733"><ele>532.0</ele><time>2026-05-02T09:32:08.35Z</time></trkpt><trkpt lat="44.1533717" lon="8.1064733"><ele>532.0</ele><time>2026-05-02T09:32:09.35Z</time></trkpt><trkpt lat="44.15329" lon="8.1064417"><ele>532.0</ele><time>2026-05-02T09:32:10.353Z</time></trkpt><trkpt lat="44.15322" lon="8.106375"><ele>532.0</ele><time>2026-05-02T09:32:11.35Z</time></trkpt><trkpt lat="44.1531567" lon="8.10627"><ele>532.0</ele><time>2026-05-02T09:32:12.35Z</time></trkpt><trkpt lat="44.1530917" lon="8.1061283"><ele>532.0</ele><time>2026-05-02T09:32:13.35Z</time></trkpt><trkpt lat="44.1530267" lon="8.1059867"><ele>531.6</ele><time>2026-05-02T09:32:14.361Z</time></trkpt><trkpt lat="44.1529667" lon="8.1058483"><ele>531.2</ele><time>2026-05-02T09:32:15.35Z</time></trkpt><trkpt lat="44.1529233" lon="8.105715"><ele>530.8</ele><time>2026-05-02T09:32:16.353Z</time></trkpt><trkpt lat="44.1529017" lon="8.1055917"><ele>530.4</ele><time>2026-05-02T09:32:17.353Z</time></trkpt><trkpt lat="44.1528783" lon="8.1054817"><ele>530.0</ele><time>2026-05-02T09:32:18.349Z</time></trkpt><trkpt lat="44.1528433" lon="8.105385"><ele>530.0</ele><time>2026-05-02T09:32:19.349Z</time></trkpt><trkpt lat="44.1527917" lon="8.1053"><ele>530.0</ele><time>2026-05-02T09:32:20.351Z</time></trkpt><trkpt lat="44.1527083" lon="8.1053133"><ele>530.0</ele><time>2026-05-02T09:32:21.351Z</time></trkpt><trkpt lat="44.1526167" lon="8.1053283"><ele>530.0</ele><time>2026-05-02T09:32:22.351Z</time></trkpt><trkpt lat="44.15252" lon="8.1053417"><ele>530.0</ele><time>2026-05-02T09:32:23.351Z</time></trkpt><trkpt lat="44.15241" lon="8.1053567"><ele>532.75</ele><time>2026-05-02T09:32:24.351Z</time></trkpt><trkpt lat="44.1522917" lon="8.1054"><ele>535.5</ele><time>2026-05-02T09:32:25.349Z</time></trkpt><trkpt lat="44.1521883" lon="8.1054683"><ele>538.25</ele><time>2026-05-02T09:32:26.349Z</time></trkpt><trkpt lat="44.1520817" lon="8.1055717"><ele>541.0</ele><time>2026-05-02T09:32:27.353Z</time></trkpt><trkpt lat="44.15198" lon="8.1056767"><ele>534.5</ele><time>2026-05-02T09:32:28.356Z</time></trkpt><trkpt lat="44.1518883" lon="8.105785"><ele>528.0</ele><time>2026-05-02T09:32:29.355Z</time></trkpt><trkpt lat="44.1518033" lon="8.105905"><ele>521.5</ele><time>2026-05-02T09:32:30.348Z</time></trkpt><trkpt lat="44.1517317" lon="8.106035"><ele>515.0</ele><time>2026-05-02T09:32:31.351Z</time></trkpt><trkpt lat="44.1516617" lon="8.1061533"><ele>515.0</ele><time>2026-05-02T09:32:32.35Z</time></trkpt><trkpt lat="44.1515817" lon="8.10624"><ele>515.0</ele><time>2026-05-02T09:32:33.35Z</time></trkpt><trkpt lat="44.1514883" lon="8.1062917"><ele>515.0</ele><time>2026-05-02T09:32:34.36Z</time></trkpt><trkpt lat="44.1513833" lon="8.1063483"><ele>515.0</ele><time>2026-05-02T09:32:35.354Z</time></trkpt><trkpt lat="44.1512717" lon="8.1064167"><ele>515.0</ele><time>2026-05-02T09:32:36.35Z</time></trkpt><trkpt lat="44.1511717" lon="8.106515"><ele>515.75</ele><time>2026-05-02T09:32:37.353Z</time></trkpt><trkpt lat="44.1510817" lon="8.1066467"><ele>516.5</ele><time>2026-05-02T09:32:38.35Z</time></trkpt><trkpt lat="44.1509983" lon="8.1068"><ele>517.25</ele><time>2026-05-02T09:32:39.349Z</time></trkpt><trkpt lat="44.1509167" lon="8.1069617"><ele>518.0</ele><time>2026-05-02T09:32:40.35Z</time></trkpt><trkpt lat="44.1508333" lon="8.1071183"><ele>518.0</ele><time>2026-05-02T09:32:41.352Z</time></trkpt><trkpt lat="44.1507483" lon="8.1072733"><ele>518.0</ele><time>2026-05-02T09:32:42.356Z</time></trkpt><trkpt lat="44.1506633" lon="8.1074167"><ele>518.0</ele><time>2026-05-02T09:32:43.354Z</time></trkpt><trkpt lat="44.1505817" lon="8.1075467"><ele>518.0</ele><time>2026-05-02T09:32:44.351Z</time></trkpt><trkpt lat="44.1504933" lon="8.1076533"><ele>517.5</ele><time>2026-05-02T09:32:45.35Z</time></trkpt><trkpt lat="44.1504" lon="8.10775"><ele>517.0</ele><time>2026-05-02T09:32:46.349Z</time></trkpt><trkpt lat="44.1502967" lon="8.107835"><ele>516.5</ele><time>2026-05-02T09:32:47.35Z</time></trkpt><trkpt lat="44.150185" lon="8.10791"><ele>516.0</ele><time>2026-05-02T09:32:48.355Z</time></trkpt><trkpt lat="44.1500633" lon="8.10798"><ele>516.0</ele><time>2026-05-02T09:32:49.353Z</time></trkpt><trkpt lat="44.1499367" lon="8.1080517"><ele>516.0</ele><time>2026-05-02T09:32:50.352Z</time></trkpt><trkpt lat="44.1498217" lon="8.1081167"><ele>516.0</ele><time>2026-05-02T09:32:51.354Z</time></trkpt><trkpt lat="44.1497167" lon="8.1081767"><ele>516.0</ele><time>2026-05-02T09:32:52.353Z</time></trkpt><trkpt lat="44.1495983" lon="8.1082117"><ele>519.5</ele><time>2026-05-02T09:32:53.352Z</time></trkpt><trkpt lat="44.149485" lon="8.108225"><ele>523.0</ele><time>2026-05-02T09:32:54.349Z</time></trkpt><trkpt lat="44.1493783" lon="8.1082217"><ele>526.5</ele><time>2026-05-02T09:32:55.35Z</time></trkpt><trkpt lat="44.1492617" lon="8.1082217"><ele>530.0</ele><time>2026-05-02T09:32:56.354Z</time></trkpt><trkpt lat="44.1491417" lon="8.1082383"><ele>523.75</ele><time>2026-05-02T09:32:57.351Z</time></trkpt><trkpt lat="44.1490183" lon="8.1082867"><ele>517.5</ele><time>2026-05-02T09:32:58.35Z</time></trkpt><trkpt lat="44.1488883" lon="8.10836"><ele>511.25</ele><time>2026-05-02T09:32:59.349Z</time></trkpt><trkpt lat="44.1487583" lon="8.1084433"><ele>505.0</ele><time>2026-05-02T09:33:00.352Z</time></trkpt><trkpt lat="44.1486267" lon="8.108525"><ele>505.0</ele><time>2026-05-02T09:33:01.35Z</time></trkpt><trkpt lat="44.1485067" lon="8.108605"><ele>505.0</ele><time>2026-05-02T09:33:02.353Z</time></trkpt><trkpt lat="44.1483883" lon="8.1087017"><ele>505.0</ele><time>2026-05-02T09:33:03.353Z</time></trkpt><trkpt lat="44.1482783" lon="8.1087967"><ele>505.0</ele><time>2026-05-02T09:33:04.353Z</time></trkpt><trkpt lat="44.1481667" lon="8.1088833"><ele>510.0</ele><time>2026-05-02T09:33:05.352Z</time></trkpt><trkpt lat="44.1480583" lon="8.1089517"><ele>515.0</ele><time>2026-05-02T09:33:06.353Z</time></trkpt><trkpt lat="44.1479467" lon="8.1089967"><ele>520.0</ele><time>2026-05-02T09:33:07.354Z</time></trkpt><trkpt lat="44.1478267" lon="8.1090367"><ele>525.0</ele><time>2026-05-02T09:33:08.355Z</time></trkpt><trkpt lat="44.1477033" lon="8.1090933"><ele>520.5</ele><time>2026-05-02T09:33:09.353Z</time></trkpt><trkpt lat="44.1475933" lon="8.109145"><ele>516.0</ele><time>2026-05-02T09:33:10.354Z</time></trkpt><trkpt lat="44.147475" lon="8.1092267"><ele>511.5</ele><time>2026-05-02T09:33:11.355Z</time></trkpt><trkpt lat="44.1473683" lon="8.109325"><ele>507.0</ele><time>2026-05-02T09:33:12.35Z</time></trkpt><trkpt lat="44.1472633" lon="8.109445"><ele>507.0</ele><time>2026-05-02T09:33:13.351Z</time></trkpt><trkpt lat="44.1471617" lon="8.109575"><ele>507.0</ele><time>2026-05-02T09:33:14.351Z</time></trkpt><trkpt lat="44.1470583" lon="8.1097033"><ele>507.0</ele><time>2026-05-02T09:33:15.361Z</time></trkpt><trkpt lat="44.1469533" lon="8.109825"><ele>507.0</ele><time>2026-05-02T09:33:16.353Z</time></trkpt><trkpt lat="44.1468417" lon="8.1099517"><ele>500.25</ele><time>2026-05-02T09:33:17.352Z</time></trkpt><trkpt lat="44.14673" lon="8.1100617"><ele>493.5</ele><time>2026-05-02T09:33:18.353Z</time></trkpt><trkpt lat="44.1466217" lon="8.1101617"><ele>486.75</ele><time>2026-05-02T09:33:19.351Z</time></trkpt><trkpt lat="44.1465133" lon="8.1102567"><ele>480.0</ele><time>2026-05-02T09:33:20.354Z</time></trkpt><trkpt lat="44.1464067" lon="8.1103567"><ele>480.0</ele><time>2026-05-02T09:33:21.351Z</time></trkpt><trkpt lat="44.1462933" lon="8.11046"><ele>480.0</ele><time>2026-05-02T09:33:22.351Z</time></trkpt><trkpt lat="44.14618" lon="8.1105433"><ele>480.0</ele><time>2026-05-02T09:33:23.35Z</time></trkpt><trkpt lat="44.1460583" lon="8.1105983"><ele>480.0</ele><time>2026-05-02T09:33:24.35Z</time></trkpt><trkpt lat="44.1459283" lon="8.1106233"><ele>480.0</ele><time>2026-05-02T09:33:25.353Z</time></trkpt><trkpt lat="44.145795" lon="8.1106317"><ele>480.0</ele><time>2026-05-02T09:33:26.352Z</time></trkpt><trkpt lat="44.1456533" lon="8.1106433"><ele>480.0</ele><time>2026-05-02T09:33:27.354Z</time></trkpt><trkpt lat="44.14551" lon="8.11066"><ele>480.0</ele><time>2026-05-02T09:33:28.352Z</time></trkpt><trkpt lat="44.1453767" lon="8.1106867"><ele>476.0</ele><time>2026-05-02T09:33:29.356Z</time></trkpt><trkpt lat="44.1452567" lon="8.1107467"><ele>472.0</ele><time>2026-05-02T09:33:30.354Z</time></trkpt><trkpt lat="44.1451367" lon="8.1108233"><ele>468.0</ele><time>2026-05-02T09:33:31.351Z</time></trkpt><trkpt lat="44.145015" lon="8.1108983"><ele>464.0</ele><time>2026-05-02T09:33:32.353Z</time></trkpt><trkpt lat="44.144895" lon="8.1109617"><ele>466.5</ele><time>2026-05-02T09:33:33.354Z</time></trkpt><trkpt lat="44.1447717" lon="8.1110133"><ele>469.0</ele><time>2026-05-02T09:33:34.353Z</time></trkpt><trkpt lat="44.1446483" lon="8.111075"><ele>471.5</ele><time>2026-05-02T09:33:35.353Z</time></trkpt><trkpt lat="44.1445317" lon="8.1111517"><ele>474.0</ele><time>2026-05-02T09:33:36.354Z</time></trkpt><trkpt lat="44.144415" lon="8.11123"><ele>474.0</ele><time>2026-05-02T09:33:37.35Z</time></trkpt><trkpt lat="44.1443067" lon="8.1112967"><ele>474.0</ele><time>2026-05-02T09:33:38.353Z</time></trkpt><trkpt lat="44.1442133" lon="8.1113417"><ele>474.0</ele><time>2026-05-02T09:33:39.354Z</time></trkpt><trkpt lat="44.1441233" lon="8.111355"><ele>474.0</ele><time>2026-05-02T09:33:40.349Z</time></trkpt><trkpt lat="44.144025" lon="8.11134"><ele>474.0</ele><time>2026-05-02T09:33:41.35Z</time></trkpt><trkpt lat="44.14392" lon="8.11132"><ele>475.0</ele><time>2026-05-02T09:33:42.353Z</time></trkpt><trkpt lat="44.143815" lon="8.1113283"><ele>476.0</ele><time>2026-05-02T09:33:43.353Z</time></trkpt><trkpt lat="44.1437083" lon="8.111365"><ele>477.0</ele><time>2026-05-02T09:33:44.354Z</time></trkpt><trkpt lat="44.1435983" lon="8.1114167"><ele>478.0</ele><time>2026-05-02T09:33:45.355Z</time></trkpt><trkpt lat="44.14348" lon="8.1114767"><ele>478.0</ele><time>2026-05-02T09:33:46.354Z</time></trkpt><trkpt lat="44.1433583" lon="8.11154"><ele>478.0</ele><time>2026-05-02T09:33:47.356Z</time></trkpt><trkpt lat="44.14324" lon="8.11161"><ele>478.0</ele><time>2026-05-02T09:33:48.35Z</time></trkpt><trkpt lat="44.14313" lon="8.1116767"><ele>478.0</ele><time>2026-05-02T09:33:49.35Z</time></trkpt><trkpt lat="44.143025" lon="8.1117333"><ele>465.79999999999995</ele><time>2026-05-02T09:33:50.355Z</time></trkpt><trkpt lat="44.142925" lon="8.111775"><ele>453.59999999999997</ele><time>2026-05-02T09:33:51.357Z</time></trkpt><trkpt lat="44.14283" lon="8.11179"><ele>441.4</ele><time>2026-05-02T09:33:52.353Z</time></trkpt><trkpt lat="44.1427383" lon="8.11176"><ele>429.20000000000005</ele><time>2026-05-02T09:33:53.355Z</time></trkpt><trkpt lat="44.1426667" lon="8.111685"><ele>417.0</ele><time>2026-05-02T09:33:54.357Z</time></trkpt><trkpt lat="44.1426017" lon="8.111595"><ele>420.20000000000005</ele><time>2026-05-02T09:33:55.349Z</time></trkpt><trkpt lat="44.1425367" lon="8.1114933"><ele>423.4</ele><time>2026-05-02T09:33:56.353Z</time></trkpt><trkpt lat="44.1424783" lon="8.1113783"><ele>426.59999999999997</ele><time>2026-05-02T09:33:57.352Z</time></trkpt><trkpt lat="44.14244" lon="8.1112567"><ele>429.79999999999995</ele><time>2026-05-02T09:33:58.352Z</time></trkpt><trkpt lat="44.142425" lon="8.1111267"><ele>433.0</ele><time>2026-05-02T09:33:59.355Z</time></trkpt><trkpt lat="44.1424367" lon="8.1109983"><ele>433.0</ele><time>2026-05-02T09:34:00.349Z</time></trkpt><trkpt lat="44.1424717" lon="8.11086"><ele>432.99999999999994</ele><time>2026-05-02T09:34:01.351Z</time></trkpt><trkpt lat="44.1425433" lon="8.110725"><ele>432.99999999999994</ele><time>2026-05-02T09:34:02.353Z</time></trkpt><trkpt lat="44.1426133" lon="8.1106"><ele>433.0</ele><time>2026-05-02T09:34:03.352Z</time></trkpt><trkpt lat="44.1426667" lon="8.1104783"><ele>433.0</ele><time>2026-05-02T09:34:04.353Z</time></trkpt><trkpt lat="44.1426883" lon="8.11035"><ele>432.6666666666667</ele><time>2026-05-02T09:34:05.349Z</time></trkpt><trkpt lat="44.1426883" lon="8.11023"><ele>432.33333333333337</ele><time>2026-05-02T09:34:06.351Z</time></trkpt><trkpt lat="44.1426717" lon="8.1101233"><ele>432.0</ele><time>2026-05-02T09:34:07.352Z</time></trkpt><trkpt lat="44.1426333" lon="8.1100267"><ele>431.66666666666663</ele><time>2026-05-02T09:34:08.35Z</time></trkpt><trkpt lat="44.1425767" lon="8.1099317"><ele>431.3333333333333</ele><time>2026-05-02T09:34:09.352Z</time></trkpt><trkpt lat="44.1425133" lon="8.1098317"><ele>431.0</ele><time>2026-05-02T09:34:10.349Z</time></trkpt><trkpt lat="44.1424583" lon="8.1097267"><ele>430.99999999999994</ele><time>2026-05-02T09:34:11.351Z</time></trkpt><trkpt lat="44.1424233" lon="8.1096083"><ele>431.0</ele><time>2026-05-02T09:34:12.353Z</time></trkpt><trkpt lat="44.142405" lon="8.1094917"><ele>431.0</ele><time>2026-05-02T09:34:13.353Z</time></trkpt><trkpt lat="44.1424117" lon="8.109375"><ele>431.0</ele><time>2026-05-02T09:34:14.352Z</time></trkpt><trkpt lat="44.142435" lon="8.10926"><ele>430.99999999999994</ele><time>2026-05-02T09:34:15.352Z</time></trkpt><trkpt lat="44.1424633" lon="8.1091567"><ele>431.0</ele><time>2026-05-02T09:34:16.355Z</time></trkpt><trkpt lat="44.142495" lon="8.1090517"><ele>431.99999999999994</ele><time>2026-05-02T09:34:17.349Z</time></trkpt><trkpt lat="44.14252" lon="8.1089417"><ele>433.0</ele><time>2026-05-02T09:34:18.352Z</time></trkpt><trkpt lat="44.14254" lon="8.108825"><ele>434.0</ele><time>2026-05-02T09:34:19.356Z</time></trkpt><trkpt lat="44.1425517" lon="8.1087033"><ele>435.0</ele><time>2026-05-02T09:34:20.353Z</time></trkpt><trkpt lat="44.142565" lon="8.10858"><ele>435.99999999999994</ele><time>2026-05-02T09:34:21.351Z</time></trkpt><trkpt lat="44.1425633" lon="8.1084633"><ele>437.0</ele><time>2026-05-02T09:34:22.35Z</time></trkpt><trkpt lat="44.1425417" lon="8.1083517"><ele>436.99999999999994</ele><time>2026-05-02T09:34:23.351Z</time></trkpt><trkpt lat="44.142505" lon="8.10827"><ele>437.0</ele><time>2026-05-02T09:34:24.352Z</time></trkpt><trkpt lat="44.14245" lon="8.108215"><ele>437.0</ele><time>2026-05-02T09:34:25.35Z</time></trkpt><trkpt lat="44.142385" lon="8.1081817"><ele>437.0</ele><time>2026-05-02T09:34:26.352Z</time></trkpt><trkpt lat="44.1422983" lon="8.1081867"><ele>436.99999999999994</ele><time>2026-05-02T09:34:27.352Z</time></trkpt><trkpt lat="44.1422117" lon="8.1082133"><ele>437.0</ele><time>2026-05-02T09:34:28.35Z</time></trkpt><trkpt lat="44.1421217" lon="8.1082217"><ele>439.0</ele><time>2026-05-02T09:34:29.35Z</time></trkpt><trkpt lat="44.1420367" lon="8.1082083"><ele>441.00000000000006</ele><time>2026-05-02T09:34:30.351Z</time></trkpt><trkpt lat="44.14195" lon="8.1081667"><ele>443.00000000000006</ele><time>2026-05-02T09:34:31.349Z</time></trkpt><trkpt lat="44.1418683" lon="8.1081067"><ele>445.0</ele><time>2026-05-02T09:34:32.354Z</time></trkpt><trkpt lat="44.1417817" lon="8.1080383"><ele>447.0</ele><time>2026-05-02T09:34:33.351Z</time></trkpt><trkpt lat="44.1416883" lon="8.1079733"><ele>447.0</ele><time>2026-05-02T09:34:34.349Z</time></trkpt><trkpt lat="44.1415883" lon="8.10791"><ele>447.0</ele><time>2026-05-02T09:34:35.352Z</time></trkpt><trkpt lat="44.1414817" lon="8.1078583"><ele>447.0</ele><time>2026-05-02T09:34:36.351Z</time></trkpt><trkpt lat="44.1413683" lon="8.1078117"><ele>447.0</ele><time>2026-05-02T09:34:37.354Z</time></trkpt><trkpt lat="44.1412483" lon="8.10777"><ele>441.0</ele><time>2026-05-02T09:34:38.351Z</time></trkpt><trkpt lat="44.14113" lon="8.1077017"><ele>435.0</ele><time>2026-05-02T09:34:39.351Z</time></trkpt><trkpt lat="44.1410117" lon="8.1076333"><ele>429.0</ele><time>2026-05-02T09:34:40.35Z</time></trkpt><trkpt lat="44.1408883" lon="8.1075733"><ele>423.0</ele><time>2026-05-02T09:34:41.35Z</time></trkpt><trkpt lat="44.140765" lon="8.107525"><ele>417.25</ele><time>2026-05-02T09:34:42.354Z</time></trkpt><trkpt lat="44.14064" lon="8.1074967"><ele>411.5</ele><time>2026-05-02T09:34:43.35Z</time></trkpt><trkpt lat="44.1405167" lon="8.1074833"><ele>405.75</ele><time>2026-05-02T09:34:44.353Z</time></trkpt><trkpt lat="44.1403967" lon="8.1074767"><ele>400.0</ele><time>2026-05-02T09:34:45.35Z</time></trkpt><trkpt lat="44.140285" lon="8.1074683"><ele>400.0</ele><time>2026-05-02T09:34:46.351Z</time></trkpt><trkpt lat="44.1401817" lon="8.1074683"><ele>400.0</ele><time>2026-05-02T09:34:47.352Z</time></trkpt><trkpt lat="44.1400817" lon="8.10746"><ele>400.0</ele><time>2026-05-02T09:34:48.355Z</time></trkpt><trkpt lat="44.13999" lon="8.1074333"><ele>400.0</ele><time>2026-05-02T09:34:49.349Z</time></trkpt><trkpt lat="44.1398967" lon="8.1074"><ele>400.0</ele><time>2026-05-02T09:34:50.353Z</time></trkpt><trkpt lat="44.13981" lon="8.1073567"><ele>402.2</ele><time>2026-05-02T09:34:51.356Z</time></trkpt><trkpt lat="44.1397183" lon="8.107315"><ele>404.4</ele><time>2026-05-02T09:34:52.351Z</time></trkpt><trkpt lat="44.1396267" lon="8.1072733"><ele>406.6</ele><time>2026-05-02T09:34:53.355Z</time></trkpt><trkpt lat="44.139535" lon="8.1072283"><ele>408.8</ele><time>2026-05-02T09:34:54.35Z</time></trkpt><trkpt lat="44.1394433" lon="8.1071833"><ele>411.0</ele><time>2026-05-02T09:34:55.349Z</time></trkpt><trkpt lat="44.1393533" lon="8.1071317"><ele>411.0</ele><time>2026-05-02T09:34:56.356Z</time></trkpt><trkpt lat="44.139265" lon="8.1070767"><ele>411.0</ele><time>2026-05-02T09:34:57.354Z</time></trkpt><trkpt lat="44.1391767" lon="8.1070283"><ele>411.0</ele><time>2026-05-02T09:34:58.352Z</time></trkpt><trkpt lat="44.13908" lon="8.1069967"><ele>411.0</ele><time>2026-05-02T09:34:59.355Z</time></trkpt><trkpt lat="44.1389817" lon="8.10698"><ele>411.0</ele><time>2026-05-02T09:35:00.35Z</time></trkpt><trkpt lat="44.1388833" lon="8.1069717"><ele>407.8333333333333</ele><time>2026-05-02T09:35:01.357Z</time></trkpt><trkpt lat="44.1387883" lon="8.1069617"><ele>404.66666666666663</ele><time>2026-05-02T09:35:02.352Z</time></trkpt><trkpt lat="44.1386967" lon="8.10695"><ele>401.5</ele><time>2026-05-02T09:35:03.35Z</time></trkpt><trkpt lat="44.13861" lon="8.1069267"><ele>398.3333333333333</ele><time>2026-05-02T09:35:04.352Z</time></trkpt><trkpt lat="44.1385283" lon="8.1068867"><ele>395.16666666666663</ele><time>2026-05-02T09:35:05.35Z</time></trkpt><trkpt lat="44.138465" lon="8.1068383"><ele>392.0</ele><time>2026-05-02T09:35:06.35Z</time></trkpt><trkpt lat="44.1383833" lon="8.106765"><ele>391.99999999999994</ele><time>2026-05-02T09:35:08.353Z</time></trkpt><trkpt lat="44.138325" lon="8.106715"><ele>392.0</ele><time>2026-05-02T09:35:10.354Z</time></trkpt><trkpt lat="44.1382617" lon="8.1066517"><ele>392.0</ele><time>2026-05-02T09:35:12.352Z</time></trkpt><trkpt lat="44.138235" lon="8.1065483"><ele>392.0</ele><time>2026-05-02T09:35:14.353Z</time></trkpt><trkpt lat="44.138285" lon="8.1064383"><ele>391.99999999999994</ele><time>2026-05-02T09:35:16.354Z</time></trkpt><trkpt lat="44.138335" lon="8.1063767"><ele>392.0</ele><time>2026-05-02T09:35:17.36Z</time></trkpt><trkpt lat="44.1383883" lon="8.1063067"><ele>390.3333333333333</ele><time>2026-05-02T09:35:18.35Z</time></trkpt><trkpt lat="44.138445" lon="8.106235"><ele>388.66666666666663</ele><time>2026-05-02T09:35:19.354Z</time></trkpt><trkpt lat="44.138505" lon="8.1061617"><ele>387.0</ele><time>2026-05-02T09:35:20.354Z</time></trkpt><trkpt lat="44.1385667" lon="8.106085"><ele>385.3333333333333</ele><time>2026-05-02T09:35:21.355Z</time></trkpt><trkpt lat="44.1386283" lon="8.10601"><ele>383.66666666666663</ele><time>2026-05-02T09:35:22.356Z</time></trkpt><trkpt lat="44.1386867" lon="8.1059333"><ele>382.0</ele><time>2026-05-02T09:35:23.353Z</time></trkpt><trkpt lat="44.1387417" lon="8.10585"><ele>382.0</ele><time>2026-05-02T09:35:24.349Z</time></trkpt><trkpt lat="44.1387917" lon="8.105775"><ele>382.0</ele><time>2026-05-02T09:35:25.35Z</time></trkpt><trkpt lat="44.1388417" lon="8.1057017"><ele>382.0</ele><time>2026-05-02T09:35:26.35Z</time></trkpt><trkpt lat="44.1388967" lon="8.1056317"><ele>382.0</ele><time>2026-05-02T09:35:27.353Z</time></trkpt><trkpt lat="44.1389567" lon="8.10556"><ele>382.0</ele><time>2026-05-02T09:35:28.351Z</time></trkpt><trkpt lat="44.1390133" lon="8.105475"><ele>382.0</ele><time>2026-05-02T09:35:29.353Z</time></trkpt><trkpt lat="44.1390633" lon="8.10538"><ele>383.0</ele><time>2026-05-02T09:35:30.35Z</time></trkpt><trkpt lat="44.1391133" lon="8.1052883"><ele>384.0</ele><time>2026-05-02T09:35:31.354Z</time></trkpt><trkpt lat="44.13916" lon="8.1051917"><ele>385.0</ele><time>2026-05-02T09:35:32.351Z</time></trkpt><trkpt lat="44.1392083" lon="8.1051"><ele>386.0</ele><time>2026-05-02T09:35:33.353Z</time></trkpt><trkpt lat="44.1392683" lon="8.1050133"><ele>387.00000000000006</ele><time>2026-05-02T09:35:34.35Z</time></trkpt><trkpt lat="44.1393417" lon="8.1049267"><ele>388.0</ele><time>2026-05-02T09:35:35.35Z</time></trkpt><trkpt lat="44.1394217" lon="8.1048417"><ele>383.59999999999997</ele><time>2026-05-02T09:35:36.352Z</time></trkpt><trkpt lat="44.1395067" lon="8.1047467"><ele>379.2</ele><time>2026-05-02T09:35:37.349Z</time></trkpt><trkpt lat="44.13959" lon="8.1046467"><ele>374.8</ele><time>2026-05-02T09:35:38.352Z</time></trkpt><trkpt lat="44.1396767" lon="8.1045433"><ele>370.4</ele><time>2026-05-02T09:35:39.352Z</time></trkpt><trkpt lat="44.139765" lon="8.1044417"><ele>366.0</ele><time>2026-05-02T09:35:40.354Z</time></trkpt><trkpt lat="44.1398517" lon="8.1043433"><ele>367.4</ele><time>2026-05-02T09:35:41.35Z</time></trkpt><trkpt lat="44.1399283" lon="8.1042433"><ele>368.8</ele><time>2026-05-02T09:35:42.35Z</time></trkpt><trkpt lat="44.1399967" lon="8.1041417"><ele>370.2</ele><time>2026-05-02T09:35:43.354Z</time></trkpt><trkpt lat="44.1400583" lon="8.1040367"><ele>371.59999999999997</ele><time>2026-05-02T09:35:44.351Z</time></trkpt><trkpt lat="44.1401133" lon="8.10392"><ele>373.0</ele><time>2026-05-02T09:35:45.351Z</time></trkpt><trkpt lat="44.1401633" lon="8.1037967"><ele>373.0</ele><time>2026-05-02T09:35:46.354Z</time></trkpt><trkpt lat="44.140205" lon="8.1036633"><ele>373.0</ele><time>2026-05-02T09:35:47.352Z</time></trkpt><trkpt lat="44.1402367" lon="8.10353"><ele>373.0</ele><time>2026-05-02T09:35:48.354Z</time></trkpt><trkpt lat="44.1402667" lon="8.1033967"><ele>373.0</ele><time>2026-05-02T09:35:49.354Z</time></trkpt><trkpt lat="44.140295" lon="8.1032667"><ele>373.0</ele><time>2026-05-02T09:35:50.355Z</time></trkpt><trkpt lat="44.1403183" lon="8.1031417"><ele>374.5</ele><time>2026-05-02T09:35:51.355Z</time></trkpt><trkpt lat="44.14033" lon="8.1030117"><ele>376.0</ele><time>2026-05-02T09:35:52.355Z</time></trkpt><trkpt lat="44.140325" lon="8.1028917"><ele>377.5</ele><time>2026-05-02T09:35:53.355Z</time></trkpt><trkpt lat="44.1403033" lon="8.1027783"><ele>379.0</ele><time>2026-05-02T09:35:54.352Z</time></trkpt><trkpt lat="44.14027" lon="8.1026833"><ele>380.5</ele><time>2026-05-02T09:35:55.357Z</time></trkpt><trkpt lat="44.1402233" lon="8.1025883"><ele>382.0</ele><time>2026-05-02T09:35:56.35Z</time></trkpt><trkpt lat="44.1401633" lon="8.1025117"><ele>382.0</ele><time>2026-05-02T09:35:57.352Z</time></trkpt><trkpt lat="44.140095" lon="8.1024433"><ele>382.0</ele><time>2026-05-02T09:35:58.356Z</time></trkpt><trkpt lat="44.140025" lon="8.1023683"><ele>382.0</ele><time>2026-05-02T09:35:59.352Z</time></trkpt><trkpt lat="44.1399467" lon="8.102295"><ele>382.0</ele><time>2026-05-02T09:36:00.353Z</time></trkpt><trkpt lat="44.139865" lon="8.102215"><ele>382.0</ele><time>2026-05-02T09:36:01.35Z</time></trkpt><trkpt lat="44.139785" lon="8.1021417"><ele>377.66666666666663</ele><time>2026-05-02T09:36:02.352Z</time></trkpt><trkpt lat="44.13971" lon="8.102065"><ele>373.3333333333333</ele><time>2026-05-02T09:36:03.352Z</time></trkpt><trkpt lat="44.1396467" lon="8.1019917"><ele>369.0</ele><time>2026-05-02T09:36:04.354Z</time></trkpt><trkpt lat="44.1395967" lon="8.101915"><ele>364.6666666666667</ele><time>2026-05-02T09:36:05.349Z</time></trkpt><trkpt lat="44.13957" lon="8.1018267"><ele>360.33333333333337</ele><time>2026-05-02T09:36:06.351Z</time></trkpt><trkpt lat="44.1395667" lon="8.101735"><ele>356.0</ele><time>2026-05-02T09:36:07.357Z</time></trkpt><trkpt lat="44.13959" lon="8.10165"><ele>356.0</ele><time>2026-05-02T09:36:08.35Z</time></trkpt><trkpt lat="44.13964" lon="8.101585"><ele>356.0</ele><time>2026-05-02T09:36:09.359Z</time></trkpt><trkpt lat="44.1396967" lon="8.101535"><ele>356.0</ele><time>2026-05-02T09:36:10.358Z</time></trkpt><trkpt lat="44.1397733" lon="8.10151"><ele>356.0</ele><time>2026-05-02T09:36:11.355Z</time></trkpt><trkpt lat="44.1398483" lon="8.1014767"><ele>356.0</ele><time>2026-05-02T09:36:12.356Z</time></trkpt><trkpt lat="44.1399167" lon="8.1014217"><ele>356.0</ele><time>2026-05-02T09:36:13.351Z</time></trkpt><trkpt lat="44.1399767" lon="8.1013383"><ele>361.20000000000005</ele><time>2026-05-02T09:36:14.355Z</time></trkpt><trkpt lat="44.1400317" lon="8.1012283"><ele>366.40000000000003</ele><time>2026-05-02T09:36:15.353Z</time></trkpt><trkpt lat="44.1400883" lon="8.1010967"><ele>371.6</ele><time>2026-05-02T09:36:16.35Z</time></trkpt><trkpt lat="44.1401467" lon="8.1009633"><ele>376.8</ele><time>2026-05-02T09:36:17.352Z</time></trkpt><trkpt lat="44.1402017" lon="8.1008317"><ele>382.0</ele><time>2026-05-02T09:36:18.356Z</time></trkpt><trkpt lat="44.140255" lon="8.100715"><ele>383.20000000000005</ele><time>2026-05-02T09:36:19.352Z</time></trkpt><trkpt lat="44.1403033" lon="8.10061"><ele>384.4</ele><time>2026-05-02T09:36:20.362Z</time></trkpt><trkpt lat="44.140335" lon="8.1005133"><ele>385.6</ele><time>2026-05-02T09:36:21.353Z</time></trkpt><trkpt lat="44.1403233" lon="8.100365"><ele>386.79999999999995</ele><time>2026-05-02T09:36:23.351Z</time></trkpt><trkpt lat="44.1402133" lon="8.10033"><ele>388.0</ele><time>2026-05-02T09:36:25.354Z</time></trkpt><trkpt lat="44.1401367" lon="8.1003483"><ele>388.0</ele><time>2026-05-02T09:36:26.354Z</time></trkpt><trkpt lat="44.1400467" lon="8.100385"><ele>388.0</ele><time>2026-05-02T09:36:27.359Z</time></trkpt><trkpt lat="44.1399467" lon="8.100445"><ele>388.0</ele><time>2026-05-02T09:36:28.352Z</time></trkpt><trkpt lat="44.13985" lon="8.100515"><ele>388.0</ele><time>2026-05-02T09:36:29.358Z</time></trkpt><trkpt lat="44.1397567" lon="8.1005833"><ele>388.0</ele><time>2026-05-02T09:36:30.357Z</time></trkpt><trkpt lat="44.1396683" lon="8.1006283"><ele>383.50000000000006</ele><time>2026-05-02T09:36:31.358Z</time></trkpt><trkpt lat="44.1395833" lon="8.100635"><ele>379.0</ele><time>2026-05-02T09:36:32.354Z</time></trkpt><trkpt lat="44.139495" lon="8.10062"><ele>374.5</ele><time>2026-05-02T09:36:33.353Z</time></trkpt><trkpt lat="44.1394133" lon="8.1005867"><ele>370.0</ele><time>2026-05-02T09:36:34.351Z</time></trkpt><trkpt lat="44.1393417" lon="8.1005417"><ele>365.5</ele><time>2026-05-02T09:36:35.354Z</time></trkpt><trkpt lat="44.13929" lon="8.1004883"><ele>361.0</ele><time>2026-05-02T09:36:36.351Z</time></trkpt><trkpt lat="44.139245" lon="8.1004233"><ele>361.0</ele><time>2026-05-02T09:36:38.352Z</time></trkpt><trkpt lat="44.1392583" lon="8.10033"><ele>361.0</ele><time>2026-05-02T09:36:44.357Z</time></trkpt><trkpt lat="44.1392783" lon="8.100175"><ele>361.0</ele><time>2026-05-02T09:36:46.353Z</time></trkpt><trkpt lat="44.1392967" lon="8.1000583"><ele>361.0</ele><time>2026-05-02T09:36:47.355Z</time></trkpt><trkpt lat="44.1393167" lon="8.0999317"><ele>361.0</ele><time>2026-05-02T09:36:48.349Z</time></trkpt><trkpt lat="44.1393417" lon="8.0997967"><ele>359.25</ele><time>2026-05-02T09:36:49.353Z</time></trkpt><trkpt lat="44.1393717" lon="8.0996517"><ele>357.5</ele><time>2026-05-02T09:36:50.35Z</time></trkpt><trkpt lat="44.139395" lon="8.0995"><ele>355.75</ele><time>2026-05-02T09:36:51.355Z</time></trkpt><trkpt lat="44.1393967" lon="8.0993383"><ele>354.0</ele><time>2026-05-02T09:36:52.353Z</time></trkpt><trkpt lat="44.139385" lon="8.09917"><ele>352.25</ele><time>2026-05-02T09:36:53.349Z</time></trkpt><trkpt lat="44.1393633" lon="8.0990017"><ele>350.5</ele><time>2026-05-02T09:36:54.351Z</time></trkpt><trkpt lat="44.1393383" lon="8.0988417"><ele>348.75</ele><time>2026-05-02T09:36:55.349Z</time></trkpt><trkpt lat="44.1393283" lon="8.0986833"><ele>347.0</ele><time>2026-05-02T09:36:56.353Z</time></trkpt><trkpt lat="44.1393233" lon="8.0985217"><ele>347.0</ele><time>2026-05-02T09:36:57.354Z</time></trkpt><trkpt lat="44.1393317" lon="8.098365"><ele>347.0</ele><time>2026-05-02T09:36:58.352Z</time></trkpt><trkpt lat="44.139345" lon="8.0982167"><ele>347.0</ele><time>2026-05-02T09:36:59.353Z</time></trkpt><trkpt lat="44.13937" lon="8.0980683"><ele>347.0</ele><time>2026-05-02T09:37:00.354Z</time></trkpt><trkpt lat="44.1394017" lon="8.0979233"><ele>347.0</ele><time>2026-05-02T09:37:01.353Z</time></trkpt><trkpt lat="44.1394383" lon="8.0977933"><ele>345.0</ele><time>2026-05-02T09:37:02.349Z</time></trkpt><trkpt lat="44.13948" lon="8.09768"><ele>343.0</ele><time>2026-05-02T09:37:03.351Z</time></trkpt><trkpt lat="44.1395317" lon="8.09759"><ele>341.0</ele><time>2026-05-02T09:37:04.354Z</time></trkpt><trkpt lat="44.139595" lon="8.0975183"><ele>339.0</ele><time>2026-05-02T09:37:05.349Z</time></trkpt><trkpt lat="44.1396583" lon="8.0974633"><ele>337.0</ele><time>2026-05-02T09:37:06.352Z</time></trkpt><trkpt lat="44.13971" lon="8.0974017"><ele>335.0</ele><time>2026-05-02T09:37:07.356Z</time></trkpt><trkpt lat="44.1397617" lon="8.0972833"><ele>332.0</ele><time>2026-05-02T09:37:09.352Z</time></trkpt><trkpt lat="44.1397283" lon="8.0971983"><ele>329.0</ele><time>2026-05-02T09:37:11.351Z</time></trkpt><trkpt lat="44.139725" lon="8.0970467"><ele>326.0</ele><time>2026-05-02T09:37:13.354Z</time></trkpt><trkpt lat="44.1397367" lon="8.096925"><ele>323.0</ele><time>2026-05-02T09:37:14.353Z</time></trkpt><trkpt lat="44.1397483" lon="8.096795"><ele>320.0</ele><time>2026-05-02T09:37:15.358Z</time></trkpt><trkpt lat="44.1397783" lon="8.0966683"><ele>321.2</ele><time>2026-05-02T09:37:16.35Z</time></trkpt><trkpt lat="44.1398383" lon="8.09657"><ele>322.4</ele><time>2026-05-02T09:37:17.357Z</time></trkpt><trkpt lat="44.1399183" lon="8.0965067"><ele>323.6</ele><time>2026-05-02T09:37:18.352Z</time></trkpt><trkpt lat="44.1400183" lon="8.0964883"><ele>324.8</ele><time>2026-05-02T09:37:19.356Z</time></trkpt><trkpt lat="44.1401267" lon="8.0965167"><ele>326.0</ele><time>2026-05-02T09:37:20.355Z</time></trkpt><trkpt lat="44.1402317" lon="8.09658"><ele>333.5</ele><time>2026-05-02T09:37:21.359Z</time></trkpt><trkpt lat="44.14034" lon="8.0966517"><ele>341.0</ele><time>2026-05-02T09:37:22.354Z</time></trkpt><trkpt lat="44.1404517" lon="8.0967067"><ele>348.5</ele><time>2026-05-02T09:37:23.354Z</time></trkpt><trkpt lat="44.14057" lon="8.09674"><ele>356.0</ele><time>2026-05-02T09:37:24.35Z</time></trkpt><trkpt lat="44.1406883" lon="8.096765"><ele>356.75</ele><time>2026-05-02T09:37:25.351Z</time></trkpt><trkpt lat="44.1408083" lon="8.09679"><ele>357.5</ele><time>2026-05-02T09:37:26.352Z</time></trkpt><trkpt lat="44.1409317" lon="8.0968317"><ele>358.25</ele><time>2026-05-02T09:37:27.354Z</time></trkpt><trkpt lat="44.141065" lon="8.0968867"><ele>359.0</ele><time>2026-05-02T09:37:28.352Z</time></trkpt><trkpt lat="44.1411983" lon="8.096945"><ele>359.0</ele><time>2026-05-02T09:37:29.35Z</time></trkpt><trkpt lat="44.1413233" lon="8.0969983"><ele>359.0</ele><time>2026-05-02T09:37:30.35Z</time></trkpt><trkpt lat="44.1414333" lon="8.0970383"><ele>359.0</ele><time>2026-05-02T09:37:31.35Z</time></trkpt><trkpt lat="44.1415217" lon="8.0970467"><ele>359.0</ele><time>2026-05-02T09:37:32.349Z</time></trkpt><trkpt lat="44.141605" lon="8.0970183"><ele>359.0</ele><time>2026-05-02T09:37:33.355Z</time></trkpt><trkpt lat="44.141685" lon="8.0969633"><ele>359.0</ele><time>2026-05-02T09:37:34.353Z</time></trkpt><trkpt lat="44.14177" lon="8.0968583"><ele>359.0</ele><time>2026-05-02T09:37:35.353Z</time></trkpt><trkpt lat="44.1418567" lon="8.0967467"><ele>359.0</ele><time>2026-05-02T09:37:36.355Z</time></trkpt><trkpt lat="44.1419467" lon="8.0966483"><ele>359.0</ele><time>2026-05-02T09:37:37.351Z</time></trkpt><trkpt lat="44.1420283" lon="8.0965517"><ele>358.2</ele><time>2026-05-02T09:37:38.352Z</time></trkpt><trkpt lat="44.142085" lon="8.0964333"><ele>357.4</ele><time>2026-05-02T09:37:39.349Z</time></trkpt><trkpt lat="44.1421083" lon="8.0963017"><ele>356.6</ele><time>2026-05-02T09:37:40.353Z</time></trkpt><trkpt lat="44.1421133" lon="8.0961683"><ele>355.8</ele><time>2026-05-02T09:37:41.351Z</time></trkpt><trkpt lat="44.1420633" lon="8.0960317"><ele>355.0</ele><time>2026-05-02T09:37:42.353Z</time></trkpt><trkpt lat="44.142" lon="8.0959"><ele>355.0</ele><time>2026-05-02T09:37:43.352Z</time></trkpt><trkpt lat="44.1419367" lon="8.095765"><ele>355.0</ele><time>2026-05-02T09:37:44.352Z</time></trkpt><trkpt lat="44.1418833" lon="8.0956283"><ele>355.0</ele><time>2026-05-02T09:37:45.353Z</time></trkpt><trkpt lat="44.14181" lon="8.095515"><ele>355.0</ele><time>2026-05-02T09:37:46.356Z</time></trkpt><trkpt lat="44.141715" lon="8.095415"><ele>354.75</ele><time>2026-05-02T09:37:47.35Z</time></trkpt><trkpt lat="44.1416183" lon="8.0953167"><ele>354.5</ele><time>2026-05-02T09:37:48.351Z</time></trkpt><trkpt lat="44.141525" lon="8.0952217"><ele>354.25</ele><time>2026-05-02T09:37:49.355Z</time></trkpt><trkpt lat="44.1414383" lon="8.0951233"><ele>354.0</ele><time>2026-05-02T09:37:50.353Z</time></trkpt><trkpt lat="44.1413533" lon="8.0950233"><ele>354.0</ele><time>2026-05-02T09:37:51.355Z</time></trkpt><trkpt lat="44.1412733" lon="8.0949317"><ele>354.0</ele><time>2026-05-02T09:37:52.35Z</time></trkpt><trkpt lat="44.1412" lon="8.09484"><ele>354.0</ele><time>2026-05-02T09:37:53.351Z</time></trkpt><trkpt lat="44.1411283" lon="8.0947533"><ele>354.0</ele><time>2026-05-02T09:37:54.356Z</time></trkpt><trkpt lat="44.14106" lon="8.0946683"><ele>354.0</ele><time>2026-05-02T09:37:55.358Z</time></trkpt><trkpt lat="44.140985" lon="8.0945917"><ele>352.4</ele><time>2026-05-02T09:37:56.355Z</time></trkpt><trkpt lat="44.1409067" lon="8.094515"><ele>350.79999999999995</ele><time>2026-05-02T09:37:57.355Z</time></trkpt><trkpt lat="44.1408233" lon="8.0944367"><ele>349.20000000000005</ele><time>2026-05-02T09:37:58.349Z</time></trkpt><trkpt lat="44.1407517" lon="8.094345"><ele>347.6</ele><time>2026-05-02T09:37:59.351Z</time></trkpt><trkpt lat="44.1406917" lon="8.0942333"><ele>346.0</ele><time>2026-05-02T09:38:00.351Z</time></trkpt><trkpt lat="44.140645" lon="8.0941117"><ele>346.6</ele><time>2026-05-02T09:38:01.354Z</time></trkpt><trkpt lat="44.1406183" lon="8.093985"><ele>347.20000000000005</ele><time>2026-05-02T09:38:02.351Z</time></trkpt><trkpt lat="44.1406117" lon="8.0938417"><ele>347.79999999999995</ele><time>2026-05-02T09:38:03.351Z</time></trkpt><trkpt lat="44.140615" lon="8.0936817"><ele>348.4</ele><time>2026-05-02T09:38:04.349Z</time></trkpt><trkpt lat="44.1406333" lon="8.0935067"><ele>349.0</ele><time>2026-05-02T09:38:05.349Z</time></trkpt><trkpt lat="44.1406517" lon="8.0933333"><ele>351.79999999999995</ele><time>2026-05-02T09:38:06.359Z</time></trkpt><trkpt lat="44.1406617" lon="8.0931733"><ele>354.59999999999997</ele><time>2026-05-02T09:38:07.353Z</time></trkpt><trkpt lat="44.1406517" lon="8.0930333"><ele>357.4</ele><time>2026-05-02T09:38:08.351Z</time></trkpt><trkpt lat="44.14061" lon="8.0929067"><ele>360.2</ele><time>2026-05-02T09:38:09.351Z</time></trkpt><trkpt lat="44.1405433" lon="8.0927917"><ele>363.0</ele><time>2026-05-02T09:38:10.349Z</time></trkpt><trkpt lat="44.1404667" lon="8.0926833"><ele>363.0</ele><time>2026-05-02T09:38:11.352Z</time></trkpt><trkpt lat="44.140395" lon="8.0925867"><ele>363.0</ele><time>2026-05-02T09:38:12.356Z</time></trkpt><trkpt lat="44.1403417" lon="8.0924933"><ele>363.0</ele><time>2026-05-02T09:38:13.352Z</time></trkpt><trkpt lat="44.1403067" lon="8.0923917"><ele>363.0</ele><time>2026-05-02T09:38:14.349Z</time></trkpt><trkpt lat="44.1402933" lon="8.0922767"><ele>363.0</ele><time>2026-05-02T09:38:15.35Z</time></trkpt><trkpt lat="44.1403033" lon="8.0921417"><ele>363.0</ele><time>2026-05-02T09:38:16.35Z</time></trkpt><trkpt lat="44.140345" lon="8.0919833"><ele>363.75</ele><time>2026-05-02T09:38:17.35Z</time></trkpt><trkpt lat="44.1404067" lon="8.0918417"><ele>364.5</ele><time>2026-05-02T09:38:18.35Z</time></trkpt><trkpt lat="44.140485" lon="8.091705"><ele>365.25</ele><time>2026-05-02T09:38:19.359Z</time></trkpt><trkpt lat="44.1405783" lon="8.0915667"><ele>366.0</ele><time>2026-05-02T09:38:20.353Z</time></trkpt><trkpt lat="44.1406817" lon="8.0914217"><ele>372.5</ele><time>2026-05-02T09:38:21.351Z</time></trkpt><trkpt lat="44.1407833" lon="8.0912783"><ele>379.0</ele><time>2026-05-02T09:38:22.35Z</time></trkpt><trkpt lat="44.1408833" lon="8.09114"><ele>385.5</ele><time>2026-05-02T09:38:23.352Z</time></trkpt><trkpt lat="44.140985" lon="8.091015"><ele>392.0</ele><time>2026-05-02T09:38:24.351Z</time></trkpt><trkpt lat="44.14108" lon="8.0909"><ele>392.0</ele><time>2026-05-02T09:38:25.35Z</time></trkpt><trkpt lat="44.14114" lon="8.09077"><ele>392.0</ele><time>2026-05-02T09:38:26.354Z</time></trkpt><trkpt lat="44.1411767" lon="8.090615"><ele>392.0</ele><time>2026-05-02T09:38:27.352Z</time></trkpt><trkpt lat="44.1412067" lon="8.09045"><ele>392.0</ele><time>2026-05-02T09:38:28.348Z</time></trkpt><trkpt lat="44.1412383" lon="8.09027"><ele>390.5</ele><time>2026-05-02T09:38:29.355Z</time></trkpt><trkpt lat="44.1412667" lon="8.090085"><ele>389.0</ele><time>2026-05-02T09:38:30.359Z</time></trkpt><trkpt lat="44.141285" lon="8.0899067"><ele>387.5</ele><time>2026-05-02T09:38:31.353Z</time></trkpt><trkpt lat="44.1412983" lon="8.0897433"><ele>386.0</ele><time>2026-05-02T09:38:32.352Z</time></trkpt><trkpt lat="44.1413133" lon="8.0895917"><ele>385.0</ele><time>2026-05-02T09:38:33.358Z</time></trkpt><trkpt lat="44.1413333" lon="8.0894483"><ele>384.0</ele><time>2026-05-02T09:38:34.354Z</time></trkpt><trkpt lat="44.1413567" lon="8.0893167"><ele>383.0</ele><time>2026-05-02T09:38:35.356Z</time></trkpt><trkpt lat="44.1413767" lon="8.089185"><ele>382.0</ele><time>2026-05-02T09:38:36.352Z</time></trkpt><trkpt lat="44.141395" lon="8.0890617"><ele>381.0</ele><time>2026-05-02T09:38:37.349Z</time></trkpt><trkpt lat="44.1414167" lon="8.0889483"><ele>381.0</ele><time>2026-05-02T09:38:38.35Z</time></trkpt><trkpt lat="44.1414433" lon="8.0888533"><ele>381.0</ele><time>2026-05-02T09:38:39.352Z</time></trkpt><trkpt lat="44.1414617" lon="8.0887283"><ele>381.0</ele><time>2026-05-02T09:38:41.353Z</time></trkpt><trkpt lat="44.1414067" lon="8.0887867"><ele>381.0</ele><time>2026-05-02T09:38:45.351Z</time></trkpt><trkpt lat="44.1413983" lon="8.088925"><ele>381.0</ele><time>2026-05-02T09:38:47.353Z</time></trkpt><trkpt lat="44.14139" lon="8.089025"><ele>381.0</ele><time>2026-05-02T09:38:48.35Z</time></trkpt><trkpt lat="44.1413783" lon="8.0891333"><ele>381.0</ele><time>2026-05-02T09:38:49.35Z</time></trkpt><trkpt lat="44.1413667" lon="8.0892417"><ele>381.0</ele><time>2026-05-02T09:38:50.35Z</time></trkpt><trkpt lat="44.1413533" lon="8.08937"><ele>381.0</ele><time>2026-05-02T09:38:51.355Z</time></trkpt><trkpt lat="44.141335" lon="8.0895167"><ele>381.0</ele><time>2026-05-02T09:38:52.351Z</time></trkpt><trkpt lat="44.1413083" lon="8.089665"><ele>381.0</ele><time>2026-05-02T09:38:53.351Z</time></trkpt><trkpt lat="44.1412867" lon="8.0898183"><ele>382.0</ele><time>2026-05-02T09:38:54.351Z</time></trkpt><trkpt lat="44.1412833" lon="8.0899617"><ele>383.0</ele><time>2026-05-02T09:38:55.358Z</time></trkpt><trkpt lat="44.1412683" lon="8.0900983"><ele>384.0</ele><time>2026-05-02T09:38:56.352Z</time></trkpt><trkpt lat="44.141245" lon="8.09023"><ele>385.0</ele><time>2026-05-02T09:38:57.351Z</time></trkpt><trkpt lat="44.1412183" lon="8.09035"><ele>386.0</ele><time>2026-05-02T09:38:58.353Z</time></trkpt><trkpt lat="44.1411917" lon="8.090465"><ele>385.99999999999994</ele><time>2026-05-02T09:38:59.355Z</time></trkpt><trkpt lat="44.1411717" lon="8.0905767"><ele>386.0</ele><time>2026-05-02T09:39:00.352Z</time></trkpt><trkpt lat="44.1411517" lon="8.0906883"><ele>386.0</ele><time>2026-05-02T09:39:01.349Z</time></trkpt><trkpt lat="44.1411267" lon="8.0907883"><ele>386.0</ele><time>2026-05-02T09:39:02.35Z</time></trkpt><trkpt lat="44.1410867" lon="8.0908817"><ele>385.99999999999994</ele><time>2026-05-02T09:39:03.353Z</time></trkpt><trkpt lat="44.1410333" lon="8.090955"><ele>386.0</ele><time>2026-05-02T09:39:04.349Z</time></trkpt><trkpt lat="44.1409667" lon="8.0910267"><ele>387.20000000000005</ele><time>2026-05-02T09:39:05.352Z</time></trkpt><trkpt lat="44.1408967" lon="8.0911133"><ele>388.40000000000003</ele><time>2026-05-02T09:39:06.354Z</time></trkpt><trkpt lat="44.14082" lon="8.0912133"><ele>389.6</ele><time>2026-05-02T09:39:07.352Z</time></trkpt><trkpt lat="44.140745" lon="8.0913183"><ele>390.8</ele><time>2026-05-02T09:39:08.353Z</time></trkpt><trkpt lat="44.1406717" lon="8.09142"><ele>392.0</ele><time>2026-05-02T09:39:09.351Z</time></trkpt><trkpt lat="44.1406" lon="8.0915183"><ele>387.99999999999994</ele><time>2026-05-02T09:39:10.354Z</time></trkpt><trkpt lat="44.1405283" lon="8.0916133"><ele>384.0</ele><time>2026-05-02T09:39:11.352Z</time></trkpt><trkpt lat="44.1404633" lon="8.091705"><ele>380.0</ele><time>2026-05-02T09:39:12.353Z</time></trkpt><trkpt lat="44.1404133" lon="8.0917883"><ele>376.0</ele><time>2026-05-02T09:39:13.348Z</time></trkpt><trkpt lat="44.1403417" lon="8.0918683"><ele>372.0</ele><time>2026-05-02T09:39:15.35Z</time></trkpt><trkpt lat="44.1403417" lon="8.09176"><ele>368.0</ele><time>2026-05-02T09:39:19.35Z</time></trkpt><trkpt lat="44.1403933" lon="8.0916567"><ele>367.6666666666667</ele><time>2026-05-02T09:39:21.356Z</time></trkpt><trkpt lat="44.1404583" lon="8.09152"><ele>367.33333333333337</ele><time>2026-05-02T09:39:23.354Z</time></trkpt><trkpt lat="44.1404967" lon="8.0914467"><ele>367.0</ele><time>2026-05-02T09:39:24.355Z</time></trkpt><trkpt lat="44.1405383" lon="8.0913733"><ele>366.6666666666667</ele><time>2026-05-02T09:39:25.35Z</time></trkpt><trkpt lat="44.14058" lon="8.0912967"><ele>366.3333333333333</ele><time>2026-05-02T09:39:26.353Z</time></trkpt><trkpt lat="44.1406167" lon="8.0912017"><ele>366.0</ele><time>2026-05-02T09:39:27.351Z</time></trkpt><trkpt lat="44.1406483" lon="8.0911033"><ele>366.0</ele><time>2026-05-02T09:39:28.353Z</time></trkpt><trkpt lat="44.1406767" lon="8.091005"><ele>366.0</ele><time>2026-05-02T09:39:29.353Z</time></trkpt><trkpt lat="44.1406967" lon="8.0909117"><ele>366.0</ele><time>2026-05-02T09:39:30.353Z</time></trkpt><trkpt lat="44.140685" lon="8.0907633"><ele>366.0</ele><time>2026-05-02T09:39:32.358Z</time></trkpt><trkpt lat="44.1406017" lon="8.0907067"><ele>366.0</ele><time>2026-05-02T09:39:34.35Z</time></trkpt><trkpt lat="44.1404817" lon="8.0906633"><ele>365.0</ele><time>2026-05-02T09:39:36.357Z</time></trkpt><trkpt lat="44.140415" lon="8.0906233"><ele>364.0</ele><time>2026-05-02T09:39:37.354Z</time></trkpt><trkpt lat="44.1403517" lon="8.0905767"><ele>363.0</ele><time>2026-05-02T09:39:38.356Z</time></trkpt><trkpt lat="44.1402633" lon="8.0904583"><ele>362.0</ele><time>2026-05-02T09:39:40.352Z</time></trkpt><trkpt lat="44.140225" lon="8.090315"><ele>361.0</ele><time>2026-05-02T09:39:42.352Z</time></trkpt><trkpt lat="44.1402717" lon="8.0901633"><ele>361.0</ele><time>2026-05-02T09:39:44.356Z</time></trkpt><trkpt lat="44.1403217" lon="8.09008"><ele>361.0</ele><time>2026-05-02T09:39:45.358Z</time></trkpt><trkpt lat="44.1403717" lon="8.0900033"><ele>361.0</ele><time>2026-05-02T09:39:46.351Z</time></trkpt><trkpt lat="44.1404217" lon="8.089945"><ele>361.0</ele><time>2026-05-02T09:39:47.35Z</time></trkpt><trkpt lat="44.1405117" lon="8.089855"><ele>361.0</ele><time>2026-05-02T09:39:49.355Z</time></trkpt><trkpt lat="44.14058" lon="8.0897933"><ele>361.0</ele><time>2026-05-02T09:39:51.35Z</time></trkpt><trkpt lat="44.1406367" lon="8.0897533"><ele>358.0</ele><time>2026-05-02T09:39:53.351Z</time></trkpt><trkpt lat="44.1407" lon="8.089695"><ele>355.0</ele><time>2026-05-02T09:39:55.349Z</time></trkpt><trkpt lat="44.14079" lon="8.08959"><ele>352.0</ele><time>2026-05-02T09:39:57.352Z</time></trkpt><trkpt lat="44.1408517" lon="8.0894383"><ele>349.0</ele><time>2026-05-02T09:39:59.353Z</time></trkpt><trkpt lat="44.1408567" lon="8.0893483"><ele>346.0</ele><time>2026-05-02T09:40:00.353Z</time></trkpt><trkpt lat="44.1408517" lon="8.0892517"><ele>345.5</ele><time>2026-05-02T09:40:01.353Z</time></trkpt><trkpt lat="44.1408283" lon="8.0891517"><ele>345.0</ele><time>2026-05-02T09:40:02.35Z</time></trkpt><trkpt lat="44.14079" lon="8.0890483"><ele>344.5</ele><time>2026-05-02T09:40:03.356Z</time></trkpt><trkpt lat="44.14074" lon="8.0889433"><ele>344.0</ele><time>2026-05-02T09:40:04.353Z</time></trkpt><trkpt lat="44.140695" lon="8.0888567"><ele>343.5</ele><time>2026-05-02T09:40:05.355Z</time></trkpt><trkpt lat="44.1406517" lon="8.0887733"><ele>343.0</ele><time>2026-05-02T09:40:06.35Z</time></trkpt><trkpt lat="44.1406317" lon="8.0886117"><ele>343.0</ele><time>2026-05-02T09:40:08.353Z</time></trkpt><trkpt lat="44.140655" lon="8.0885167"><ele>343.0</ele><time>2026-05-02T09:40:09.356Z</time></trkpt><trkpt lat="44.1406667" lon="8.088405"><ele>343.0</ele><time>2026-05-02T09:40:10.35Z</time></trkpt><trkpt lat="44.1406633" lon="8.088285"><ele>343.0</ele><time>2026-05-02T09:40:11.354Z</time></trkpt><trkpt lat="44.140655" lon="8.0881667"><ele>343.0</ele><time>2026-05-02T09:40:12.351Z</time></trkpt><trkpt lat="44.1406533" lon="8.088055"><ele>343.0</ele><time>2026-05-02T09:40:13.353Z</time></trkpt><trkpt lat="44.1406633" lon="8.087945"><ele>343.3333333333333</ele><time>2026-05-02T09:40:14.354Z</time></trkpt><trkpt lat="44.14068" lon="8.0878467"><ele>343.66666666666663</ele><time>2026-05-02T09:40:15.351Z</time></trkpt><trkpt lat="44.1407083" lon="8.0877567"><ele>344.0</ele><time>2026-05-02T09:40:16.354Z</time></trkpt><trkpt lat="44.1407967" lon="8.0876267"><ele>344.3333333333333</ele><time>2026-05-02T09:40:18.35Z</time></trkpt><trkpt lat="44.140855" lon="8.0875783"><ele>344.6666666666667</ele><time>2026-05-02T09:40:19.35Z</time></trkpt><trkpt lat="44.1409133" lon="8.087525"><ele>345.0</ele><time>2026-05-02T09:40:20.352Z</time></trkpt><trkpt lat="44.14097" lon="8.0874517"><ele>345.8</ele><time>2026-05-02T09:40:21.351Z</time></trkpt><trkpt lat="44.1410233" lon="8.0873583"><ele>346.6</ele><time>2026-05-02T09:40:22.352Z</time></trkpt><trkpt lat="44.14108" lon="8.0872567"><ele>347.4</ele><time>2026-05-02T09:40:23.351Z</time></trkpt><trkpt lat="44.14113" lon="8.08715"><ele>348.2</ele><time>2026-05-02T09:40:24.351Z</time></trkpt><trkpt lat="44.1411767" lon="8.0870567"><ele>349.0</ele><time>2026-05-02T09:40:25.352Z</time></trkpt><trkpt lat="44.1412317" lon="8.086935"><ele>349.0</ele><time>2026-05-02T09:40:27.352Z</time></trkpt><trkpt lat="44.141185" lon="8.08687"><ele>349.0</ele><time>2026-05-02T09:40:30.352Z</time></trkpt><trkpt lat="44.14113" lon="8.086945"><ele>349.0</ele><time>2026-05-02T09:40:32.351Z</time></trkpt><trkpt lat="44.1410483" lon="8.0870867"><ele>349.0</ele><time>2026-05-02T09:40:34.358Z</time></trkpt><trkpt lat="44.140995" lon="8.0871467"><ele>349.0</ele><time>2026-05-02T09:40:35.349Z</time></trkpt><trkpt lat="44.1409333" lon="8.0871817"><ele>349.0</ele><time>2026-05-02T09:40:36.355Z</time></trkpt><trkpt lat="44.14087" lon="8.0871933"><ele>349.0</ele><time>2026-05-02T09:40:37.351Z</time></trkpt><trkpt lat="44.1407433" lon="8.0871617"><ele>349.0</ele><time>2026-05-02T09:40:39.35Z</time></trkpt><trkpt lat="44.140665" lon="8.0871533"><ele>349.0</ele><time>2026-05-02T09:40:40.35Z</time></trkpt><trkpt lat="44.140585" lon="8.0871617"><ele>349.0</ele><time>2026-05-02T09:40:41.352Z</time></trkpt><trkpt lat="44.140515" lon="8.087175"><ele>349.0</ele><time>2026-05-02T09:40:42.35Z</time></trkpt><trkpt lat="44.1404483" lon="8.0871967"><ele>349.0</ele><time>2026-05-02T09:40:43.354Z</time></trkpt><trkpt lat="44.1403783" lon="8.0872317"><ele>348.2</ele><time>2026-05-02T09:40:44.354Z</time></trkpt><trkpt lat="44.14031" lon="8.0872817"><ele>347.4</ele><time>2026-05-02T09:40:45.35Z</time></trkpt><trkpt lat="44.140255" lon="8.0873383"><ele>346.6</ele><time>2026-05-02T09:40:46.353Z</time></trkpt><trkpt lat="44.140175" lon="8.0874283"><ele>345.8</ele><time>2026-05-02T09:40:48.349Z</time></trkpt><trkpt lat="44.140145" lon="8.087315"><ele>345.0</ele><time>2026-05-02T09:40:52.35Z</time></trkpt><trkpt lat="44.1401933" lon="8.08715"><ele>343.0</ele><time>2026-05-02T09:40:54.356Z</time></trkpt><trkpt lat="44.1402267" lon="8.0870633"><ele>341.0</ele><time>2026-05-02T09:40:55.357Z</time></trkpt><trkpt lat="44.1402633" lon="8.0869833"><ele>339.0</ele><time>2026-05-02T09:40:56.353Z</time></trkpt><trkpt lat="44.1403067" lon="8.086905"><ele>337.0</ele><time>2026-05-02T09:40:57.355Z</time></trkpt><trkpt lat="44.1403683" lon="8.08684"><ele>335.0</ele><time>2026-05-02T09:40:58.354Z</time></trkpt><trkpt lat="44.1404433" lon="8.0868017"><ele>333.0</ele><time>2026-05-02T09:40:59.351Z</time></trkpt><trkpt lat="44.1405217" lon="8.0867817"><ele>331.0</ele><time>2026-05-02T09:41:00.354Z</time></trkpt><trkpt lat="44.1406017" lon="8.0867733"><ele>331.0</ele><time>2026-05-02T09:41:01.356Z</time></trkpt><trkpt lat="44.140675" lon="8.08677"><ele>331.0</ele><time>2026-05-02T09:41:02.355Z</time></trkpt><trkpt lat="44.14074" lon="8.0867617"><ele>331.0</ele><time>2026-05-02T09:41:03.354Z</time></trkpt><trkpt lat="44.140845" lon="8.0866867"><ele>331.0</ele><time>2026-05-02T09:41:05.353Z</time></trkpt><trkpt lat="44.1409117" lon="8.0865433"><ele>331.0</ele><time>2026-05-02T09:41:07.352Z</time></trkpt><trkpt lat="44.140935" lon="8.08645"><ele>331.3333333333333</ele><time>2026-05-02T09:41:08.351Z</time></trkpt><trkpt lat="44.1409517" lon="8.0863367"><ele>331.66666666666663</ele><time>2026-05-02T09:41:09.353Z</time></trkpt><trkpt lat="44.1409617" lon="8.0862183"><ele>332.0</ele><time>2026-05-02T09:41:10.353Z</time></trkpt><trkpt lat="44.1409767" lon="8.086095"><ele>332.3333333333333</ele><time>2026-05-02T09:41:11.354Z</time></trkpt><trkpt lat="44.141" lon="8.0859817"><ele>332.6666666666667</ele><time>2026-05-02T09:41:12.358Z</time></trkpt><trkpt lat="44.14103" lon="8.0858833"><ele>333.0</ele><time>2026-05-02T09:41:13.349Z</time></trkpt><trkpt lat="44.1410633" lon="8.0858"><ele>331.4</ele><time>2026-05-02T09:41:14.353Z</time></trkpt><trkpt lat="44.1411017" lon="8.0857283"><ele>329.79999999999995</ele><time>2026-05-02T09:41:15.351Z</time></trkpt><trkpt lat="44.1411833" lon="8.0856183"><ele>328.2</ele><time>2026-05-02T09:41:17.352Z</time></trkpt><trkpt lat="44.1412183" lon="8.0854833"><ele>326.6</ele><time>2026-05-02T09:41:19.353Z</time></trkpt><trkpt lat="44.1411683" lon="8.085345"><ele>325.0</ele><time>2026-05-02T09:41:21.353Z</time></trkpt><trkpt lat="44.1411567" lon="8.0852533"><ele>325.0</ele><time>2026-05-02T09:41:22.353Z</time></trkpt><trkpt lat="44.1411683" lon="8.085155"><ele>325.0</ele><time>2026-05-02T09:41:23.353Z</time></trkpt><trkpt lat="44.1412033" lon="8.0850567"><ele>325.0</ele><time>2026-05-02T09:41:24.353Z</time></trkpt><trkpt lat="44.1412567" lon="8.0849483"><ele>325.0</ele><time>2026-05-02T09:41:25.35Z</time></trkpt><trkpt lat="44.1413133" lon="8.084835"><ele>325.0</ele><time>2026-05-02T09:41:26.353Z</time></trkpt><trkpt lat="44.1413717" lon="8.0847283"><ele>325.0</ele><time>2026-05-02T09:41:27.351Z</time></trkpt><trkpt lat="44.1414367" lon="8.0846283"><ele>326.16666666666663</ele><time>2026-05-02T09:41:28.35Z</time></trkpt><trkpt lat="44.1415067" lon="8.0845317"><ele>327.3333333333333</ele><time>2026-05-02T09:41:29.35Z</time></trkpt><trkpt lat="44.1415767" lon="8.0844383"><ele>328.5</ele><time>2026-05-02T09:41:30.353Z</time></trkpt><trkpt lat="44.1416417" lon="8.0843667"><ele>329.6666666666667</ele><time>2026-05-02T09:41:31.355Z</time></trkpt><trkpt lat="44.1417" lon="8.08432"><ele>330.83333333333337</ele><time>2026-05-02T09:41:32.35Z</time></trkpt><trkpt lat="44.1417567" lon="8.0842367"><ele>332.0</ele><time>2026-05-02T09:41:34.352Z</time></trkpt><trkpt lat="44.14166" lon="8.0842183"><ele>332.1666666666667</ele><time>2026-05-02T09:41:37.353Z</time></trkpt><trkpt lat="44.14154" lon="8.0842883"><ele>332.33333333333337</ele><time>2026-05-02T09:41:39.353Z</time></trkpt><trkpt lat="44.14147" lon="8.08431"><ele>332.5</ele><time>2026-05-02T09:41:40.35Z</time></trkpt><trkpt lat="44.1414017" lon="8.0843267"><ele>332.6666666666667</ele><time>2026-05-02T09:41:41.352Z</time></trkpt><trkpt lat="44.1413333" lon="8.0843383"><ele>332.8333333333333</ele><time>2026-05-02T09:41:42.35Z</time></trkpt><trkpt lat="44.1412617" lon="8.084365"><ele>333.0</ele><time>2026-05-02T09:41:43.35Z</time></trkpt><trkpt lat="44.1411883" lon="8.0844083"><ele>333.0</ele><time>2026-05-02T09:41:44.35Z</time></trkpt><trkpt lat="44.1411067" lon="8.0844567"><ele>333.0</ele><time>2026-05-02T09:41:45.355Z</time></trkpt><trkpt lat="44.1410283" lon="8.084505"><ele>333.0</ele><time>2026-05-02T09:41:46.35Z</time></trkpt><trkpt lat="44.140945" lon="8.0845533"><ele>333.0</ele><time>2026-05-02T09:41:47.355Z</time></trkpt><trkpt lat="44.1408617" lon="8.0846083"><ele>333.0</ele><time>2026-05-02T09:41:48.35Z</time></trkpt><trkpt lat="44.14079" lon="8.0846683"><ele>333.0</ele><time>2026-05-02T09:41:49.355Z</time></trkpt><trkpt lat="44.140735" lon="8.0847183"><ele>337.3333333333333</ele><time>2026-05-02T09:41:50.355Z</time></trkpt><trkpt lat="44.140675" lon="8.08477"><ele>341.6666666666667</ele><time>2026-05-02T09:41:52.352Z</time></trkpt><trkpt lat="44.1406083" lon="8.08475"><ele>346.0</ele><time>2026-05-02T09:41:56.352Z</time></trkpt><trkpt lat="44.140535" lon="8.0846983"><ele>350.33333333333337</ele><time>2026-05-02T09:41:58.351Z</time></trkpt><trkpt lat="44.140445" lon="8.084625"><ele>354.6666666666667</ele><time>2026-05-02T09:42:00.354Z</time></trkpt><trkpt lat="44.1403733" lon="8.0845983"><ele>359.0</ele><time>2026-05-02T09:42:02.351Z</time></trkpt><trkpt lat="44.1403083" lon="8.0846667"><ele>359.0</ele><time>2026-05-02T09:42:05.35Z</time></trkpt><trkpt lat="44.1403" lon="8.0847683"><ele>359.0</ele><time>2026-05-02T09:42:07.351Z</time></trkpt><trkpt lat="44.1402617" lon="8.0849133"><ele>359.0</ele><time>2026-05-02T09:42:09.35Z</time></trkpt><trkpt lat="44.1402267" lon="8.0849983"><ele>359.0</ele><time>2026-05-02T09:42:10.353Z</time></trkpt><trkpt lat="44.1401833" lon="8.0850883"><ele>359.0</ele><time>2026-05-02T09:42:11.35Z</time></trkpt><trkpt lat="44.14014" lon="8.0851833"><ele>359.0</ele><time>2026-05-02T09:42:12.356Z</time></trkpt><trkpt lat="44.1400917" lon="8.085285"><ele>358.0</ele><time>2026-05-02T09:42:13.353Z</time></trkpt><trkpt lat="44.1400417" lon="8.085385"><ele>357.0</ele><time>2026-05-02T09:42:14.351Z</time></trkpt><trkpt lat="44.1399933" lon="8.0854767"><ele>356.0</ele><time>2026-05-02T09:42:15.35Z</time></trkpt><trkpt lat="44.139945" lon="8.085565"><ele>355.0</ele><time>2026-05-02T09:42:16.352Z</time></trkpt><trkpt lat="44.1398817" lon="8.0856417"><ele>354.0</ele><time>2026-05-02T09:42:17.35Z</time></trkpt><trkpt lat="44.13981" lon="8.0857283"><ele>353.0</ele><time>2026-05-02T09:42:18.35Z</time></trkpt><trkpt lat="44.1397533" lon="8.0858117"><ele>353.0</ele><time>2026-05-02T09:42:19.35Z</time></trkpt><trkpt lat="44.1397067" lon="8.0858967"><ele>353.0</ele><time>2026-05-02T09:42:20.356Z</time></trkpt><trkpt lat="44.1396633" lon="8.08597"><ele>353.0</ele><time>2026-05-02T09:42:21.356Z</time></trkpt><trkpt lat="44.1396183" lon="8.0860317"><ele>353.0</ele><time>2026-05-02T09:42:22.353Z</time></trkpt><trkpt lat="44.1395" lon="8.0861"><ele>353.0</ele><time>2026-05-02T09:42:24.349Z</time></trkpt><trkpt lat="44.139425" lon="8.0861433"><ele>353.0</ele><time>2026-05-02T09:42:25.352Z</time></trkpt><trkpt lat="44.13935" lon="8.0861917"><ele>353.0</ele><time>2026-05-02T09:42:26.359Z</time></trkpt><trkpt lat="44.139275" lon="8.08624"><ele>353.0</ele><time>2026-05-02T09:42:27.356Z</time></trkpt><trkpt lat="44.1392033" lon="8.0862883"><ele>353.0</ele><time>2026-05-02T09:42:28.353Z</time></trkpt><trkpt lat="44.139145" lon="8.0863367"><ele>353.0</ele><time>2026-05-02T09:42:29.352Z</time></trkpt><trkpt lat="44.13904" lon="8.0864167"><ele>353.0</ele><time>2026-05-02T09:42:31.355Z</time></trkpt><trkpt lat="44.1389183" lon="8.0864483"><ele>354.1666666666667</ele><time>2026-05-02T09:42:33.355Z</time></trkpt><trkpt lat="44.1388567" lon="8.08648"><ele>355.33333333333337</ele><time>2026-05-02T09:42:34.351Z</time></trkpt><trkpt lat="44.1387983" lon="8.08653"><ele>356.5</ele><time>2026-05-02T09:42:35.355Z</time></trkpt><trkpt lat="44.1387417" lon="8.0865833"><ele>357.6666666666667</ele><time>2026-05-02T09:42:36.355Z</time></trkpt><trkpt lat="44.13865" lon="8.0866733"><ele>358.8333333333333</ele><time>2026-05-02T09:42:38.355Z</time></trkpt><trkpt lat="44.1385317" lon="8.0867167"><ele>360.0</ele><time>2026-05-02T09:42:40.352Z</time></trkpt><trkpt lat="44.1384633" lon="8.08674"><ele>360.0</ele><time>2026-05-02T09:42:41.353Z</time></trkpt><trkpt lat="44.1384017" lon="8.0867717"><ele>360.0</ele><time>2026-05-02T09:42:42.35Z</time></trkpt><trkpt lat="44.1383183" lon="8.0868583"><ele>360.0</ele><time>2026-05-02T09:42:44.354Z</time></trkpt><trkpt lat="44.1382867" lon="8.0869617"><ele>360.0</ele><time>2026-05-02T09:42:46.357Z</time></trkpt><trkpt lat="44.1382717" lon="8.0870717"><ele>360.0</ele><time>2026-05-02T09:42:48.352Z</time></trkpt><trkpt lat="44.1382417" lon="8.0871817"><ele>360.0</ele><time>2026-05-02T09:42:50.351Z</time></trkpt><trkpt lat="44.138215" lon="8.0872933"><ele>359.6666666666667</ele><time>2026-05-02T09:42:52.353Z</time></trkpt><trkpt lat="44.1381967" lon="8.0874167"><ele>359.3333333333333</ele><time>2026-05-02T09:42:54.352Z</time></trkpt><trkpt lat="44.13818" lon="8.0875217"><ele>359.0</ele><time>2026-05-02T09:42:56.354Z</time></trkpt><trkpt lat="44.138155" lon="8.0876117"><ele>358.66666666666663</ele><time>2026-05-02T09:42:58.351Z</time></trkpt><trkpt lat="44.138095" lon="8.08765"><ele>358.3333333333333</ele><time>2026-05-02T09:43:00.352Z</time></trkpt><trkpt lat="44.138015" lon="8.0876417"><ele>358.0</ele><time>2026-05-02T09:43:03.351Z</time></trkpt><trkpt lat="44.137945" lon="8.087645"><ele>358.0</ele><time>2026-05-02T09:43:06.353Z</time></trkpt><trkpt lat="44.1378583" lon="8.0876633"><ele>358.0</ele><time>2026-05-02T09:43:08.357Z</time></trkpt><trkpt lat="44.1377333" lon="8.087705"><ele>358.0</ele><time>2026-05-02T09:43:10.354Z</time></trkpt><trkpt lat="44.1376383" lon="8.0877583"><ele>358.0</ele><time>2026-05-02T09:43:12.351Z</time></trkpt><trkpt lat="44.137585" lon="8.0878567"><ele>358.0</ele><time>2026-05-02T09:43:14.351Z</time></trkpt><trkpt lat="44.137575" lon="8.08799"><ele>358.0</ele><time>2026-05-02T09:43:16.354Z</time></trkpt><trkpt lat="44.1376033" lon="8.0881667"><ele>358.0</ele><time>2026-05-02T09:43:18.352Z</time></trkpt><trkpt lat="44.13763" lon="8.0882583"><ele>358.0</ele><time>2026-05-02T09:43:19.349Z</time></trkpt><trkpt lat="44.1376533" lon="8.0883583"><ele>358.0</ele><time>2026-05-02T09:43:20.356Z</time></trkpt><trkpt lat="44.137675" lon="8.088455"><ele>358.0</ele><time>2026-05-02T09:43:21.35Z</time></trkpt><trkpt lat="44.1376917" lon="8.0885533"><ele>358.0</ele><time>2026-05-02T09:43:22.356Z</time></trkpt><trkpt lat="44.1376983" lon="8.0886433"><ele>356.59999999999997</ele><time>2026-05-02T09:43:23.351Z</time></trkpt><trkpt lat="44.1376967" lon="8.088735"><ele>355.2</ele><time>2026-05-02T09:43:24.355Z</time></trkpt><trkpt lat="44.1376367" lon="8.0888383"><ele>353.8</ele><time>2026-05-02T09:43:26.354Z</time></trkpt><trkpt lat="44.13758" lon="8.088885"><ele>352.4</ele><time>2026-05-02T09:43:27.357Z</time></trkpt><trkpt lat="44.1374833" lon="8.0889683"><ele>351.0</ele><time>2026-05-02T09:43:29.359Z</time></trkpt><trkpt lat="44.1374217" lon="8.0891017"><ele>349.4</ele><time>2026-05-02T09:43:31.354Z</time></trkpt><trkpt lat="44.1374" lon="8.0892583"><ele>347.8</ele><time>2026-05-02T09:43:33.354Z</time></trkpt><trkpt lat="44.1373733" lon="8.0893817"><ele>346.2</ele><time>2026-05-02T09:43:35.353Z</time></trkpt><trkpt lat="44.1372917" lon="8.089455"><ele>344.59999999999997</ele><time>2026-05-02T09:43:38.357Z</time></trkpt><trkpt lat="44.1372" lon="8.0895"><ele>343.0</ele><time>2026-05-02T09:43:40.352Z</time></trkpt><trkpt lat="44.1371167" lon="8.089585"><ele>352.4</ele><time>2026-05-02T09:43:42.351Z</time></trkpt><trkpt lat="44.1370617" lon="8.089705"><ele>361.79999999999995</ele><time>2026-05-02T09:43:44.355Z</time></trkpt><trkpt lat="44.137015" lon="8.0897833"><ele>371.2</ele><time>2026-05-02T09:43:46.354Z</time></trkpt><trkpt lat="44.1369183" lon="8.0898167"><ele>380.6</ele><time>2026-05-02T09:43:48.35Z</time></trkpt><trkpt lat="44.1368067" lon="8.0898417"><ele>390.0</ele><time>2026-05-02T09:43:50.353Z</time></trkpt><trkpt lat="44.13672" lon="8.089925"><ele>387.0</ele><time>2026-05-02T09:43:52.351Z</time></trkpt><trkpt lat="44.13665" lon="8.090035"><ele>384.0</ele><time>2026-05-02T09:43:54.351Z</time></trkpt><trkpt lat="44.136625" lon="8.0901533"><ele>381.0</ele><time>2026-05-02T09:43:56.356Z</time></trkpt><trkpt lat="44.1366217" lon="8.0902717"><ele>378.0</ele><time>2026-05-02T09:43:58.356Z</time></trkpt><trkpt lat="44.136555" lon="8.0903033"><ele>375.0</ele><time>2026-05-02T09:44:02.352Z</time></trkpt><trkpt lat="44.136515" lon="8.0901817"><ele>372.0</ele><time>2026-05-02T09:44:05.356Z</time></trkpt><trkpt lat="44.1365283" lon="8.0900733"><ele>372.0</ele><time>2026-05-02T09:44:07.354Z</time></trkpt><trkpt lat="44.1365867" lon="8.0899267"><ele>372.0</ele><time>2026-05-02T09:44:09.356Z</time></trkpt><trkpt lat="44.1366283" lon="8.0898533"><ele>372.0</ele><time>2026-05-02T09:44:10.357Z</time></trkpt><trkpt lat="44.1366733" lon="8.0897783"><ele>372.0</ele><time>2026-05-02T09:44:11.353Z</time></trkpt><trkpt lat="44.136745" lon="8.0896583"><ele>372.0</ele><time>2026-05-02T09:44:13.354Z</time></trkpt><trkpt lat="44.1368117" lon="8.0895217"><ele>375.6</ele><time>2026-05-02T09:44:15.353Z</time></trkpt><trkpt lat="44.13686" lon="8.08941"><ele>379.20000000000005</ele><time>2026-05-02T09:44:17.351Z</time></trkpt><trkpt lat="44.136855" lon="8.08932"><ele>382.8</ele><time>2026-05-02T09:44:19.352Z</time></trkpt><trkpt lat="44.13677" lon="8.0893267"><ele>386.4</ele><time>2026-05-02T09:44:22.35Z</time></trkpt><trkpt lat="44.1367067" lon="8.0894383"><ele>390.0</ele><time>2026-05-02T09:44:24.352Z</time></trkpt><trkpt lat="44.136615" lon="8.0895417"><ele>395.8333333333333</ele><time>2026-05-02T09:44:26.352Z</time></trkpt><trkpt lat="44.1365067" lon="8.0896333"><ele>401.66666666666663</ele><time>2026-05-02T09:44:28.351Z</time></trkpt><trkpt lat="44.1364517" lon="8.0896767"><ele>407.5</ele><time>2026-05-02T09:44:29.353Z</time></trkpt><trkpt lat="44.1363967" lon="8.0897267"><ele>413.3333333333333</ele><time>2026-05-02T09:44:30.353Z</time></trkpt><trkpt lat="44.1363367" lon="8.0897933"><ele>419.16666666666663</ele><time>2026-05-02T09:44:31.351Z</time></trkpt><trkpt lat="44.1362883" lon="8.08987"><ele>425.0</ele><time>2026-05-02T09:44:32.353Z</time></trkpt><trkpt lat="44.1362533" lon="8.0899467"><ele>425.0</ele><time>2026-05-02T09:44:33.35Z</time></trkpt><trkpt lat="44.136255" lon="8.0900717"><ele>425.0</ele><time>2026-05-02T09:44:35.35Z</time></trkpt><trkpt lat="44.136275" lon="8.0902633"><ele>425.0</ele><time>2026-05-02T09:44:37.352Z</time></trkpt><trkpt lat="44.1362933" lon="8.0903833"><ele>425.0</ele><time>2026-05-02T09:44:38.349Z</time></trkpt><trkpt lat="44.1363167" lon="8.090505"><ele>425.0</ele><time>2026-05-02T09:44:39.354Z</time></trkpt><trkpt lat="44.1363367" lon="8.0906183"><ele>425.0</ele><time>2026-05-02T09:44:40.35Z</time></trkpt><trkpt lat="44.1363483" lon="8.09073"><ele>425.0</ele><time>2026-05-02T09:44:41.354Z</time></trkpt><trkpt lat="44.1363467" lon="8.0908333"><ele>425.0</ele><time>2026-05-02T09:44:42.358Z</time></trkpt><trkpt lat="44.1363333" lon="8.0909317"><ele>425.0</ele><time>2026-05-02T09:44:43.355Z</time></trkpt><trkpt lat="44.1363183" lon="8.0910233"><ele>425.0</ele><time>2026-05-02T09:44:44.354Z</time></trkpt><trkpt lat="44.1363067" lon="8.0911133"><ele>425.0</ele><time>2026-05-02T09:44:45.35Z</time></trkpt><trkpt lat="44.1362833" lon="8.091195"><ele>425.0</ele><time>2026-05-02T09:44:46.353Z</time></trkpt><trkpt lat="44.1362217" lon="8.0913117"><ele>422.8333333333333</ele><time>2026-05-02T09:44:48.354Z</time></trkpt><trkpt lat="44.1361167" lon="8.0914033"><ele>420.66666666666663</ele><time>2026-05-02T09:44:50.355Z</time></trkpt><trkpt lat="44.1360533" lon="8.0914567"><ele>418.5</ele><time>2026-05-02T09:44:51.356Z</time></trkpt><trkpt lat="44.1359867" lon="8.0915183"><ele>416.33333333333337</ele><time>2026-05-02T09:44:52.355Z</time></trkpt><trkpt lat="44.1359117" lon="8.09157"><ele>414.1666666666667</ele><time>2026-05-02T09:44:53.354Z</time></trkpt><trkpt lat="44.135835" lon="8.0916233"><ele>412.0</ele><time>2026-05-02T09:44:54.353Z</time></trkpt><trkpt lat="44.13576" lon="8.0916767"><ele>413.50000000000006</ele><time>2026-05-02T09:44:55.355Z</time></trkpt><trkpt lat="44.135685" lon="8.091725"><ele>415.0</ele><time>2026-05-02T09:44:56.35Z</time></trkpt><trkpt lat="44.1356167" lon="8.09176"><ele>416.5</ele><time>2026-05-02T09:44:57.357Z</time></trkpt><trkpt lat="44.135535" lon="8.0918083"><ele>418.0</ele><time>2026-05-02T09:44:59.353Z</time></trkpt><trkpt lat="44.1354967" lon="8.091885"><ele>419.50000000000006</ele><time>2026-05-02T09:45:02.351Z</time></trkpt><trkpt lat="44.1355117" lon="8.0919783"><ele>421.0</ele><time>2026-05-02T09:45:04.354Z</time></trkpt><trkpt lat="44.1355633" lon="8.09212"><ele>421.00000000000006</ele><time>2026-05-02T09:45:06.352Z</time></trkpt><trkpt lat="44.1355883" lon="8.0922033"><ele>421.0</ele><time>2026-05-02T09:45:07.352Z</time></trkpt><trkpt lat="44.1356183" lon="8.092295"><ele>421.0</ele><time>2026-05-02T09:45:08.35Z</time></trkpt><trkpt lat="44.1356517" lon="8.0924017"><ele>421.0</ele><time>2026-05-02T09:45:09.35Z</time></trkpt><trkpt lat="44.135685" lon="8.0925017"><ele>421.00000000000006</ele><time>2026-05-02T09:45:10.353Z</time></trkpt><trkpt lat="44.135715" lon="8.0926083"><ele>421.0</ele><time>2026-05-02T09:45:11.351Z</time></trkpt><trkpt lat="44.13575" lon="8.0927117"><ele>416.1666666666667</ele><time>2026-05-02T09:45:12.35Z</time></trkpt><trkpt lat="44.1357867" lon="8.09282"><ele>411.33333333333337</ele><time>2026-05-02T09:45:13.355Z</time></trkpt><trkpt lat="44.13581" lon="8.092925"><ele>406.5</ele><time>2026-05-02T09:45:14.352Z</time></trkpt><trkpt lat="44.1358267" lon="8.093025"><ele>401.66666666666663</ele><time>2026-05-02T09:45:15.354Z</time></trkpt><trkpt lat="44.1358433" lon="8.0931183"><ele>396.8333333333333</ele><time>2026-05-02T09:45:16.36Z</time></trkpt><trkpt lat="44.135905" lon="8.0932783"><ele>392.0</ele><time>2026-05-02T09:45:18.354Z</time></trkpt><trkpt lat="44.1359517" lon="8.0933483"><ele>391.99999999999994</ele><time>2026-05-02T09:45:19.353Z</time></trkpt><trkpt lat="44.136" lon="8.093415"><ele>392.0</ele><time>2026-05-02T09:45:20.35Z</time></trkpt><trkpt lat="44.1360633" lon="8.09348"><ele>392.0</ele><time>2026-05-02T09:45:21.35Z</time></trkpt><trkpt lat="44.1361233" lon="8.09355"><ele>392.0</ele><time>2026-05-02T09:45:22.355Z</time></trkpt><trkpt lat="44.1361833" lon="8.0936333"><ele>391.99999999999994</ele><time>2026-05-02T09:45:23.351Z</time></trkpt><trkpt lat="44.13624" lon="8.0937167"><ele>392.0</ele><time>2026-05-02T09:45:24.352Z</time></trkpt><trkpt lat="44.13629" lon="8.093805"><ele>392.0</ele><time>2026-05-02T09:45:25.353Z</time></trkpt><trkpt lat="44.1363117" lon="8.0939067"><ele>392.0</ele><time>2026-05-02T09:45:26.349Z</time></trkpt><trkpt lat="44.1363267" lon="8.094"><ele>392.0</ele><time>2026-05-02T09:45:27.354Z</time></trkpt><trkpt lat="44.136325" lon="8.09409"><ele>392.0</ele><time>2026-05-02T09:45:28.352Z</time></trkpt><trkpt lat="44.1362967" lon="8.0941783"><ele>392.0</ele><time>2026-05-02T09:45:29.351Z</time></trkpt><trkpt lat="44.13625" lon="8.0942733"><ele>392.0</ele><time>2026-05-02T09:45:30.35Z</time></trkpt><trkpt lat="44.136205" lon="8.09436"><ele>392.0</ele><time>2026-05-02T09:45:31.351Z</time></trkpt><trkpt lat="44.136165" lon="8.09445"><ele>391.49999999999994</ele><time>2026-05-02T09:45:32.351Z</time></trkpt><trkpt lat="44.1361217" lon="8.0945483"><ele>391.0</ele><time>2026-05-02T09:45:33.35Z</time></trkpt><trkpt lat="44.13608" lon="8.0946467"><ele>390.5</ele><time>2026-05-02T09:45:34.35Z</time></trkpt><trkpt lat="44.13604" lon="8.09474"><ele>390.0</ele><time>2026-05-02T09:45:35.35Z</time></trkpt><trkpt lat="44.1360033" lon="8.094825"><ele>389.49999999999994</ele><time>2026-05-02T09:45:36.354Z</time></trkpt><trkpt lat="44.1359583" lon="8.0949833"><ele>389.0</ele><time>2026-05-02T09:45:38.352Z</time></trkpt><trkpt lat="44.1359317" lon="8.0951467"><ele>389.0</ele><time>2026-05-02T09:45:40.351Z</time></trkpt><trkpt lat="44.1358967" lon="8.095295"><ele>389.0</ele><time>2026-05-02T09:45:42.355Z</time></trkpt><trkpt lat="44.135835" lon="8.0953933"><ele>389.0</ele><time>2026-05-02T09:45:44.356Z</time></trkpt><trkpt lat="44.1357483" lon="8.0954467"><ele>389.0</ele><time>2026-05-02T09:45:46.353Z</time></trkpt><trkpt lat="44.13564" lon="8.0955117"><ele>389.0</ele><time>2026-05-02T09:45:48.354Z</time></trkpt><trkpt lat="44.135545" lon="8.0955717"><ele>391.66666666666663</ele><time>2026-05-02T09:45:50.356Z</time></trkpt><trkpt lat="44.1354633" lon="8.09562"><ele>394.3333333333333</ele><time>2026-05-02T09:45:52.35Z</time></trkpt><trkpt lat="44.1354283" lon="8.0957267"><ele>397.0</ele><time>2026-05-02T09:45:55.355Z</time></trkpt><trkpt lat="44.1354217" lon="8.09584"><ele>399.66666666666663</ele><time>2026-05-02T09:45:58.35Z</time></trkpt><trkpt lat="44.1354167" lon="8.0959533"><ele>402.3333333333333</ele><time>2026-05-02T09:46:00.353Z</time></trkpt><trkpt lat="44.1354067" lon="8.0960967"><ele>405.0</ele><time>2026-05-02T09:46:02.351Z</time></trkpt><trkpt lat="44.1353567" lon="8.096275"><ele>404.99999999999994</ele><time>2026-05-02T09:46:04.35Z</time></trkpt><trkpt lat="44.13533" lon="8.096365"><ele>405.0</ele><time>2026-05-02T09:46:05.349Z</time></trkpt><trkpt lat="44.1353017" lon="8.0964667"><ele>405.0</ele><time>2026-05-02T09:46:06.35Z</time></trkpt><trkpt lat="44.13528" lon="8.0965683"><ele>405.0</ele><time>2026-05-02T09:46:07.352Z</time></trkpt><trkpt lat="44.1352517" lon="8.0966717"><ele>405.0</ele><time>2026-05-02T09:46:08.351Z</time></trkpt><trkpt lat="44.1352167" lon="8.096765"><ele>404.99999999999994</ele><time>2026-05-02T09:46:09.349Z</time></trkpt><trkpt lat="44.1351867" lon="8.0968467"><ele>405.0</ele><time>2026-05-02T09:46:10.352Z</time></trkpt><trkpt lat="44.1351533" lon="8.0969267"><ele>402.5</ele><time>2026-05-02T09:46:11.353Z</time></trkpt><trkpt lat="44.1351333" lon="8.0970133"><ele>400.0</ele><time>2026-05-02T09:46:12.352Z</time></trkpt><trkpt lat="44.1351267" lon="8.0971067"><ele>397.5</ele><time>2026-05-02T09:46:13.354Z</time></trkpt><trkpt lat="44.1351083" lon="8.0972017"><ele>395.0</ele><time>2026-05-02T09:46:14.35Z</time></trkpt><trkpt lat="44.1350817" lon="8.0973683"><ele>392.5</ele><time>2026-05-02T09:46:16.352Z</time></trkpt><trkpt lat="44.1350517" lon="8.09752"><ele>390.0</ele><time>2026-05-02T09:46:18.352Z</time></trkpt><trkpt lat="44.134995" lon="8.0976483"><ele>387.5</ele><time>2026-05-02T09:46:20.35Z</time></trkpt><trkpt lat="44.1349283" lon="8.097735"><ele>385.0</ele><time>2026-05-02T09:46:22.35Z</time></trkpt><trkpt lat="44.1348617" lon="8.0978233"><ele>382.5</ele><time>2026-05-02T09:46:24.35Z</time></trkpt><trkpt lat="44.1348167" lon="8.09789"><ele>380.0</ele><time>2026-05-02T09:46:25.35Z</time></trkpt><trkpt lat="44.1347317" lon="8.09802"><ele>377.5</ele><time>2026-05-02T09:46:27.35Z</time></trkpt><trkpt lat="44.1346933" lon="8.0980983"><ele>375.0</ele><time>2026-05-02T09:46:28.354Z</time></trkpt><trkpt lat="44.1346583" lon="8.09818"><ele>379.8</ele><time>2026-05-02T09:46:29.356Z</time></trkpt><trkpt lat="44.1346283" lon="8.09827"><ele>384.6</ele><time>2026-05-02T09:46:30.352Z</time></trkpt><trkpt lat="44.1345983" lon="8.0983533"><ele>389.4</ele><time>2026-05-02T09:46:31.352Z</time></trkpt><trkpt lat="44.13453" lon="8.0984783"><ele>394.2</ele><time>2026-05-02T09:46:33.35Z</time></trkpt><trkpt lat="44.1344283" lon="8.09858"><ele>399.0</ele><time>2026-05-02T09:46:35.354Z</time></trkpt><trkpt lat="44.1343367" lon="8.0986833"><ele>399.0</ele><time>2026-05-02T09:46:37.352Z</time></trkpt><trkpt lat="44.1342567" lon="8.098805"><ele>399.0</ele><time>2026-05-02T09:46:39.356Z</time></trkpt><trkpt lat="44.134175" lon="8.0989283"><ele>399.0</ele><time>2026-05-02T09:46:41.353Z</time></trkpt><trkpt lat="44.13409" lon="8.0990333"><ele>399.0</ele><time>2026-05-02T09:46:43.357Z</time></trkpt><trkpt lat="44.1340283" lon="8.0991533"><ele>401.1666666666667</ele><time>2026-05-02T09:46:45.351Z</time></trkpt><trkpt lat="44.1339933" lon="8.0992783"><ele>403.33333333333337</ele><time>2026-05-02T09:46:47.35Z</time></trkpt><trkpt lat="44.133935" lon="8.0993967"><ele>405.5</ele><time>2026-05-02T09:46:49.354Z</time></trkpt><trkpt lat="44.1338867" lon="8.0994683"><ele>407.6666666666667</ele><time>2026-05-02T09:46:50.351Z</time></trkpt><trkpt lat="44.133835" lon="8.09955"><ele>409.83333333333337</ele><time>2026-05-02T09:46:51.354Z</time></trkpt><trkpt lat="44.1337883" lon="8.099635"><ele>412.0</ele><time>2026-05-02T09:46:52.353Z</time></trkpt><trkpt lat="44.1337433" lon="8.0997183"><ele>411.99999999999994</ele><time>2026-05-02T09:46:53.352Z</time></trkpt><trkpt lat="44.1336917" lon="8.099795"><ele>412.0</ele><time>2026-05-02T09:46:54.356Z</time></trkpt><trkpt lat="44.1336433" lon="8.099875"><ele>412.0</ele><time>2026-05-02T09:46:55.354Z</time></trkpt><trkpt lat="44.1335983" lon="8.0999567"><ele>412.0</ele><time>2026-05-02T09:46:56.35Z</time></trkpt><trkpt lat="44.1335533" lon="8.1000317"><ele>412.0</ele><time>2026-05-02T09:46:57.351Z</time></trkpt><trkpt lat="44.133505" lon="8.1000917"><ele>411.99999999999994</ele><time>2026-05-02T09:46:58.351Z</time></trkpt><trkpt lat="44.133445" lon="8.1001433"><ele>412.0</ele><time>2026-05-02T09:46:59.349Z</time></trkpt><trkpt lat="44.1333717" lon="8.1001933"><ele>412.6666666666667</ele><time>2026-05-02T09:47:00.349Z</time></trkpt><trkpt lat="44.1332933" lon="8.10025"><ele>413.33333333333337</ele><time>2026-05-02T09:47:01.35Z</time></trkpt><trkpt lat="44.1332117" lon="8.1003067"><ele>414.0</ele><time>2026-05-02T09:47:02.349Z</time></trkpt><trkpt lat="44.1331383" lon="8.1003683"><ele>414.66666666666663</ele><time>2026-05-02T09:47:03.35Z</time></trkpt><trkpt lat="44.1330667" lon="8.1004317"><ele>415.3333333333333</ele><time>2026-05-02T09:47:04.35Z</time></trkpt><trkpt lat="44.1329967" lon="8.100495"><ele>416.0</ele><time>2026-05-02T09:47:05.353Z</time></trkpt><trkpt lat="44.132935" lon="8.1005533"><ele>415.99999999999994</ele><time>2026-05-02T09:47:06.348Z</time></trkpt><trkpt lat="44.1328733" lon="8.100605"><ele>416.0</ele><time>2026-05-02T09:47:07.439Z</time></trkpt><trkpt lat="44.1328167" lon="8.100645"><ele>416.0</ele><time>2026-05-02T09:47:08.353Z</time></trkpt><trkpt lat="44.1327433" lon="8.1007067"><ele>416.0</ele><time>2026-05-02T09:47:10.35Z</time></trkpt><trkpt lat="44.1327033" lon="8.1007883"><ele>415.99999999999994</ele><time>2026-05-02T09:47:12.353Z</time></trkpt><trkpt lat="44.1326833" lon="8.10092"><ele>416.0</ele><time>2026-05-02T09:47:14.354Z</time></trkpt><trkpt lat="44.1326417" lon="8.10108"><ele>416.66666666666663</ele><time>2026-05-02T09:47:16.354Z</time></trkpt><trkpt lat="44.1325967" lon="8.1011767"><ele>417.3333333333333</ele><time>2026-05-02T09:47:17.352Z</time></trkpt><trkpt lat="44.132545" lon="8.1012683"><ele>418.0</ele><time>2026-05-02T09:47:18.354Z</time></trkpt><trkpt lat="44.13249" lon="8.1013483"><ele>418.66666666666663</ele><time>2026-05-02T09:47:19.351Z</time></trkpt><trkpt lat="44.13243" lon="8.1014217"><ele>419.3333333333333</ele><time>2026-05-02T09:47:20.354Z</time></trkpt><trkpt lat="44.1323683" lon="8.1014867"><ele>420.0</ele><time>2026-05-02T09:47:21.351Z</time></trkpt><trkpt lat="44.1323083" lon="8.1015433"><ele>417.42857142857144</ele><time>2026-05-02T09:47:22.356Z</time></trkpt><trkpt lat="44.132255" lon="8.1015967"><ele>414.8571428571429</ele><time>2026-05-02T09:47:23.358Z</time></trkpt><trkpt lat="44.13221" lon="8.1016583"><ele>412.2857142857143</ele><time>2026-05-02T09:47:24.355Z</time></trkpt><trkpt lat="44.1321683" lon="8.1017267"><ele>409.7142857142857</ele><time>2026-05-02T09:47:25.353Z</time></trkpt><trkpt lat="44.1321283" lon="8.1018083"><ele>407.14285714285717</ele><time>2026-05-02T09:47:26.353Z</time></trkpt><trkpt lat="44.1320883" lon="8.1019"><ele>404.57142857142856</ele><time>2026-05-02T09:47:27.353Z</time></trkpt><trkpt lat="44.132055" lon="8.1019967"><ele>402.0</ele><time>2026-05-02T09:47:28.354Z</time></trkpt><trkpt lat="44.13203" lon="8.1020883"><ele>402.0</ele><time>2026-05-02T09:47:29.349Z</time></trkpt><trkpt lat="44.1319967" lon="8.10217"><ele>402.0</ele><time>2026-05-02T09:47:30.35Z</time></trkpt><trkpt lat="44.131955" lon="8.102245"><ele>402.0</ele><time>2026-05-02T09:47:31.349Z</time></trkpt><trkpt lat="44.131905" lon="8.1023217"><ele>402.0</ele><time>2026-05-02T09:47:32.35Z</time></trkpt><trkpt lat="44.1318533" lon="8.1023983"><ele>402.0</ele><time>2026-05-02T09:47:33.351Z</time></trkpt><trkpt lat="44.1318017" lon="8.1024683"><ele>402.0</ele><time>2026-05-02T09:47:34.352Z</time></trkpt><trkpt lat="44.1317467" lon="8.1025233"><ele>402.0</ele><time>2026-05-02T09:47:35.35Z</time></trkpt><trkpt lat="44.1316533" lon="8.1026133"><ele>401.8333333333333</ele><time>2026-05-02T09:47:37.353Z</time></trkpt><trkpt lat="44.1315717" lon="8.1027167"><ele>401.66666666666663</ele><time>2026-05-02T09:47:39.351Z</time></trkpt><trkpt lat="44.1314867" lon="8.1028067"><ele>401.5</ele><time>2026-05-02T09:47:41.354Z</time></trkpt><trkpt lat="44.1314333" lon="8.1028533"><ele>401.3333333333333</ele><time>2026-05-02T09:47:42.35Z</time></trkpt><trkpt lat="44.13137" lon="8.1029033"><ele>401.16666666666663</ele><time>2026-05-02T09:47:43.352Z</time></trkpt><trkpt lat="44.1313033" lon="8.102945"><ele>401.0</ele><time>2026-05-02T09:47:44.354Z</time></trkpt><trkpt lat="44.13124" lon="8.1029867"><ele>400.99999999999994</ele><time>2026-05-02T09:47:45.355Z</time></trkpt><trkpt lat="44.131175" lon="8.1030333"><ele>401.0</ele><time>2026-05-02T09:47:46.354Z</time></trkpt><trkpt lat="44.13111" lon="8.103085"><ele>401.0</ele><time>2026-05-02T09:47:47.353Z</time></trkpt><trkpt lat="44.1310517" lon="8.1031383"><ele>401.0</ele><time>2026-05-02T09:47:48.351Z</time></trkpt><trkpt lat="44.1310067" lon="8.103205"><ele>400.99999999999994</ele><time>2026-05-02T09:47:49.354Z</time></trkpt><trkpt lat="44.1309517" lon="8.1033433"><ele>401.0</ele><time>2026-05-02T09:47:51.355Z</time></trkpt><trkpt lat="44.1308883" lon="8.1034433"><ele>400.99999999999994</ele><time>2026-05-02T09:47:53.352Z</time></trkpt><trkpt lat="44.130805" lon="8.10357"><ele>401.0</ele><time>2026-05-02T09:47:55.352Z</time></trkpt><trkpt lat="44.1307483" lon="8.10365"><ele>401.0</ele><time>2026-05-02T09:47:56.353Z</time></trkpt><trkpt lat="44.130685" lon="8.10373"><ele>401.0</ele><time>2026-05-02T09:47:57.353Z</time></trkpt><trkpt lat="44.13063" lon="8.1038133"><ele>400.99999999999994</ele><time>2026-05-02T09:47:58.352Z</time></trkpt><trkpt lat="44.1305867" lon="8.1038833"><ele>401.0</ele><time>2026-05-02T09:47:59.355Z</time></trkpt><trkpt lat="44.1304933" lon="8.1039567"><ele>400.99999999999994</ele><time>2026-05-02T09:48:01.351Z</time></trkpt><trkpt lat="44.13043" lon="8.1039717"><ele>401.0</ele><time>2026-05-02T09:48:02.354Z</time></trkpt><trkpt lat="44.1303633" lon="8.10399"><ele>401.0</ele><time>2026-05-02T09:48:03.354Z</time></trkpt><trkpt lat="44.1302883" lon="8.1040067"><ele>401.0</ele><time>2026-05-02T09:48:04.352Z</time></trkpt><trkpt lat="44.1302067" lon="8.104025"><ele>400.99999999999994</ele><time>2026-05-02T09:48:05.352Z</time></trkpt><trkpt lat="44.1301183" lon="8.1040467"><ele>401.0</ele><time>2026-05-02T09:48:06.351Z</time></trkpt><trkpt lat="44.1300283" lon="8.1040683"><ele>400.66666666666663</ele><time>2026-05-02T09:48:07.356Z</time></trkpt><trkpt lat="44.1299383" lon="8.1040867"><ele>400.3333333333333</ele><time>2026-05-02T09:48:08.353Z</time></trkpt><trkpt lat="44.1298533" lon="8.1041083"><ele>400.0</ele><time>2026-05-02T09:48:09.351Z</time></trkpt><trkpt lat="44.129775" lon="8.1041283"><ele>399.66666666666663</ele><time>2026-05-02T09:48:10.353Z</time></trkpt><trkpt lat="44.1297033" lon="8.1041517"><ele>399.3333333333333</ele><time>2026-05-02T09:48:11.35Z</time></trkpt><trkpt lat="44.1296433" lon="8.1041833"><ele>399.0</ele><time>2026-05-02T09:48:12.355Z</time></trkpt><trkpt lat="44.1295667" lon="8.104295"><ele>399.0</ele><time>2026-05-02T09:48:14.349Z</time></trkpt><trkpt lat="44.1294883" lon="8.10441"><ele>399.0</ele><time>2026-05-02T09:48:16.353Z</time></trkpt><trkpt lat="44.1294317" lon="8.1044583"><ele>399.0</ele><time>2026-05-02T09:48:17.352Z</time></trkpt><trkpt lat="44.12937" lon="8.1044883"><ele>399.0</ele><time>2026-05-02T09:48:18.35Z</time></trkpt><trkpt lat="44.1292933" lon="8.1045067"><ele>399.0</ele><time>2026-05-02T09:48:19.351Z</time></trkpt><trkpt lat="44.1292167" lon="8.104525"><ele>399.0</ele><time>2026-05-02T09:48:20.352Z</time></trkpt><trkpt lat="44.1291483" lon="8.10453"><ele>399.0</ele><time>2026-05-02T09:48:21.358Z</time></trkpt><trkpt lat="44.1290333" lon="8.1045417"><ele>399.0</ele><time>2026-05-02T09:48:23.354Z</time></trkpt><trkpt lat="44.12891" lon="8.104505"><ele>399.0</ele><time>2026-05-02T09:48:25.354Z</time></trkpt><trkpt lat="44.1288383" lon="8.1044783"><ele>399.0</ele><time>2026-05-02T09:48:26.351Z</time></trkpt><trkpt lat="44.1287217" lon="8.1044683"><ele>399.0</ele><time>2026-05-02T09:48:28.351Z</time></trkpt><trkpt lat="44.1286583" lon="8.104485"><ele>399.0</ele><time>2026-05-02T09:48:29.351Z</time></trkpt><trkpt lat="44.1285967" lon="8.1045033"><ele>399.0</ele><time>2026-05-02T09:48:30.354Z</time></trkpt><trkpt lat="44.1284917" lon="8.1045133"><ele>399.0</ele><time>2026-05-02T09:48:32.351Z</time></trkpt><trkpt lat="44.1283783" lon="8.1045033"><ele>399.0</ele><time>2026-05-02T09:48:34.353Z</time></trkpt><trkpt lat="44.1283117" lon="8.104505"><ele>399.0</ele><time>2026-05-02T09:48:35.356Z</time></trkpt><trkpt lat="44.12824" lon="8.104515"><ele>399.0</ele><time>2026-05-02T09:48:36.356Z</time></trkpt><trkpt lat="44.128175" lon="8.1045367"><ele>397.5</ele><time>2026-05-02T09:48:37.353Z</time></trkpt><trkpt lat="44.1281183" lon="8.104575"><ele>396.0</ele><time>2026-05-02T09:48:38.35Z</time></trkpt><trkpt lat="44.1280167" lon="8.1046117"><ele>394.5</ele><time>2026-05-02T09:48:40.351Z</time></trkpt><trkpt lat="44.1279233" lon="8.10454"><ele>393.0</ele><time>2026-05-02T09:48:42.35Z</time></trkpt><trkpt lat="44.1278867" lon="8.10446"><ele>391.5</ele><time>2026-05-02T09:48:43.352Z</time></trkpt><trkpt lat="44.1278583" lon="8.1043733"><ele>390.0</ele><time>2026-05-02T09:48:44.35Z</time></trkpt><trkpt lat="44.1277983" lon="8.1042367"><ele>390.0</ele><time>2026-05-02T09:48:46.35Z</time></trkpt><trkpt lat="44.127715" lon="8.1041617"><ele>390.0</ele><time>2026-05-02T09:48:48.353Z</time></trkpt><trkpt lat="44.1275883" lon="8.1040933"><ele>390.0</ele><time>2026-05-02T09:48:50.354Z</time></trkpt><trkpt lat="44.1275083" lon="8.1040517"><ele>390.0</ele><time>2026-05-02T09:48:51.356Z</time></trkpt><trkpt lat="44.1274317" lon="8.104015"><ele>390.0</ele><time>2026-05-02T09:48:52.354Z</time></trkpt><trkpt lat="44.1273633" lon="8.1039667"><ele>388.3333333333333</ele><time>2026-05-02T09:48:53.355Z</time></trkpt><trkpt lat="44.1273033" lon="8.103905"><ele>386.6666666666667</ele><time>2026-05-02T09:48:54.356Z</time></trkpt><trkpt lat="44.127245" lon="8.103825"><ele>385.0</ele><time>2026-05-02T09:48:55.35Z</time></trkpt><trkpt lat="44.1271867" lon="8.1037383"><ele>383.33333333333337</ele><time>2026-05-02T09:48:56.35Z</time></trkpt><trkpt lat="44.12714" lon="8.10364"><ele>381.6666666666667</ele><time>2026-05-02T09:48:57.351Z</time></trkpt><trkpt lat="44.1270983" lon="8.1035383"><ele>380.0</ele><time>2026-05-02T09:48:58.348Z</time></trkpt><trkpt lat="44.1270533" lon="8.103445"><ele>380.0</ele><time>2026-05-02T09:48:59.351Z</time></trkpt><trkpt lat="44.1270133" lon="8.1033617"><ele>380.0</ele><time>2026-05-02T09:49:00.352Z</time></trkpt><trkpt lat="44.1269367" lon="8.10325"><ele>380.0</ele><time>2026-05-02T09:49:02.354Z</time></trkpt><trkpt lat="44.1268283" lon="8.103145"><ele>380.0</ele><time>2026-05-02T09:49:04.355Z</time></trkpt><trkpt lat="44.126765" lon="8.103085"><ele>380.0</ele><time>2026-05-02T09:49:05.357Z</time></trkpt><trkpt lat="44.126705" lon="8.1030217"><ele>382.0</ele><time>2026-05-02T09:49:06.349Z</time></trkpt><trkpt lat="44.1266517" lon="8.10296"><ele>384.0</ele><time>2026-05-02T09:49:07.353Z</time></trkpt><trkpt lat="44.1265983" lon="8.102895"><ele>386.0</ele><time>2026-05-02T09:49:08.352Z</time></trkpt><trkpt lat="44.1265233" lon="8.1027733"><ele>388.0</ele><time>2026-05-02T09:49:10.353Z</time></trkpt><trkpt lat="44.1264833" lon="8.102635"><ele>390.0</ele><time>2026-05-02T09:49:12.353Z</time></trkpt><trkpt lat="44.1265117" lon="8.1024567"><ele>390.57142857142856</ele><time>2026-05-02T09:49:14.354Z</time></trkpt><trkpt lat="44.1265383" lon="8.10236"><ele>391.1428571428571</ele><time>2026-05-02T09:49:15.351Z</time></trkpt><trkpt lat="44.1265683" lon="8.1022667"><ele>391.7142857142857</ele><time>2026-05-02T09:49:16.351Z</time></trkpt><trkpt lat="44.1265933" lon="8.10218"><ele>392.2857142857143</ele><time>2026-05-02T09:49:17.35Z</time></trkpt><trkpt lat="44.1266217" lon="8.1020633"><ele>392.8571428571429</ele><time>2026-05-02T09:49:19.352Z</time></trkpt><trkpt lat="44.1266233" lon="8.1019683"><ele>393.42857142857144</ele><time>2026-05-02T09:49:21.352Z</time></trkpt><trkpt lat="44.1265983" lon="8.1018783"><ele>394.0</ele><time>2026-05-02T09:49:23.352Z</time></trkpt><trkpt lat="44.1265633" lon="8.1017683"><ele>390.6666666666667</ele><time>2026-05-02T09:49:25.355Z</time></trkpt><trkpt lat="44.1265217" lon="8.1016633"><ele>387.33333333333337</ele><time>2026-05-02T09:49:27.357Z</time></trkpt><trkpt lat="44.1264783" lon="8.1015817"><ele>384.0</ele><time>2026-05-02T09:49:29.353Z</time></trkpt><trkpt lat="44.1264383" lon="8.101495"><ele>380.6666666666667</ele><time>2026-05-02T09:49:31.359Z</time></trkpt><trkpt lat="44.1264" lon="8.1013983"><ele>377.33333333333337</ele><time>2026-05-02T09:49:33.353Z</time></trkpt><trkpt lat="44.1263367" lon="8.101365"><ele>374.0</ele><time>2026-05-02T09:49:36.356Z</time></trkpt><trkpt lat="44.12632" lon="8.1014617"><ele>374.0</ele><time>2026-05-02T09:49:39.357Z</time></trkpt><trkpt lat="44.1263417" lon="8.1015517"><ele>374.0</ele><time>2026-05-02T09:49:41.349Z</time></trkpt><trkpt lat="44.1263633" lon="8.1016567"><ele>374.0</ele><time>2026-05-02T09:49:43.354Z</time></trkpt><trkpt lat="44.126385" lon="8.1017817"><ele>374.0</ele><time>2026-05-02T09:49:45.355Z</time></trkpt><trkpt lat="44.12634" lon="8.1019"><ele>374.0</ele><time>2026-05-02T09:49:47.351Z</time></trkpt><trkpt lat="44.12626" lon="8.1020483"><ele>371.4285714285714</ele><time>2026-05-02T09:49:49.35Z</time></trkpt><trkpt lat="44.1262117" lon="8.102125"><ele>368.8571428571429</ele><time>2026-05-02T09:49:50.352Z</time></trkpt><trkpt lat="44.1261617" lon="8.1022083"><ele>366.2857142857143</ele><time>2026-05-02T09:49:51.353Z</time></trkpt><trkpt lat="44.1261167" lon="8.1022733"><ele>363.71428571428567</ele><time>2026-05-02T09:49:52.352Z</time></trkpt><trkpt lat="44.126075" lon="8.102345"><ele>361.1428571428571</ele><time>2026-05-02T09:49:53.355Z</time></trkpt><trkpt lat="44.1260367" lon="8.1024167"><ele>358.57142857142856</ele><time>2026-05-02T09:49:54.351Z</time></trkpt><trkpt lat="44.126" lon="8.1024883"><ele>356.0</ele><time>2026-05-02T09:49:55.352Z</time></trkpt><trkpt lat="44.1259483" lon="8.1026217"><ele>355.83333333333337</ele><time>2026-05-02T09:49:57.353Z</time></trkpt><trkpt lat="44.1259283" lon="8.1027533"><ele>355.6666666666667</ele><time>2026-05-02T09:49:59.353Z</time></trkpt><trkpt lat="44.12593" lon="8.1028483"><ele>355.5</ele><time>2026-05-02T09:50:01.355Z</time></trkpt><trkpt lat="44.1259017" lon="8.102935"><ele>355.3333333333333</ele><time>2026-05-02T09:50:05.351Z</time></trkpt><trkpt lat="44.1258433" lon="8.10286"><ele>355.16666666666663</ele><time>2026-05-02T09:50:08.355Z</time></trkpt><trkpt lat="44.12582" lon="8.1027383"><ele>355.0</ele><time>2026-05-02T09:50:15.352Z</time></trkpt><trkpt lat="44.1258267" lon="8.1026433"><ele>355.0</ele><time>2026-05-02T09:50:18.354Z</time></trkpt><trkpt lat="44.1258483" lon="8.102525"><ele>355.0</ele><time>2026-05-02T09:50:21.356Z</time></trkpt><trkpt lat="44.1258683" lon="8.1024183"><ele>355.0</ele><time>2026-05-02T09:50:23.352Z</time></trkpt><trkpt lat="44.125895" lon="8.102325"><ele>355.0</ele><time>2026-05-02T09:50:25.358Z</time></trkpt><trkpt lat="44.12592" lon="8.1022283"><ele>355.0</ele><time>2026-05-02T09:50:27.35Z</time></trkpt><trkpt lat="44.1259483" lon="8.1021133"><ele>355.0</ele><time>2026-05-02T09:50:29.349Z</time></trkpt><trkpt lat="44.12598" lon="8.101975"><ele>355.2</ele><time>2026-05-02T09:50:31.352Z</time></trkpt><trkpt lat="44.1260233" lon="8.1018617"><ele>355.4</ele><time>2026-05-02T09:50:33.351Z</time></trkpt><trkpt lat="44.1260283" lon="8.1017467"><ele>355.6</ele><time>2026-05-02T09:50:36.354Z</time></trkpt><trkpt lat="44.1260067" lon="8.1015983"><ele>355.8</ele><time>2026-05-02T09:50:38.352Z</time></trkpt><trkpt lat="44.1259917" lon="8.1014283"><ele>356.0</ele><time>2026-05-02T09:50:40.349Z</time></trkpt><trkpt lat="44.12598" lon="8.1013383"><ele>359.0</ele><time>2026-05-02T09:50:41.351Z</time></trkpt><trkpt lat="44.1259717" lon="8.101245"><ele>362.0</ele><time>2026-05-02T09:50:42.35Z</time></trkpt><trkpt lat="44.1259667" lon="8.1011533"><ele>365.0</ele><time>2026-05-02T09:50:43.352Z</time></trkpt><trkpt lat="44.1259617" lon="8.1010033"><ele>368.0</ele><time>2026-05-02T09:50:45.351Z</time></trkpt><trkpt lat="44.1259183" lon="8.10088"><ele>371.0</ele><time>2026-05-02T09:50:47.352Z</time></trkpt><trkpt lat="44.1258467" lon="8.10081"><ele>374.0</ele><time>2026-05-02T09:50:49.351Z</time></trkpt><trkpt lat="44.1257817" lon="8.1008233"><ele>374.5</ele><time>2026-05-02T09:50:51.354Z</time></trkpt><trkpt lat="44.1256983" lon="8.1008633"><ele>375.0</ele><time>2026-05-02T09:50:53.352Z</time></trkpt><trkpt lat="44.1256217" lon="8.10092"><ele>375.5</ele><time>2026-05-02T09:50:55.351Z</time></trkpt><trkpt lat="44.12555" lon="8.100955"><ele>376.0</ele><time>2026-05-02T09:50:58.351Z</time></trkpt><trkpt lat="44.12548" lon="8.1009983"><ele>376.5</ele><time>2026-05-02T09:51:00.355Z</time></trkpt><trkpt lat="44.1254067" lon="8.1010467"><ele>377.0</ele><time>2026-05-02T09:51:02.351Z</time></trkpt><trkpt lat="44.1253433" lon="8.10112"><ele>377.0</ele><time>2026-05-02T09:51:04.353Z</time></trkpt><trkpt lat="44.125285" lon="8.1011817"><ele>377.0</ele><time>2026-05-02T09:51:06.351Z</time></trkpt><trkpt lat="44.12523" lon="8.1012617"><ele>377.0</ele><time>2026-05-02T09:51:09.354Z</time></trkpt><trkpt lat="44.1251733" lon="8.101395"><ele>377.0</ele><time>2026-05-02T09:51:29.353Z</time></trkpt><trkpt lat="44.1251217" lon="8.10145"><ele>377.0</ele><time>2026-05-02T09:51:31.356Z</time></trkpt><trkpt lat="44.125065" lon="8.1015167"><ele>377.0</ele><time>2026-05-02T09:51:33.354Z</time></trkpt><trkpt lat="44.125" lon="8.101565"><ele>371.0</ele><time>2026-05-02T09:51:35.352Z</time></trkpt><trkpt lat="44.1249417" lon="8.1015983"><ele>365.0</ele><time>2026-05-02T09:51:37.353Z</time></trkpt><trkpt lat="44.12488" lon="8.1016267"><ele>359.0</ele><time>2026-05-02T09:51:41.349Z</time></trkpt><trkpt lat="44.1248067" lon="8.101655"><ele>353.0</ele><time>2026-05-02T09:51:44.351Z</time></trkpt><trkpt lat="44.1247317" lon="8.1017133"><ele>347.0</ele><time>2026-05-02T09:51:48.351Z</time></trkpt><trkpt lat="44.124655" lon="8.10177"><ele>341.0</ele><time>2026-05-02T09:51:51.357Z</time></trkpt><trkpt lat="44.1245783" lon="8.1018283"><ele>341.0</ele><time>2026-05-02T09:51:54.354Z</time></trkpt><trkpt lat="44.1245667" lon="8.10192"><ele>341.0</ele><time>2026-05-02T09:51:58.35Z</time></trkpt><trkpt lat="44.1246367" lon="8.1019833"><ele>341.0</ele><time>2026-05-02T09:52:03.354Z</time></trkpt><trkpt lat="44.1247883" lon="8.1020633"><ele>341.0</ele><time>2026-05-02T09:53:28.354Z</time></trkpt><trkpt lat="44.124875" lon="8.1020483"><ele>341.0</ele><time>2026-05-02T09:53:31.352Z</time></trkpt><trkpt lat="44.1249417" lon="8.1020233"><ele>341.0</ele><time>2026-05-02T09:53:35.355Z</time></trkpt><trkpt lat="44.1250017" lon="8.1020917"><ele>341.0</ele><time>2026-05-02T09:54:28.356Z</time></trkpt><trkpt lat="44.1250467" lon="8.1021967"><ele>341.0</ele><time>2026-05-02T09:54:31.36Z</time></trkpt><trkpt lat="44.1249883" lon="8.1022383"><ele>341.0</ele><time>2026-05-02T09:54:36.355Z</time></trkpt><trkpt lat="44.12492" lon="8.1022383"><ele>341.0</ele><time>2026-05-02T09:54:40.355Z</time></trkpt><trkpt lat="44.1248067" lon="8.1022983"><ele>341.0</ele><time>2026-05-02T09:55:15.355Z</time></trkpt><trkpt lat="44.12476" lon="8.10237"><ele>341.0</ele><time>2026-05-02T09:55:32.353Z</time></trkpt><trkpt lat="44.1246817" lon="8.102405"><ele>341.0</ele><time>2026-05-02T09:55:55.348Z</time></trkpt><trkpt lat="44.1246267" lon="8.10246"><ele>341.0</ele><time>2026-05-02T09:56:11.35Z</time></trkpt><trkpt lat="44.12459" lon="8.1025333"><ele>341.0</ele><time>2026-05-02T09:56:16.352Z</time></trkpt><trkpt lat="44.124555" lon="8.1026333"><ele>341.0</ele><time>2026-05-02T09:56:19.357Z</time></trkpt><trkpt lat="44.124525" lon="8.1027367"><ele>341.0</ele><time>2026-05-02T09:56:22.354Z</time></trkpt><trkpt lat="44.124505" lon="8.1028317"><ele>341.0</ele><time>2026-05-02T09:56:25.349Z</time></trkpt><trkpt lat="44.12448" lon="8.1029133"><ele>336.5</ele><time>2026-05-02T09:56:28.355Z</time></trkpt><trkpt lat="44.1244483" lon="8.1029933"><ele>332.0</ele><time>2026-05-02T09:56:35.35Z</time></trkpt><trkpt lat="44.1244067" lon="8.103095"><ele>327.5</ele><time>2026-05-02T09:58:26.355Z</time></trkpt><trkpt lat="44.1243933" lon="8.1032417"><ele>323.0</ele><time>2026-05-02T09:58:40.354Z</time></trkpt><trkpt lat="44.124345" lon="8.10334"><ele>318.5</ele><time>2026-05-02T09:58:43.353Z</time></trkpt><trkpt lat="44.1242717" lon="8.1033917"><ele>314.0</ele><time>2026-05-02T09:58:47.352Z</time></trkpt><trkpt lat="44.1242083" lon="8.103415"><ele>311.1666666666667</ele><time>2026-05-02T09:58:50.352Z</time></trkpt><trkpt lat="44.1241467" lon="8.1034817"><ele>308.33333333333337</ele><time>2026-05-02T09:59:00.36Z</time></trkpt><trkpt lat="44.1241383" lon="8.103585"><ele>305.5</ele><time>2026-05-02T09:59:03.356Z</time></trkpt><trkpt lat="44.1241967" lon="8.103635"><ele>302.6666666666667</ele><time>2026-05-02T09:59:24.352Z</time></trkpt><trkpt lat="44.1242217" lon="8.10374"><ele>299.8333333333333</ele><time>2026-05-02T09:59:26.353Z</time></trkpt><trkpt lat="44.1242583" lon="8.1038717"><ele>297.0</ele><time>2026-05-02T09:59:28.354Z</time></trkpt><trkpt lat="44.12428" lon="8.1040133"><ele>295.5</ele><time>2026-05-02T09:59:30.356Z</time></trkpt><trkpt lat="44.1242967" lon="8.1041683"><ele>294.0</ele><time>2026-05-02T09:59:32.353Z</time></trkpt><trkpt lat="44.1243017" lon="8.1043367"><ele>292.5</ele><time>2026-05-02T09:59:34.359Z</time></trkpt><trkpt lat="44.12432" lon="8.104485"><ele>291.0</ele><time>2026-05-02T09:59:36.356Z</time></trkpt><trkpt lat="44.12434" lon="8.1046333"><ele>291.0</ele><time>2026-05-02T09:59:38.352Z</time></trkpt><trkpt lat="44.12433" lon="8.10478"><ele>291.0</ele><time>2026-05-02T09:59:40.352Z</time></trkpt><trkpt lat="44.1243033" lon="8.1049167"><ele>291.0</ele><time>2026-05-02T09:59:42.354Z</time></trkpt><trkpt lat="44.1242867" lon="8.105035"><ele>291.0</ele><time>2026-05-02T09:59:44.354Z</time></trkpt><trkpt lat="44.12429" lon="8.105155"><ele>291.0</ele><time>2026-05-02T09:59:46.355Z</time></trkpt><trkpt lat="44.1243" lon="8.1053017"><ele>291.5</ele><time>2026-05-02T09:59:48.356Z</time></trkpt><trkpt lat="44.1242867" lon="8.1054033"><ele>292.0</ele><time>2026-05-02T09:59:49.353Z</time></trkpt><trkpt lat="44.1242633" lon="8.1055233"><ele>292.5</ele><time>2026-05-02T09:59:50.35Z</time></trkpt><trkpt lat="44.1242533" lon="8.105635"><ele>293.0</ele><time>2026-05-02T09:59:51.352Z</time></trkpt><trkpt lat="44.1242517" lon="8.1057483"><ele>293.5</ele><time>2026-05-02T09:59:52.355Z</time></trkpt><trkpt lat="44.124255" lon="8.105855"><ele>294.0</ele><time>2026-05-02T09:59:53.353Z</time></trkpt><trkpt lat="44.1242583" lon="8.105965"><ele>292.8</ele><time>2026-05-02T09:59:54.352Z</time></trkpt><trkpt lat="44.1242567" lon="8.1060733"><ele>291.59999999999997</ele><time>2026-05-02T09:59:55.355Z</time></trkpt><trkpt lat="44.1242533" lon="8.1061733"><ele>290.4</ele><time>2026-05-02T09:59:56.353Z</time></trkpt><trkpt lat="44.12424" lon="8.1063367"><ele>289.2</ele><time>2026-05-02T09:59:58.352Z</time></trkpt><trkpt lat="44.1242417" lon="8.10648"><ele>288.0</ele><time>2026-05-02T10:00:00.349Z</time></trkpt><trkpt lat="44.1242367" lon="8.106615"><ele>287.3333333333333</ele><time>2026-05-02T10:00:02.353Z</time></trkpt><trkpt lat="44.1242267" lon="8.1067433"><ele>286.6666666666667</ele><time>2026-05-02T10:00:04.351Z</time></trkpt><trkpt lat="44.1241983" lon="8.1068667"><ele>286.0</ele><time>2026-05-02T10:00:06.352Z</time></trkpt><trkpt lat="44.12416" lon="8.10697"><ele>285.33333333333337</ele><time>2026-05-02T10:00:08.35Z</time></trkpt><trkpt lat="44.124165" lon="8.10707"><ele>284.6666666666667</ele><time>2026-05-02T10:00:10.352Z</time></trkpt><trkpt lat="44.124205" lon="8.10718"><ele>284.0</ele><time>2026-05-02T10:00:12.354Z</time></trkpt><trkpt lat="44.1242883" lon="8.1072617"><ele>284.0</ele><time>2026-05-02T10:00:14.353Z</time></trkpt><trkpt lat="44.1243683" lon="8.10734"><ele>284.0</ele><time>2026-05-02T10:00:16.349Z</time></trkpt><trkpt lat="44.12444" lon="8.1074083"><ele>284.0</ele><time>2026-05-02T10:00:18.353Z</time></trkpt><trkpt lat="44.1245183" lon="8.107485"><ele>284.0</ele><time>2026-05-02T10:00:20.354Z</time></trkpt><trkpt lat="44.1246" lon="8.107615"><ele>284.0</ele><time>2026-05-02T10:00:22.351Z</time></trkpt><trkpt lat="44.1246517" lon="8.1077717"><ele>285.83333333333337</ele><time>2026-05-02T10:00:24.354Z</time></trkpt><trkpt lat="44.124665" lon="8.10791"><ele>287.6666666666667</ele><time>2026-05-02T10:00:26.352Z</time></trkpt><trkpt lat="44.1246467" lon="8.10803"><ele>289.5</ele><time>2026-05-02T10:00:28.354Z</time></trkpt><trkpt lat="44.1246333" lon="8.1081467"><ele>291.3333333333333</ele><time>2026-05-02T10:00:30.348Z</time></trkpt><trkpt lat="44.1246017" lon="8.1082883"><ele>293.16666666666663</ele><time>2026-05-02T10:00:32.35Z</time></trkpt><trkpt lat="44.1245833" lon="8.1083733"><ele>295.0</ele><time>2026-05-02T10:00:33.354Z</time></trkpt><trkpt lat="44.124565" lon="8.1084683"><ele>296.3333333333333</ele><time>2026-05-02T10:00:34.352Z</time></trkpt><trkpt lat="44.1245483" lon="8.1085683"><ele>297.66666666666663</ele><time>2026-05-02T10:00:35.353Z</time></trkpt><trkpt lat="44.1245333" lon="8.108675"><ele>299.0</ele><time>2026-05-02T10:00:36.353Z</time></trkpt><trkpt lat="44.1245167" lon="8.10878"><ele>300.3333333333333</ele><time>2026-05-02T10:00:37.352Z</time></trkpt><trkpt lat="44.1245" lon="8.10888"><ele>301.6666666666667</ele><time>2026-05-02T10:00:38.354Z</time></trkpt><trkpt lat="44.1244933" lon="8.1090317"><ele>303.0</ele><time>2026-05-02T10:00:40.353Z</time></trkpt><trkpt lat="44.1244867" lon="8.1091467"><ele>303.0</ele><time>2026-05-02T10:00:42.353Z</time></trkpt><trkpt lat="44.1244917" lon="8.10925"><ele>303.0</ele><time>2026-05-02T10:00:44.351Z</time></trkpt><trkpt lat="44.1244883" lon="8.1093667"><ele>303.0</ele><time>2026-05-02T10:00:46.353Z</time></trkpt><trkpt lat="44.1245133" lon="8.109475"><ele>303.0</ele><time>2026-05-02T10:00:48.353Z</time></trkpt><trkpt lat="44.1245417" lon="8.10959"><ele>303.0</ele><time>2026-05-02T10:00:50.357Z</time></trkpt><trkpt lat="44.1245633" lon="8.1096817"><ele>303.0</ele><time>2026-05-02T10:00:52.351Z</time></trkpt><trkpt lat="44.1245983" lon="8.1098017"><ele>303.0</ele><time>2026-05-02T10:00:55.35Z</time></trkpt><trkpt lat="44.1246283" lon="8.1098817"><ele>303.0</ele><time>2026-05-02T10:00:57.354Z</time></trkpt><trkpt lat="44.1246833" lon="8.1099767"><ele>303.0</ele><time>2026-05-02T10:00:59.352Z</time></trkpt><trkpt lat="44.1247133" lon="8.1100933"><ele>303.0</ele><time>2026-05-02T10:01:01.35Z</time></trkpt><trkpt lat="44.1247033" lon="8.11022"><ele>303.0</ele><time>2026-05-02T10:01:03.349Z</time></trkpt><trkpt lat="44.124655" lon="8.110335"><ele>303.0</ele><time>2026-05-02T10:01:05.354Z</time></trkpt><trkpt lat="44.1246117" lon="8.1104617"><ele>301.2</ele><time>2026-05-02T10:01:07.356Z</time></trkpt><trkpt lat="44.1245783" lon="8.1105733"><ele>299.4</ele><time>2026-05-02T10:01:09.352Z</time></trkpt><trkpt lat="44.124535" lon="8.1106833"><ele>297.59999999999997</ele><time>2026-05-02T10:01:11.355Z</time></trkpt><trkpt lat="44.1244683" lon="8.1107717"><ele>295.8</ele><time>2026-05-02T10:01:13.35Z</time></trkpt><trkpt lat="44.1243717" lon="8.110825"><ele>294.0</ele><time>2026-05-02T10:01:15.354Z</time></trkpt><trkpt lat="44.1242933" lon="8.1108767"><ele>286.2</ele><time>2026-05-02T10:01:17.35Z</time></trkpt><trkpt lat="44.12422" lon="8.1109417"><ele>278.4</ele><time>2026-05-02T10:01:19.351Z</time></trkpt><trkpt lat="44.124135" lon="8.110975"><ele>270.6</ele><time>2026-05-02T10:01:21.358Z</time></trkpt><trkpt lat="44.1240417" lon="8.111"><ele>262.8</ele><time>2026-05-02T10:01:23.349Z</time></trkpt><trkpt lat="44.1239367" lon="8.111015"><ele>255.0</ele><time>2026-05-02T10:01:25.356Z</time></trkpt><trkpt lat="44.123815" lon="8.1110167"><ele>254.6</ele><time>2026-05-02T10:01:27.353Z</time></trkpt><trkpt lat="44.12375" lon="8.111015"><ele>254.2</ele><time>2026-05-02T10:01:28.352Z</time></trkpt><trkpt lat="44.1236867" lon="8.1110083"><ele>253.8</ele><time>2026-05-02T10:01:29.356Z</time></trkpt><trkpt lat="44.1235717" lon="8.1110067"><ele>253.4</ele><time>2026-05-02T10:01:31.35Z</time></trkpt><trkpt lat="44.1234633" lon="8.110985"><ele>253.0</ele><time>2026-05-02T10:01:33.356Z</time></trkpt><trkpt lat="44.12336" lon="8.11094"><ele>252.99999999999997</ele><time>2026-05-02T10:01:35.349Z</time></trkpt><trkpt lat="44.12327" lon="8.1108983"><ele>253.0</ele><time>2026-05-02T10:01:37.349Z</time></trkpt><trkpt lat="44.1232083" lon="8.1108383"><ele>253.0</ele><time>2026-05-02T10:01:39.355Z</time></trkpt><trkpt lat="44.1231467" lon="8.1108083"><ele>253.0</ele><time>2026-05-02T10:01:41.349Z</time></trkpt><trkpt lat="44.1230583" lon="8.1108033"><ele>252.99999999999997</ele><time>2026-05-02T10:01:43.35Z</time></trkpt><trkpt lat="44.12295" lon="8.1108067"><ele>253.0</ele><time>2026-05-02T10:01:45.352Z</time></trkpt><trkpt lat="44.1228317" lon="8.1107917"><ele>253.33333333333331</ele><time>2026-05-02T10:01:47.353Z</time></trkpt><trkpt lat="44.1227417" lon="8.1107533"><ele>253.66666666666666</ele><time>2026-05-02T10:01:49.351Z</time></trkpt><trkpt lat="44.1226617" lon="8.1107217"><ele>254.0</ele><time>2026-05-02T10:01:51.354Z</time></trkpt><trkpt lat="44.1226033" lon="8.1106817"><ele>254.33333333333331</ele><time>2026-05-02T10:01:53.352Z</time></trkpt><trkpt lat="44.122515" lon="8.1106817"><ele>254.66666666666666</ele><time>2026-05-02T10:01:56.355Z</time></trkpt><trkpt lat="44.1224483" lon="8.1107133"><ele>255.0</ele><time>2026-05-02T10:01:58.356Z</time></trkpt><trkpt lat="44.12236" lon="8.1107217"><ele>255.0</ele><time>2026-05-02T10:02:01.351Z</time></trkpt><trkpt lat="44.12228" lon="8.1106917"><ele>255.00000000000003</ele><time>2026-05-02T10:02:04.352Z</time></trkpt><trkpt lat="44.122205" lon="8.1106717"><ele>255.0</ele><time>2026-05-02T10:02:07.355Z</time></trkpt><trkpt lat="44.12214" lon="8.1106533"><ele>255.0</ele><time>2026-05-02T10:02:09.351Z</time></trkpt><trkpt lat="44.1220717" lon="8.1106283"><ele>255.00000000000003</ele><time>2026-05-02T10:02:11.35Z</time></trkpt><trkpt lat="44.1219983" lon="8.1106483"><ele>255.0</ele><time>2026-05-02T10:02:13.352Z</time></trkpt><trkpt lat="44.121945" lon="8.11071"><ele>255.0</ele><time>2026-05-02T10:02:15.354Z</time></trkpt><trkpt lat="44.1219017" lon="8.11078"><ele>249.33333333333334</ele><time>2026-05-02T10:02:17.351Z</time></trkpt><trkpt lat="44.121825" lon="8.1108483"><ele>243.66666666666669</ele><time>2026-05-02T10:02:19.35Z</time></trkpt><trkpt lat="44.1217317" lon="8.1108983"><ele>238.0</ele><time>2026-05-02T10:02:21.351Z</time></trkpt><trkpt lat="44.1216567" lon="8.1109017"><ele>232.33333333333334</ele><time>2026-05-02T10:02:23.352Z</time></trkpt><trkpt lat="44.121585" lon="8.11088"><ele>226.66666666666669</ele><time>2026-05-02T10:02:25.35Z</time></trkpt><trkpt lat="44.1215117" lon="8.1108467"><ele>221.0</ele><time>2026-05-02T10:02:28.35Z</time></trkpt><trkpt lat="44.1214367" lon="8.1108267"><ele>220.85714285714286</ele><time>2026-05-02T10:02:33.35Z</time></trkpt><trkpt lat="44.1213683" lon="8.1108167"><ele>220.71428571428572</ele><time>2026-05-02T10:02:35.35Z</time></trkpt><trkpt lat="44.121285" lon="8.1108083"><ele>220.57142857142856</ele><time>2026-05-02T10:02:38.355Z</time></trkpt><trkpt lat="44.1212167" lon="8.1108783"><ele>220.42857142857144</ele><time>2026-05-02T10:02:41.357Z</time></trkpt><trkpt lat="44.121165" lon="8.1109417"><ele>220.28571428571428</ele><time>2026-05-02T10:02:43.351Z</time></trkpt><trkpt lat="44.1211033" lon="8.1109767"><ele>220.14285714285714</ele><time>2026-05-02T10:02:45.352Z</time></trkpt><trkpt lat="44.1210283" lon="8.1109817"><ele>220.0</ele><time>2026-05-02T10:02:47.353Z</time></trkpt><trkpt lat="44.12096" lon="8.11094"><ele>219.99999999999997</ele><time>2026-05-02T10:02:49.355Z</time></trkpt><trkpt lat="44.1208883" lon="8.1108717"><ele>220.0</ele><time>2026-05-02T10:02:51.355Z</time></trkpt><trkpt lat="44.1208317" lon="8.1108183"><ele>220.0</ele><time>2026-05-02T10:02:53.355Z</time></trkpt><trkpt lat="44.120755" lon="8.1108117"><ele>220.0</ele><time>2026-05-02T10:02:56.352Z</time></trkpt><trkpt lat="44.12071" lon="8.110895"><ele>219.99999999999997</ele><time>2026-05-02T10:02:59.354Z</time></trkpt><trkpt lat="44.120665" lon="8.1110117"><ele>220.0</ele><time>2026-05-02T10:03:01.351Z</time></trkpt><trkpt lat="44.1206" lon="8.111155"><ele>218.2</ele><time>2026-05-02T10:03:03.357Z</time></trkpt><trkpt lat="44.12054" lon="8.1112817"><ele>216.4</ele><time>2026-05-02T10:03:05.354Z</time></trkpt><trkpt lat="44.1204767" lon="8.1113783"><ele>214.60000000000002</ele><time>2026-05-02T10:03:07.353Z</time></trkpt><trkpt lat="44.1204183" lon="8.1114717"><ele>212.8</ele><time>2026-05-02T10:03:09.35Z</time></trkpt><trkpt lat="44.1203667" lon="8.11157"><ele>211.0</ele><time>2026-05-02T10:03:11.353Z</time></trkpt><trkpt lat="44.1202933" lon="8.1116833"><ele>211.0</ele><time>2026-05-02T10:03:13.355Z</time></trkpt><trkpt lat="44.1202017" lon="8.11174"><ele>211.0</ele><time>2026-05-02T10:03:15.351Z</time></trkpt><trkpt lat="44.1201217" lon="8.1117783"><ele>211.0</ele><time>2026-05-02T10:03:17.353Z</time></trkpt><trkpt lat="44.1200467" lon="8.111865"><ele>211.0</ele><time>2026-05-02T10:03:19.353Z</time></trkpt><trkpt lat="44.1199533" lon="8.1119817"><ele>211.0</ele><time>2026-05-02T10:03:21.355Z</time></trkpt><trkpt lat="44.1198983" lon="8.1120467"><ele>211.16666666666666</ele><time>2026-05-02T10:03:22.353Z</time></trkpt><trkpt lat="44.11985" lon="8.1121117"><ele>211.33333333333331</ele><time>2026-05-02T10:03:23.356Z</time></trkpt><trkpt lat="44.1198017" lon="8.1121867"><ele>211.5</ele><time>2026-05-02T10:03:24.354Z</time></trkpt><trkpt lat="44.1197533" lon="8.1122717"><ele>211.66666666666669</ele><time>2026-05-02T10:03:25.355Z</time></trkpt><trkpt lat="44.1197067" lon="8.112365"><ele>211.83333333333334</ele><time>2026-05-02T10:03:26.352Z</time></trkpt><trkpt lat="44.1196633" lon="8.112465"><ele>212.0</ele><time>2026-05-02T10:03:27.356Z</time></trkpt><trkpt lat="44.11962" lon="8.1125583"><ele>212.0</ele><time>2026-05-02T10:03:28.355Z</time></trkpt><trkpt lat="44.11958" lon="8.112655"><ele>212.0</ele><time>2026-05-02T10:03:29.353Z</time></trkpt><trkpt lat="44.1195367" lon="8.11275"><ele>212.0</ele><time>2026-05-02T10:03:30.354Z</time></trkpt><trkpt lat="44.1194933" lon="8.1128383"><ele>212.0</ele><time>2026-05-02T10:03:31.352Z</time></trkpt><trkpt lat="44.1194617" lon="8.1129217"><ele>212.0</ele><time>2026-05-02T10:03:32.356Z</time></trkpt><trkpt lat="44.119435" lon="8.11301"><ele>212.0</ele><time>2026-05-02T10:03:33.352Z</time></trkpt><trkpt lat="44.1194183" lon="8.1131"><ele>212.0</ele><time>2026-05-02T10:03:34.35Z</time></trkpt><trkpt lat="44.1193983" lon="8.1132617"><ele>205.0</ele><time>2026-05-02T10:03:36.351Z</time></trkpt><trkpt lat="44.1193783" lon="8.11342"><ele>198.0</ele><time>2026-05-02T10:03:38.359Z</time></trkpt><trkpt lat="44.11934" lon="8.1135667"><ele>191.0</ele><time>2026-05-02T10:03:40.351Z</time></trkpt><trkpt lat="44.1193117" lon="8.1136667"><ele>184.0</ele><time>2026-05-02T10:03:42.352Z</time></trkpt><trkpt lat="44.1192717" lon="8.11374"><ele>177.0</ele><time>2026-05-02T10:03:45.35Z</time></trkpt><trkpt lat="44.1192" lon="8.1137883"><ele>177.0</ele><time>2026-05-02T10:03:48.349Z</time></trkpt><trkpt lat="44.1190983" lon="8.11381"><ele>177.0</ele><time>2026-05-02T10:03:50.35Z</time></trkpt><trkpt lat="44.1190283" lon="8.1138017"><ele>177.0</ele><time>2026-05-02T10:03:51.353Z</time></trkpt><trkpt lat="44.1189567" lon="8.11378"><ele>177.0</ele><time>2026-05-02T10:03:52.353Z</time></trkpt><trkpt lat="44.1188817" lon="8.1137417"><ele>177.0</ele><time>2026-05-02T10:03:53.352Z</time></trkpt><trkpt lat="44.118805" lon="8.11369"><ele>177.0</ele><time>2026-05-02T10:03:54.353Z</time></trkpt><trkpt lat="44.118725" lon="8.1136367"><ele>175.8</ele><time>2026-05-02T10:03:55.359Z</time></trkpt><trkpt lat="44.118645" lon="8.1135933"><ele>174.6</ele><time>2026-05-02T10:03:56.354Z</time></trkpt><trkpt lat="44.1185583" lon="8.1135583"><ele>173.4</ele><time>2026-05-02T10:03:57.356Z</time></trkpt><trkpt lat="44.1184667" lon="8.113525"><ele>172.20000000000002</ele><time>2026-05-02T10:03:58.35Z</time></trkpt><trkpt lat="44.1183767" lon="8.113495"><ele>171.0</ele><time>2026-05-02T10:03:59.349Z</time></trkpt><trkpt lat="44.118285" lon="8.1134633"><ele>167.0</ele><time>2026-05-02T10:04:00.355Z</time></trkpt><trkpt lat="44.1181917" lon="8.1134367"><ele>163.0</ele><time>2026-05-02T10:04:01.352Z</time></trkpt><trkpt lat="44.1180917" lon="8.1134117"><ele>159.0</ele><time>2026-05-02T10:04:02.355Z</time></trkpt><trkpt lat="44.1179867" lon="8.1133867"><ele>155.0</ele><time>2026-05-02T10:04:03.35Z</time></trkpt><trkpt lat="44.1178783" lon="8.1133667"><ele>151.0</ele><time>2026-05-02T10:04:04.357Z</time></trkpt><trkpt lat="44.1177733" lon="8.113355"><ele>151.0</ele><time>2026-05-02T10:04:05.352Z</time></trkpt><trkpt lat="44.1176733" lon="8.1133467"><ele>151.0</ele><time>2026-05-02T10:04:06.352Z</time></trkpt><trkpt lat="44.11758" lon="8.1133383"><ele>151.0</ele><time>2026-05-02T10:04:07.357Z</time></trkpt><trkpt lat="44.1175083" lon="8.113325"><ele>151.0</ele><time>2026-05-02T10:04:08.355Z</time></trkpt><trkpt lat="44.11741" lon="8.1132717"><ele>151.0</ele><time>2026-05-02T10:04:10.358Z</time></trkpt><trkpt lat="44.1173333" lon="8.1131567"><ele>153.66666666666669</ele><time>2026-05-02T10:04:12.352Z</time></trkpt><trkpt lat="44.1172833" lon="8.1130867"><ele>156.33333333333334</ele><time>2026-05-02T10:04:13.351Z</time></trkpt><trkpt lat="44.11722" lon="8.1130217"><ele>159.0</ele><time>2026-05-02T10:04:14.348Z</time></trkpt><trkpt lat="44.117145" lon="8.112955"><ele>161.66666666666666</ele><time>2026-05-02T10:04:15.353Z</time></trkpt><trkpt lat="44.11707" lon="8.1129067"><ele>164.33333333333331</ele><time>2026-05-02T10:04:16.354Z</time></trkpt><trkpt lat="44.1169983" lon="8.1128833"><ele>167.0</ele><time>2026-05-02T10:04:17.351Z</time></trkpt><trkpt lat="44.1168767" lon="8.112935"><ele>167.0</ele><time>2026-05-02T10:04:19.35Z</time></trkpt><trkpt lat="44.1168167" lon="8.113075"><ele>167.0</ele><time>2026-05-02T10:04:21.356Z</time></trkpt><trkpt lat="44.1168217" lon="8.113175"><ele>167.0</ele><time>2026-05-02T10:04:22.358Z</time></trkpt><trkpt lat="44.116835" lon="8.1132717"><ele>167.0</ele><time>2026-05-02T10:04:23.353Z</time></trkpt><trkpt lat="44.1168367" lon="8.1133717"><ele>167.0</ele><time>2026-05-02T10:04:24.351Z</time></trkpt><trkpt lat="44.1168283" lon="8.1134667"><ele>167.0</ele><time>2026-05-02T10:04:25.356Z</time></trkpt><trkpt lat="44.116805" lon="8.1135483"><ele>165.4</ele><time>2026-05-02T10:04:26.355Z</time></trkpt><trkpt lat="44.1167083" lon="8.1136667"><ele>163.79999999999998</ele><time>2026-05-02T10:04:28.353Z</time></trkpt><trkpt lat="44.116635" lon="8.1137183"><ele>162.2</ele><time>2026-05-02T10:04:29.352Z</time></trkpt><trkpt lat="44.1165633" lon="8.11377"><ele>160.6</ele><time>2026-05-02T10:04:30.352Z</time></trkpt><trkpt lat="44.1164883" lon="8.11382"><ele>159.0</ele><time>2026-05-02T10:04:31.352Z</time></trkpt><trkpt lat="44.1164083" lon="8.1138633"><ele>160.0</ele><time>2026-05-02T10:04:32.356Z</time></trkpt><trkpt lat="44.1163317" lon="8.1139033"><ele>161.0</ele><time>2026-05-02T10:04:33.353Z</time></trkpt><trkpt lat="44.116255" lon="8.1139417"><ele>162.0</ele><time>2026-05-02T10:04:34.353Z</time></trkpt><trkpt lat="44.1161833" lon="8.1139833"><ele>163.0</ele><time>2026-05-02T10:04:35.353Z</time></trkpt><trkpt lat="44.1161167" lon="8.11403"><ele>164.0</ele><time>2026-05-02T10:04:36.355Z</time></trkpt><trkpt lat="44.1160517" lon="8.114075"><ele>165.0</ele><time>2026-05-02T10:04:37.356Z</time></trkpt><trkpt lat="44.1159833" lon="8.1141233"><ele>165.0</ele><time>2026-05-02T10:04:38.355Z</time></trkpt><trkpt lat="44.1159183" lon="8.11418"><ele>165.0</ele><time>2026-05-02T10:04:39.361Z</time></trkpt><trkpt lat="44.1158633" lon="8.1142517"><ele>165.0</ele><time>2026-05-02T10:04:40.353Z</time></trkpt><trkpt lat="44.115815" lon="8.1143333"><ele>165.0</ele><time>2026-05-02T10:04:41.355Z</time></trkpt><trkpt lat="44.1157733" lon="8.114425"><ele>165.0</ele><time>2026-05-02T10:04:42.352Z</time></trkpt><trkpt lat="44.115725" lon="8.1145233"><ele>165.0</ele><time>2026-05-02T10:04:43.35Z</time></trkpt><trkpt lat="44.1156683" lon="8.1146183"><ele>164.83333333333334</ele><time>2026-05-02T10:04:44.35Z</time></trkpt><trkpt lat="44.1156067" lon="8.1147117"><ele>164.66666666666666</ele><time>2026-05-02T10:04:45.35Z</time></trkpt><trkpt lat="44.1155433" lon="8.1148017"><ele>164.5</ele><time>2026-05-02T10:04:46.356Z</time></trkpt><trkpt lat="44.1154767" lon="8.1148783"><ele>164.33333333333331</ele><time>2026-05-02T10:04:47.351Z</time></trkpt><trkpt lat="44.1154083" lon="8.1149583"><ele>164.16666666666666</ele><time>2026-05-02T10:04:48.35Z</time></trkpt><trkpt lat="44.115355" lon="8.115045"><ele>164.0</ele><time>2026-05-02T10:04:49.353Z</time></trkpt><trkpt lat="44.11531" lon="8.1151317"><ele>164.0</ele><time>2026-05-02T10:04:50.352Z</time></trkpt><trkpt lat="44.1152933" lon="8.11523"><ele>164.0</ele><time>2026-05-02T10:04:51.353Z</time></trkpt><trkpt lat="44.1152833" lon="8.11533"><ele>164.0</ele><time>2026-05-02T10:04:52.352Z</time></trkpt><trkpt lat="44.115255" lon="8.11547"><ele>164.0</ele><time>2026-05-02T10:04:54.351Z</time></trkpt><trkpt lat="44.1152067" lon="8.1155333"><ele>164.0</ele><time>2026-05-02T10:04:56.352Z</time></trkpt><trkpt lat="44.1151017" lon="8.1155517"><ele>164.0</ele><time>2026-05-02T10:04:58.357Z</time></trkpt><trkpt lat="44.1150383" lon="8.1155483"><ele>164.0</ele><time>2026-05-02T10:04:59.35Z</time></trkpt><trkpt lat="44.1149733" lon="8.115545"><ele>164.0</ele><time>2026-05-02T10:05:00.361Z</time></trkpt><trkpt lat="44.1149067" lon="8.1155433"><ele>164.0</ele><time>2026-05-02T10:05:01.353Z</time></trkpt><trkpt lat="44.11483" lon="8.115555"><ele>164.0</ele><time>2026-05-02T10:05:02.351Z</time></trkpt><trkpt lat="44.11475" lon="8.115585"><ele>164.0</ele><time>2026-05-02T10:05:03.353Z</time></trkpt><trkpt lat="44.1146717" lon="8.1156217"><ele>164.0</ele><time>2026-05-02T10:05:04.356Z</time></trkpt><trkpt lat="44.1145917" lon="8.1156583"><ele>162.16666666666666</ele><time>2026-05-02T10:05:05.354Z</time></trkpt><trkpt lat="44.1145117" lon="8.1156917"><ele>160.33333333333331</ele><time>2026-05-02T10:05:06.35Z</time></trkpt><trkpt lat="44.114435" lon="8.115715"><ele>158.5</ele><time>2026-05-02T10:05:07.351Z</time></trkpt><trkpt lat="44.1143583" lon="8.1157283"><ele>156.66666666666666</ele><time>2026-05-02T10:05:08.356Z</time></trkpt><trkpt lat="44.114285" lon="8.11573"><ele>154.83333333333334</ele><time>2026-05-02T10:05:09.356Z</time></trkpt><trkpt lat="44.1142083" lon="8.1157283"><ele>153.0</ele><time>2026-05-02T10:05:10.352Z</time></trkpt><trkpt lat="44.1141333" lon="8.11572"><ele>149.83333333333334</ele><time>2026-05-02T10:05:11.352Z</time></trkpt><trkpt lat="44.1140583" lon="8.1157117"><ele>146.66666666666666</ele><time>2026-05-02T10:05:12.349Z</time></trkpt><trkpt lat="44.1139817" lon="8.1157033"><ele>143.5</ele><time>2026-05-02T10:05:13.353Z</time></trkpt><trkpt lat="44.1139033" lon="8.11569"><ele>140.33333333333331</ele><time>2026-05-02T10:05:14.354Z</time></trkpt><trkpt lat="44.1138283" lon="8.11567"><ele>137.16666666666666</ele><time>2026-05-02T10:05:15.354Z</time></trkpt><trkpt lat="44.113755" lon="8.1156417"><ele>134.0</ele><time>2026-05-02T10:05:16.352Z</time></trkpt><trkpt lat="44.1136867" lon="8.1156083"><ele>134.0</ele><time>2026-05-02T10:05:17.35Z</time></trkpt><trkpt lat="44.1136167" lon="8.115575"><ele>134.0</ele><time>2026-05-02T10:05:18.351Z</time></trkpt><trkpt lat="44.1135433" lon="8.1155417"><ele>134.0</ele><time>2026-05-02T10:05:19.354Z</time></trkpt><trkpt lat="44.1134683" lon="8.1155033"><ele>134.0</ele><time>2026-05-02T10:05:20.352Z</time></trkpt><trkpt lat="44.1133917" lon="8.1154633"><ele>134.0</ele><time>2026-05-02T10:05:21.355Z</time></trkpt><trkpt lat="44.1133217" lon="8.1154233"><ele>134.0</ele><time>2026-05-02T10:05:22.352Z</time></trkpt><trkpt lat="44.1132567" lon="8.1153983"><ele>132.0</ele><time>2026-05-02T10:05:23.349Z</time></trkpt><trkpt lat="44.1131517" lon="8.11543"><ele>130.0</ele><time>2026-05-02T10:05:25.351Z</time></trkpt><trkpt lat="44.1130933" lon="8.115525"><ele>128.0</ele><time>2026-05-02T10:05:27.351Z</time></trkpt><trkpt lat="44.11303" lon="8.1155717"><ele>126.0</ele><time>2026-05-02T10:05:35.353Z</time></trkpt><trkpt lat="44.11292" lon="8.1155"><ele>124.0</ele><time>2026-05-02T10:05:37.353Z</time></trkpt><trkpt lat="44.1128483" lon="8.1154417"><ele>124.0</ele><time>2026-05-02T10:05:38.348Z</time></trkpt><trkpt lat="44.11277" lon="8.11538"><ele>124.0</ele><time>2026-05-02T10:05:39.351Z</time></trkpt><trkpt lat="44.112685" lon="8.1153167"><ele>124.0</ele><time>2026-05-02T10:05:40.357Z</time></trkpt><trkpt lat="44.1125933" lon="8.1152483"><ele>124.0</ele><time>2026-05-02T10:05:41.35Z</time></trkpt><trkpt lat="44.1124983" lon="8.1151717"><ele>124.0</ele><time>2026-05-02T10:05:42.35Z</time></trkpt><trkpt lat="44.112395" lon="8.1150933"><ele>123.5</ele><time>2026-05-02T10:05:43.353Z</time></trkpt><trkpt lat="44.1122883" lon="8.1150133"><ele>123.0</ele><time>2026-05-02T10:05:44.352Z</time></trkpt><trkpt lat="44.112185" lon="8.1149367"><ele>122.5</ele><time>2026-05-02T10:05:45.356Z</time></trkpt><trkpt lat="44.11208" lon="8.1148633"><ele>122.0</ele><time>2026-05-02T10:05:46.351Z</time></trkpt><trkpt lat="44.1119767" lon="8.1147933"><ele>124.8</ele><time>2026-05-02T10:05:47.349Z</time></trkpt><trkpt lat="44.1118733" lon="8.11473"><ele>127.6</ele><time>2026-05-02T10:05:48.354Z</time></trkpt><trkpt lat="44.11177" lon="8.1146817"><ele>130.39999999999998</ele><time>2026-05-02T10:05:49.352Z</time></trkpt><trkpt lat="44.11167" lon="8.114645"><ele>133.2</ele><time>2026-05-02T10:05:50.355Z</time></trkpt><trkpt lat="44.111565" lon="8.1146167"><ele>136.0</ele><time>2026-05-02T10:05:51.356Z</time></trkpt><trkpt lat="44.11146" lon="8.1145967"><ele>138.4</ele><time>2026-05-02T10:05:52.354Z</time></trkpt><trkpt lat="44.11136" lon="8.1145883"><ele>140.8</ele><time>2026-05-02T10:05:53.354Z</time></trkpt><trkpt lat="44.1112633" lon="8.1145933"><ele>143.20000000000002</ele><time>2026-05-02T10:05:54.356Z</time></trkpt><trkpt lat="44.1111717" lon="8.114615"><ele>145.6</ele><time>2026-05-02T10:05:55.35Z</time></trkpt><trkpt lat="44.11109" lon="8.1146583"><ele>148.0</ele><time>2026-05-02T10:05:56.349Z</time></trkpt><trkpt lat="44.1110083" lon="8.1147167"><ele>148.0</ele><time>2026-05-02T10:05:57.355Z</time></trkpt><trkpt lat="44.1109233" lon="8.1147767"><ele>148.0</ele><time>2026-05-02T10:05:58.354Z</time></trkpt><trkpt lat="44.1108333" lon="8.1148383"><ele>148.0</ele><time>2026-05-02T10:05:59.349Z</time></trkpt><trkpt lat="44.1107367" lon="8.114905"><ele>148.0</ele><time>2026-05-02T10:06:00.35Z</time></trkpt><trkpt lat="44.1106367" lon="8.11497"><ele>148.0</ele><time>2026-05-02T10:06:01.351Z</time></trkpt><trkpt lat="44.1105333" lon="8.1150417"><ele>143.75</ele><time>2026-05-02T10:06:02.353Z</time></trkpt><trkpt lat="44.110425" lon="8.1150983"><ele>139.5</ele><time>2026-05-02T10:06:03.354Z</time></trkpt><trkpt lat="44.1103183" lon="8.1151533"><ele>135.25</ele><time>2026-05-02T10:06:04.351Z</time></trkpt><trkpt lat="44.11021" lon="8.11521"><ele>131.0</ele><time>2026-05-02T10:06:05.354Z</time></trkpt><trkpt lat="44.1101033" lon="8.11526"><ele>131.0</ele><time>2026-05-02T10:06:06.353Z</time></trkpt><trkpt lat="44.1100017" lon="8.11531"><ele>131.0</ele><time>2026-05-02T10:06:07.355Z</time></trkpt><trkpt lat="44.1099033" lon="8.1153617"><ele>131.0</ele><time>2026-05-02T10:06:08.352Z</time></trkpt><trkpt lat="44.1098133" lon="8.11542"><ele>131.0</ele><time>2026-05-02T10:06:09.352Z</time></trkpt><trkpt lat="44.10973" lon="8.1154917"><ele>131.0</ele><time>2026-05-02T10:06:10.351Z</time></trkpt><trkpt lat="44.1096467" lon="8.11558"><ele>129.5</ele><time>2026-05-02T10:06:11.352Z</time></trkpt><trkpt lat="44.1095617" lon="8.1156767"><ele>128.0</ele><time>2026-05-02T10:06:12.353Z</time></trkpt><trkpt lat="44.1094717" lon="8.1157783"><ele>126.5</ele><time>2026-05-02T10:06:13.349Z</time></trkpt><trkpt lat="44.109375" lon="8.1158867"><ele>125.0</ele><time>2026-05-02T10:06:14.35Z</time></trkpt><trkpt lat="44.109275" lon="8.116005"><ele>125.0</ele><time>2026-05-02T10:06:15.353Z</time></trkpt><trkpt lat="44.1091717" lon="8.1161217"><ele>125.0</ele><time>2026-05-02T10:06:16.353Z</time></trkpt><trkpt lat="44.1090733" lon="8.116235"><ele>125.0</ele><time>2026-05-02T10:06:17.353Z</time></trkpt><trkpt lat="44.108985" lon="8.1163483"><ele>125.0</ele><time>2026-05-02T10:06:18.352Z</time></trkpt><trkpt lat="44.1089133" lon="8.1164667"><ele>124.8</ele><time>2026-05-02T10:06:19.353Z</time></trkpt><trkpt lat="44.108855" lon="8.1165933"><ele>124.6</ele><time>2026-05-02T10:06:20.357Z</time></trkpt><trkpt lat="44.1088067" lon="8.1167233"><ele>124.4</ele><time>2026-05-02T10:06:21.358Z</time></trkpt><trkpt lat="44.10877" lon="8.1168483"><ele>124.2</ele><time>2026-05-02T10:06:22.349Z</time></trkpt><trkpt lat="44.1087467" lon="8.1169667"><ele>124.0</ele><time>2026-05-02T10:06:23.358Z</time></trkpt><trkpt lat="44.1087383" lon="8.1170783"><ele>124.0</ele><time>2026-05-02T10:06:24.353Z</time></trkpt><trkpt lat="44.10874" lon="8.1171733"><ele>124.0</ele><time>2026-05-02T10:06:25.351Z</time></trkpt><trkpt lat="44.108795" lon="8.117255"><ele>124.0</ele><time>2026-05-02T10:06:27.35Z</time></trkpt><trkpt lat="44.10886" lon="8.1172117"><ele>124.0</ele><time>2026-05-02T10:06:29.35Z</time></trkpt></trkseg></trk></gpx>